[[[{"header":{"parameterUnit":"kt","parameterCategory":2,"dx":1,"dy":1,"la1":29.587661999999998,"la2":31.0,"lo1":-88.76705300000003,"lo2":-86.6583820000003,"nx":115,"ny":88,"refTime":"2022-10-20T06:00:00:Z","depth":0,"parameterNumber":1,"parameterNumberName":"U-component_of_WINDS"},"data":[-6.8471,-6.7902,-6.756,-6.6497,-6.5092,-6.4959,-6.4959,-6.4959,-6.4959,-6.4959,-6.4959,-6.4959,-6.4959,-6.4959,-6.4959,-6.4959,-6.4959,-6.4959,-6.4959,-6.4959,-6.4959,-6.4959,-6.4959,-6.4959,-6.4959,-6.4959,-6.4959,-6.4959,-6.4959,-6.4959,-6.4959,-6.4959,-6.4959,-6.4959,-6.4959,-6.4959,-6.494,-6.4845,-6.4731,-6.4181,-6.3213,-6.2188,-6.0935,-6.0384,-6.0062,-6.0062,-6.0062,-6.0062,-6.0062,-6.0062,-5.9683,-5.8488,-5.7994,-5.8126,-5.8012,-5.681,-5.6447,-5.6447,-5.5488,-5.3111,-5.1351,-4.9119,-4.7103,-4.5689,-4.3671,-4.2573,-4.34,-4.34,-4.2573,-4.2573,-4.1975,-4.1975,-4.1143,-4.1143,-4.102,-4.102,-4.102,-4.102,-4.102,-4.102,-4.102,-4.102,-4.102,-4.102,-4.102,-4.0968,-4.0968,-4.0669,-4.0357,-3.9903,-3.9435,-3.8968,-3.8475,-3.8033,-3.7861,-3.7782,-3.7756,-3.7756,-3.7756,-3.7756,-3.7756,-3.7756,-3.7488,-3.7319,-3.7293,-3.7176,-3.68,-3.6345,-3.5822,-3.5459,-3.5097,-3.4852,-3.4475,-3.4254,-3.4319,-6.9116,-6.942,-6.8053,-6.6478,-6.5092,-6.4959,-6.4959,-6.4959,-6.4959,-6.4959,-6.4959,-6.4959,-6.4959,-6.4959,-6.4959,-6.4959,-6.4959,-6.4959,-6.4959,-6.4959,-6.4959,-6.4959,-6.4959,-6.4959,-6.4959,-6.4959,-6.4959,-6.4959,-6.4959,-6.4959,-6.4959,-6.4959,-6.4959,-6.4959,-6.4959,-6.4959,-6.4959,-6.4826,-6.4295,-6.3554,-6.2643,-6.1732,-6.0859,-6.0308,-6.0062,-6.0062,-6.0062,-6.0062,-6.0062,-6.0062,-5.9929,-5.9437,-5.9456,-5.9437,-5.9209,-5.9209,-5.8716,-5.8716,-5.8469,-5.6083,-5.4775,-5.3111,-5.11,-4.8865,-4.6291,-4.6036,-4.7328,-4.7088,-4.593,-4.522,-4.4251,-4.3535,-4.2111,-4.1265,-4.1143,-4.102,-4.102,-4.102,-4.102,-4.102,-4.102,-4.102,-4.102,-4.102,-4.0981,-4.0903,-4.0734,-4.0435,-4.0033,-3.9435,-3.8955,-3.8501,-3.8137,-3.8056,-3.7821,-3.7756,-3.7756,-3.7756,-3.7756,-3.7756,-3.773,-3.7587,-3.7319,-3.7111,-3.6787,-3.6579,-3.6228,-3.577,-3.542,-3.5045,-3.4813,-3.4488,-3.419,-3.419,-3.419,-6.9287,-6.9762,-6.8167,-6.6497,-6.513,-6.4959,-6.4959,-6.4959,-6.4959,-6.4959,-6.4959,-6.4959,-6.4959,-6.4959,-6.4959,-6.4959,-6.4959,-6.4959,-6.4959,-6.4959,-6.4959,-6.4959,-6.4959,-6.4959,-6.4959,-6.4959,-6.4959,-6.4959,-6.4959,-6.4959,-6.4959,-6.4959,-6.4959,-6.4959,-6.4959,-6.4959,-6.4959,-6.4902,-6.4181,-6.3118,-6.1827,-6.1087,-6.0346,-6.0232,-6.0062,-6.0062,-6.0062,-6.0062,-6.0062,-6.0062,-6.0062,-6.0062,-6.0062,-6.0062,-6.0062,-6.0062,-6.0062,-6.0062,-5.9683,-5.8488,-5.7173,-5.5256,-5.3345,-5.1806,-4.9237,-5.0542,-5.1822,-5.0289,-4.9119,-4.8523,-4.7567,-4.5205,-4.3657,-4.2356,-4.1988,-4.1388,-4.102,-4.102,-4.102,-4.102,-4.102,-4.102,-4.1007,-4.0994,-4.0773,-4.0682,-4.0487,-4.0189,-3.9448,-3.8773,-3.8436,-3.8085,-3.8004,-3.7808,-3.7756,-3.7756,-3.7756,-3.7756,-3.7756,-3.7756,-3.773,-3.7397,-3.7098,-3.6813,-3.6501,-3.6124,-3.5761,-3.5356,-3.5006,-3.48,-3.4462,-3.419,-3.419,-3.419,-3.4397,-6.9458,-6.9838,-6.8167,-6.6478,-6.5073,-6.4959,-6.4959,-6.4959,-6.4959,-6.4959,-6.4959,-6.4959,-6.4959,-6.4959,-6.4959,-6.4959,-6.4959,-6.4959,-6.4959,-6.4959,-6.4959,-6.4959,-6.4959,-6.4959,-6.4959,-6.4959,-6.4959,-6.4959,-6.4959,-6.4959,-6.4959,-6.4959,-6.4959,-6.4959,-6.4959,-6.4959,-6.475,-6.4466,-6.3706,-6.2624,-6.1466,-6.0631,-6.0062,-6.0062,-6.0062,-6.0062,-6.0062,-6.0062,-6.0062,-6.0062,-6.0062,-6.0062,-6.0062,-6.0062,-6.0062,-6.0062,-6.0062,-6.0062,-5.9929,-5.9569,-5.8735,-5.7155,-5.6198,-5.4294,-5.3828,-5.5372,-5.5372,-5.3595,-5.2409,-5.194,-5.0864,-4.7807,-4.5341,-4.4143,-4.3075,-4.1988,-4.102,-4.102,-4.102,-4.102,-4.102,-4.1007,-4.0994,-4.0851,-4.0604,-4.0357,-4.0137,-3.9617,-3.8838,-3.8371,-3.8046,-3.8004,-3.7795,-3.7756,-3.7756,-3.7756,-3.7756,-3.7756,-3.7756,-3.7756,-3.7756,-3.7215,-3.6748,-3.6488,-3.6072,-3.5527,-3.5111,-3.4838,-3.4761,-3.4462,-3.419,-3.419,-3.419,-3.4216,-3.4553,-6.9952,-6.9876,-6.8148,-6.6535,-6.5092,-6.4959,-6.4959,-6.4959,-6.4959,-6.4959,-6.4959,-6.4959,-6.4959,-6.4959,-6.4959,-6.4959,-6.4959,-6.4959,-6.4959,-6.4959,-6.4959,-6.4959,-6.4959,-6.4959,-6.4959,-6.4959,-6.4959,-6.4959,-6.4959,-6.4959,-6.4959,-6.4959,-6.4959,-6.4959,-6.4959,-6.4959,-6.4523,-6.3915,-6.3004,-6.215,-6.1182,-6.0555,-6.0062,-6.0062,-6.0062,-6.0062,-6.0062,-6.0062,-6.0062,-6.0062,-6.0062,-6.0062,-6.0062,-6.0062,-6.0062,-6.0062,-6.0062,-6.0062,-6.0062,-6.0062,-5.9569,-5.9551,-5.9551,-5.7517,-5.6677,-5.7517,-5.8241,-5.7173,-5.5621,-5.5025,-5.3712,-5.1116,-4.9,-4.7583,-4.5205,-4.2953,-4.1988,-4.1388,-4.1252,-4.0994,-4.0968,-4.0812,-4.076,-4.037,-4.0085,-3.9877,-3.9526,-3.889,-3.8332,-3.8033,-3.7952,-3.7821,-3.7756,-3.7756,-3.7756,-3.7756,-3.7756,-3.7756,-3.7756,-3.7756,-3.7704,-3.7085,-3.6327,-3.5848,-3.5501,-3.4943,-3.4605,-3.4514,-3.4371,-3.419,-3.419,-3.419,-3.4216,-3.4254,-3.4553,-6.9572,-6.9743,-6.8148,-6.7104,-6.6345,-6.5396,-6.4959,-6.4959,-6.4959,-6.4959,-6.4959,-6.4959,-6.4959,-6.4959,-6.4959,-6.4959,-6.4959,-6.4959,-6.4959,-6.4959,-6.4959,-6.4959,-6.4959,-6.4959,-6.4959,-6.4959,-6.4959,-6.4959,-6.4959,-6.4959,-6.4959,-6.4959,-6.4959,-6.4959,-6.4921,-6.4807,-6.4238,-6.3213,-6.2226,-6.1371,-6.0745,-6.0213,-6.0081,-6.0062,-6.0062,-6.0062,-6.0062,-6.0062,-6.0062,-6.0062,-6.0062,-6.0062,-6.0062,-6.0062,-6.0062,-6.0062,-6.0062,-6.0062,-6.0062,-6.0062,-6.0062,-6.0043,-5.9929,-5.9209,-5.9077,-5.8963,-5.9569,-6.0043,-5.8849,-5.765,-5.6101,-5.4543,-5.2894,-5.1116,-4.7702,-4.4143,-4.2953,-4.1988,-4.1362,-4.0981,-4.0825,-4.0656,-4.0318,-3.9916,-3.9578,-3.928,-3.8825,-3.8319,-3.8033,-3.7812,-3.7821,-3.7756,-3.7756,-3.7756,-3.7756,-3.7756,-3.7756,-3.7756,-3.7756,-3.7717,-3.754,-3.7111,-3.6423,-3.5735,-3.5021,-3.467,-3.4384,-3.4228,-3.419,-3.419,-3.419,-3.419,-3.4203,-3.4588,-3.5084,-6.9496,-6.9819,-6.8167,-6.7446,-6.7199,-6.5662,-6.4959,-6.4959,-6.4959,-6.4959,-6.4959,-6.4959,-6.4959,-6.4959,-6.4959,-6.4959,-6.4959,-6.4959,-6.4959,-6.4959,-6.4959,-6.4959,-6.4959,-6.4959,-6.4959,-6.4959,-6.4959,-6.4959,-6.4959,-6.4959,-6.4959,-6.4959,-6.4959,-6.4959,-6.4864,-6.4712,-6.3725,-6.2738,-6.1808,-6.0992,-6.0327,-6.0081,-6.0081,-6.0062,-6.0062,-6.0062,-6.0062,-6.0062,-6.0062,-6.0062,-6.0062,-6.0062,-6.0062,-6.0062,-6.0062,-6.0062,-6.0062,-6.0062,-6.0062,-6.0062,-6.0062,-6.0062,-6.0062,-6.0062,-6.0062,-5.9929,-5.9929,-6.0062,-5.9569,-5.9209,-5.8126,-5.6216,-5.4311,-5.1705,-4.8404,-4.5809,-4.4386,-4.3061,-4.1265,-4.0929,-4.0565,-4.0331,-3.9877,-3.9461,-3.8994,-3.863,-3.8306,-3.8033,-3.7799,-3.7834,-3.7756,-3.7756,-3.7756,-3.7756,-3.7756,-3.7756,-3.7756,-3.7756,-3.7743,-3.7605,-3.7306,-3.6851,-3.6332,-3.5657,-3.4852,-3.4423,-3.4305,-3.419,-3.419,-3.419,-3.4635,-3.4355,-3.4523,-3.5591,-3.6348,-6.999,-6.9762,-6.8167,-6.7446,-6.7161,-6.5662,-6.4959,-6.4959,-6.4959,-6.4959,-6.4959,-6.4959,-6.4959,-6.4959,-6.4959,-6.4959,-6.4959,-6.4959,-6.4959,-6.4959,-6.4959,-6.4959,-6.4959,-6.4959,-6.4959,-6.4959,-6.4959,-6.4959,-6.4959,-6.4959,-6.4959,-6.4959,-6.4959,-6.4845,-6.4542,-6.4124,-6.3251,-6.2359,-6.1466,-6.0707,-6.0213,-6.0062,-6.0062,-6.0062,-6.0062,-6.0062,-6.0062,-6.0062,-6.0062,-6.0062,-6.0062,-6.0062,-6.0062,-6.0062,-6.0062,-6.0062,-6.0062,-6.0062,-6.0062,-6.0062,-6.0062,-6.0062,-6.0062,-6.0062,-6.0062,-6.0062,-6.0062,-6.0062,-6.0062,-6.0062,-6.0062,-5.7994,-5.5968,-5.3362,-5.0068,-4.8165,-4.6638,-4.4129,-4.2206,-4.1222,-4.0854,-3.9903,-3.9448,-3.8942,-3.8462,-3.8189,-3.8033,-3.7799,-3.7834,-3.7756,-3.7756,-3.7756,-3.7756,-3.7756,-3.7756,-3.7756,-3.7756,-3.7756,-3.7743,-3.7332,-3.6838,-3.6397,-3.593,-3.5384,-3.4644,-3.4383,-3.451,-3.4484,-3.4484,-3.48,-3.5316,-3.5491,-3.6448,-3.7319,-3.788,-7.0028,-6.9819,-6.8167,-6.7446,-6.718,-6.5662,-6.4959,-6.4959,-6.4959,-6.4959,-6.4959,-6.4959,-6.4959,-6.4959,-6.4959,-6.4959,-6.4959,-6.4959,-6.4959,-6.4959,-6.4959,-6.4959,-6.4959,-6.4959,-6.4959,-6.4959,-6.4959,-6.4959,-6.4959,-6.4959,-6.4959,-6.4959,-6.494,-6.4731,-6.4124,-6.346,-6.2624,-6.1808,-6.1068,-6.0365,-6.0194,-6.0062,-6.0062,-6.0062,-6.0062,-6.0062,-6.0062,-6.0062,-6.0062,-6.0062,-6.0062,-6.0062,-6.0062,-6.0062,-6.0062,-6.0062,-6.0062,-6.0062,-6.0062,-6.0062,-6.0062,-6.0062,-6.0062,-6.0062,-6.0062,-6.0062,-6.0062,-6.0062,-6.0062,-6.0062,-6.0062,-5.9929,-5.8488,-5.7879,-5.5141,-5.3094,-5.0966,-4.6324,-4.4031,-4.2891,-4.212,-4.0223,-3.8981,-3.8475,-3.8059,-3.7916,-3.7786,-3.7834,-3.7769,-3.7756,-3.7756,-3.7756,-3.7769,-3.7869,-3.7869,-3.8081,-3.8194,-3.7756,-3.7358,-3.702,-3.6733,-3.7219,-3.5953,-3.4954,-3.498,-3.4919,-3.479,-3.5172,-3.5769,-3.6194,-3.6891,-3.7857,-3.8484,-3.9058,-3.966,-7.0028,-6.9876,-6.8167,-6.7294,-6.6838,-6.5529,-6.4959,-6.4959,-6.4959,-6.4959,-6.4959,-6.4959,-6.4959,-6.4959,-6.4959,-6.4959,-6.4959,-6.4959,-6.4959,-6.4959,-6.4959,-6.4959,-6.4959,-6.4959,-6.4959,-6.4959,-6.4959,-6.4959,-6.4959,-6.4959,-6.4959,-6.4959,-6.4921,-6.4655,-6.4048,-6.3004,-6.2112,-6.1277,-6.0536,-6.0062,-6.0062,-6.0062,-6.0062,-6.0062,-6.0062,-6.0062,-6.0062,-6.0062,-6.0062,-6.0062,-6.0062,-6.0062,-6.0062,-6.0062,-6.0062,-6.0062,-6.0062,-6.0062,-6.0062,-6.0062,-6.0062,-6.0062,-6.0062,-6.0062,-6.0062,-6.0062,-6.0062,-6.0062,-6.0062,-6.0062,-6.0062,-6.0043,-5.9929,-5.9323,-5.7788,-5.5976,-5.3636,-4.9161,-4.5986,-4.4792,-4.1837,-3.9578,-3.8643,-3.8241,-3.7916,-3.7834,-3.7821,-3.7769,-3.8081,-3.7969,-3.8306,-3.8306,-3.8855,-3.8518,-3.863,-3.9598,-3.992,-3.8547,-3.7646,-3.7577,-3.7998,-3.8554,-3.7971,-3.8047,-3.673,-3.5566,-3.606,-3.6668,-3.716,-3.8548,-4.0422,-4.1605,-4.0771,-4.0532,-4.1344,-6.999,-6.9781,-6.8167,-6.699,-6.6231,-6.5339,-6.4959,-6.4959,-6.4959,-6.4959,-6.4959,-6.4959,-6.4959,-6.4959,-6.4959,-6.4959,-6.4959,-6.4959,-6.4959,-6.4959,-6.4959,-6.4959,-6.4959,-6.4959,-6.4959,-6.4959,-6.4959,-6.4959,-6.4959,-6.4959,-6.4959,-6.4959,-6.4959,-6.4883,-6.4788,-6.3346,-6.2112,-6.1239,-6.0441,-6.0119,-6.0062,-6.0062,-6.0062,-6.0062,-6.0062,-6.0062,-6.0062,-6.0062,-6.0062,-6.0062,-6.0062,-6.0062,-6.0062,-6.0062,-6.0062,-6.0062,-6.0062,-6.0062,-6.0062,-6.0062,-6.0062,-6.0062,-6.0062,-6.0062,-6.0062,-6.0062,-6.0062,-6.0062,-6.0062,-6.0062,-6.0062,-6.0062,-6.0062,-5.9399,-5.7431,-5.5595,-5.3747,-5.0538,-4.8193,-4.656,-4.2438,-3.8718,-3.8624,-3.8274,-3.8074,-3.8081,-3.7869,-3.7969,-3.8392,-3.8729,-3.9388,-3.9934,-4.1338,-4.1116,-4.1116,-4.1656,-4.1205,-3.9148,-3.8613,-3.9587,-4.0169,-4.0111,-4.0633,-4.1402,-4.0206,-3.8425,-3.8239,-3.8354,-4.0137,-4.1896,-4.3778,-4.4217,-4.2587,-4.2061,-4.3617,-6.9686,-6.904,-6.7921,-6.6971,-6.6174,-6.5339,-6.4959,-6.4959,-6.4959,-6.4959,-6.4959,-6.4959,-6.4959,-6.4959,-6.4959,-6.4959,-6.4959,-6.4959,-6.4959,-6.4959,-6.4959,-6.4959,-6.4959,-6.4959,-6.4959,-6.4959,-6.4959,-6.4959,-6.4959,-6.4959,-6.4959,-6.4959,-6.4959,-6.4921,-6.4561,-6.3365,-6.1808,-6.0745,-6.0138,-6.0062,-6.0062,-6.0062,-6.0062,-6.0062,-6.0062,-6.0062,-6.0062,-6.0062,-6.0062,-6.0062,-6.0062,-6.0062,-6.0062,-6.0062,-6.0062,-6.0062,-6.0062,-6.0062,-6.0062,-6.0062,-6.0062,-6.0062,-6.0062,-6.0062,-6.0062,-6.0062,-6.0062,-6.0062,-6.0062,-6.0062,-6.0062,-5.9948,-5.991,-5.9682,-5.7611,-5.646,-5.453,-5.2181,-5.005,-4.8165,-4.4871,-4.1389,-4.0826,-3.9579,-3.9808,-4.0463,-4.0031,-3.9598,-4.0129,-4.0894,-4.1227,-4.2415,-4.3925,-4.3925,-4.369,-4.4023,-4.401,-4.2107,-4.1481,-4.215,-4.2,-4.1625,-4.1985,-4.297,-4.2774,-4.138,-4.1198,-4.151,-4.313,-4.5006,-4.5923,-4.6715,-4.5138,-4.4161,-4.5872,-6.9534,-6.8718,-6.7826,-6.6801,-6.57,-6.5187,-6.4959,-6.4959,-6.4959,-6.4959,-6.4959,-6.4959,-6.4959,-6.4959,-6.4959,-6.4959,-6.4959,-6.4959,-6.4959,-6.4959,-6.4959,-6.4959,-6.4959,-6.4959,-6.4959,-6.4959,-6.4959,-6.4959,-6.4959,-6.4959,-6.4959,-6.4959,-6.4959,-6.4826,-6.4219,-6.3137,-6.1675,-6.0536,-6.0062,-6.0062,-6.0062,-6.0062,-6.0062,-6.0062,-6.0062,-6.0062,-6.0062,-6.0062,-6.0062,-6.0062,-6.0062,-6.0062,-6.0062,-6.0062,-6.0062,-6.0062,-6.0062,-6.0062,-6.0062,-6.0062,-6.0062,-6.0062,-6.0062,-6.0062,-6.0062,-6.0062,-6.0062,-6.0062,-6.0062,-6.0062,-5.9948,-5.9739,-5.953,-5.9321,-5.8735,-5.7814,-5.5936,-5.3284,-5.1092,-4.9477,-4.679,-4.4301,-4.265,-4.1213,-4.2084,-4.2952,-4.1974,-4.1546,-4.2842,-4.3721,-4.4034,-4.4893,-4.6739,-4.7278,-4.5499,-4.5953,-4.6647,-4.5539,-4.4617,-4.4513,-4.4172,-4.3902,-4.4468,-4.4662,-4.476,-4.4062,-4.3867,-4.4548,-4.5415,-4.6478,-4.7545,-4.7989,-4.7495,-4.6519,-4.7196,-6.9515,-6.8623,-6.7712,-6.6421,-6.4997,-6.4959,-6.4959,-6.4959,-6.4959,-6.4959,-6.4959,-6.4959,-6.4959,-6.4959,-6.4959,-6.4959,-6.4959,-6.4959,-6.4959,-6.4959,-6.4959,-6.4959,-6.4959,-6.4959,-6.4959,-6.4959,-6.4959,-6.4959,-6.4959,-6.4959,-6.4959,-6.4902,-6.475,-6.4352,-6.3744,-6.2833,-6.1485,-6.0669,-6.01,-6.0062,-6.0062,-6.0062,-6.0062,-6.0062,-6.0062,-6.0062,-6.0062,-6.0062,-6.0062,-6.0062,-6.0062,-6.0062,-6.0062,-6.0062,-6.0062,-6.0062,-6.0062,-6.0062,-6.0062,-6.0062,-6.0062,-6.0062,-6.0062,-6.0062,-6.0062,-6.0062,-6.0062,-6.0062,-6.0062,-6.0024,-5.9625,-5.9283,-5.8866,-5.8505,-5.7955,-5.7347,-5.6011,-5.3713,-5.2402,-5.0767,-4.9064,-4.7334,-4.5763,-4.5002,-4.5546,-4.6089,-4.5329,-4.3706,-4.5002,-4.6197,-4.663,-4.8139,-4.9973,-4.9568,-4.7808,-4.77,-4.8641,-4.8237,-4.7544,-4.7076,-4.6483,-4.7501,-4.814,-4.8027,-4.7129,-4.6745,-4.6421,-4.6693,-4.7184,-4.81,-4.797,-4.7153,-4.6546,-4.6546,-4.7305,-6.9135,-6.7731,-6.6876,-6.5946,-6.4978,-6.4959,-6.4959,-6.4959,-6.4959,-6.4959,-6.4959,-6.4959,-6.4959,-6.4959,-6.4959,-6.4959,-6.4959,-6.4959,-6.4959,-6.4959,-6.4959,-6.4959,-6.4959,-6.4959,-6.4959,-6.4959,-6.4959,-6.4959,-6.4959,-6.4959,-6.4959,-6.494,-6.4485,-6.3972,-6.3403,-6.2415,-6.1466,-6.0726,-6.027,-6.0062,-6.0062,-6.0062,-6.0062,-6.0062,-6.0062,-6.0062,-6.0062,-6.0062,-6.0062,-6.0062,-6.0062,-6.0062,-6.0062,-6.0062,-6.0062,-6.0062,-6.0062,-6.0062,-6.0062,-6.0062,-6.0062,-6.0062,-6.0062,-6.0062,-6.0062,-6.0062,-6.0062,-6.0062,-6.0005,-5.9606,-5.9169,-5.8847,-5.8296,-5.767,-5.7062,-5.6645,-5.5996,-5.4908,-5.363,-5.2477,-5.1405,-4.9884,-4.9334,-4.8675,-4.8675,-4.912,-4.8032,-4.6414,-4.7171,-4.8461,-4.976,-5.1951,-5.3034,-5.25,-5.1566,-5.14,-5.0986,-5.0804,-5.044,-4.9887,-4.8854,-4.9375,-4.9925,-4.9925,-4.9319,-4.8638,-4.7829,-4.8383,-4.8786,-4.8045,-4.7267,-4.6375,-4.5976,-4.6223,-4.6831,-6.8699,-6.7389,-6.6573,-6.5737,-6.5016,-6.4959,-6.4959,-6.4959,-6.4959,-6.4959,-6.4959,-6.4959,-6.4959,-6.4959,-6.4959,-6.4959,-6.4959,-6.4959,-6.4959,-6.4959,-6.4959,-6.4959,-6.4959,-6.4959,-6.4959,-6.4959,-6.4959,-6.4959,-6.4959,-6.4959,-6.4959,-6.4826,-6.4219,-6.3611,-6.3023,-6.1903,-6.122,-6.0707,-6.0346,-6.0081,-6.0062,-6.0062,-6.0062,-6.0062,-6.0062,-6.0062,-6.0062,-6.0062,-6.0062,-6.0062,-6.0062,-6.0062,-6.0062,-6.0062,-6.0062,-6.0062,-6.0062,-6.0062,-6.0062,-6.0062,-6.0062,-6.0062,-6.0062,-6.0062,-6.0062,-6.0062,-6.0062,-6.0024,-5.972,-5.9283,-5.8809,-5.8068,-5.748,-5.6891,-5.6208,-5.5828,-5.5506,-5.5088,-5.4889,-5.435,-5.3686,-5.3039,-5.239,-5.1951,-5.1951,-5.2162,-5.1299,-5.0203,-5.0752,-5.1176,-5.2811,-5.4974,-5.4727,-5.4329,-5.3778,-5.3114,-5.1888,-5.1243,-5.0965,-5.0474,-5.0039,-4.9925,-4.9925,-4.9925,-4.9811,-4.9584,-4.93,-4.89,-4.8216,-4.7419,-4.6584,-4.5976,-4.5359,-4.5749,-4.6489,-6.8186,-6.737,-6.6459,-6.5662,-6.5016,-6.4959,-6.4959,-6.4959,-6.4959,-6.4959,-6.4959,-6.4959,-6.4959,-6.4959,-6.4959,-6.4959,-6.4959,-6.4959,-6.4959,-6.4959,-6.4959,-6.4959,-6.4959,-6.4959,-6.4959,-6.4959,-6.4959,-6.4959,-6.4959,-6.4959,-6.4921,-6.4561,-6.3877,-6.3194,-6.2378,-6.139,-6.0783,-6.0213,-6.0081,-6.0383,-6.0703,-6.0909,-6.0477,-6.0269,-6.0062,-6.0062,-6.0062,-6.0062,-6.0062,-6.0062,-6.0062,-6.0062,-6.0062,-6.0062,-6.0062,-6.0062,-6.0062,-6.0062,-6.0062,-6.0062,-6.0062,-6.0062,-6.0062,-6.0062,-6.0062,-6.0062,-5.9967,-5.9948,-5.9245,-5.8638,-5.7992,-5.7081,-5.6398,-5.5904,-5.5563,-5.5259,-5.5107,-5.5012,-5.5012,-5.4558,-5.4454,-5.4454,-5.4454,-5.4785,-5.5012,-5.5012,-5.4889,-5.4558,-5.4454,-5.3914,-5.4889,-5.4841,-5.4614,-5.3778,-5.3214,-5.2298,-5.146,-5.1005,-5.055,-5.0058,-4.9925,-4.9925,-4.9925,-4.9849,-4.9716,-4.9526,-4.8976,-4.833,-4.7647,-4.6907,-4.6147,-4.5473,-4.5065,-4.5473,-4.6166,-6.7617,-6.7313,-6.5851,-6.5111,-6.4978,-6.4959,-6.4959,-6.4959,-6.4959,-6.4959,-6.4959,-6.4959,-6.5063,-6.5063,-6.5063,-6.5063,-6.4959,-6.4959,-6.4959,-6.4959,-6.4959,-6.4959,-6.4959,-6.4959,-6.4959,-6.4959,-6.4959,-6.4959,-6.4864,-6.4845,-6.4542,-6.4296,-6.3294,-6.2359,-6.1929,-6.149,-6.0384,-6.0062,-6.0156,-6.1434,-6.292,-6.3344,-6.2494,-6.0383,-6.0062,-6.0062,-6.0062,-6.0062,-6.0062,-6.0062,-6.0062,-6.0062,-6.0062,-6.0062,-6.0062,-6.0062,-6.0062,-6.0062,-6.0062,-6.0062,-6.0062,-6.0062,-6.0062,-6.0062,-6.0062,-6.0005,-5.9777,-5.9131,-5.8638,-5.8163,-5.71,-5.6436,-5.5942,-5.5468,-5.5164,-5.5012,-5.5012,-5.5012,-5.5012,-5.5012,-5.4993,-5.4889,-5.4785,-5.5012,-5.5012,-5.5012,-5.5012,-5.5012,-5.5012,-5.5012,-5.4879,-5.4708,-5.4291,-5.3399,-5.2431,-5.1652,-5.1007,-5.0646,-5.0171,-4.9925,-4.9925,-4.9925,-4.9925,-4.9906,-4.9697,-4.909,-4.8406,-4.7851,-4.7039,-4.6337,-4.5586,-4.5407,-4.5641,-4.6014,-4.6965,-6.7446,-6.7275,-6.5662,-6.4959,-6.4959,-6.4959,-6.4959,-6.4959,-6.4959,-6.5778,-6.6815,-6.728,-6.7884,-6.9185,-6.9403,-6.8465,-6.7058,-6.59,-6.4959,-6.4959,-6.4959,-6.4959,-6.4959,-6.4959,-6.4959,-6.494,-6.4921,-6.4788,-6.4428,-6.4492,-6.4802,-6.4722,-6.4426,-6.458,-6.4774,-6.3266,-6.3131,-6.3807,-6.3162,-6.3565,-6.6137,-6.6354,-6.4847,-6.2514,-6.1003,-6.0156,-6.0062,-6.0062,-6.0062,-6.0062,-6.0062,-6.0062,-6.0062,-6.0062,-6.0062,-6.0062,-6.0062,-6.0062,-6.0062,-6.0062,-6.0062,-6.0062,-6.0062,-6.0062,-6.0062,-5.9967,-5.9663,-5.8809,-5.822,-5.71,-5.6303,-5.5847,-5.5468,-5.5088,-5.5012,-5.5012,-5.5012,-5.5012,-5.5012,-5.5012,-5.5012,-5.5012,-5.5012,-5.5012,-5.5012,-5.5012,-5.5012,-5.5012,-5.5012,-5.4898,-5.4746,-5.4614,-5.4405,-5.3304,-5.2051,-5.1178,-5.0304,-5.0153,-4.9925,-4.9925,-4.9925,-4.9925,-4.9925,-4.9774,-4.9298,-4.8691,-4.806,-4.7223,-4.6413,-4.5605,-4.5692,-4.5783,-4.6155,-4.6905,-4.8184,-6.737,-6.7123,-6.5605,-6.5308,-6.5656,-6.5778,-6.6246,-6.6388,-6.6956,-6.8004,-7.0175,-7.0413,-7.1829,-7.335,-7.4185,-7.2416,-6.8905,-6.6349,-6.5308,-6.6003,-6.5082,-6.4959,-6.4959,-6.494,-6.5643,-6.5848,-6.6287,-6.6235,-6.5585,-6.4973,-6.6461,-6.6974,-6.6688,-6.7063,-6.7589,-6.7015,-6.6028,-6.6896,-6.6028,-6.6571,-6.8381,-6.8488,-6.6767,-6.4077,-6.2179,-6.0909,-6.0364,-6.0062,-6.0062,-6.0062,-6.0062,-6.0062,-6.0062,-6.0062,-6.0062,-6.0062,-6.0062,-6.0062,-6.0062,-6.0062,-6.0062,-6.0062,-6.0062,-6.0062,-6.0005,-5.9853,-5.9378,-5.8486,-5.7385,-5.6208,-5.6037,-5.5468,-5.5069,-5.5012,-5.5012,-5.5012,-5.5012,-5.5012,-5.5012,-5.5012,-5.5012,-5.5012,-5.5012,-5.5012,-5.5012,-5.5012,-5.4993,-5.4993,-5.4803,-5.4595,-5.4367,-5.4234,-5.412,-5.2734,-5.1652,-5.0741,-5.002,-4.9944,-4.9925,-4.9925,-4.9925,-4.9925,-4.966,-4.9393,-4.89,-4.825,-4.7433,-4.6527,-4.5881,-4.5578,-4.5841,-4.618,-4.7228,-4.8326,-4.9647,-6.7047,-6.6326,-6.5377,-6.647,-6.8665,-6.8905,-7.0196,-7.2416,-7.2905,-7.2554,-7.3466,-7.3604,-7.4047,-7.4416,-7.4763,-7.265,-6.972,-6.7159,-6.728,-6.8445,-6.6956,-6.6144,-6.5842,-6.6014,-6.7228,-7.1069,-7.0196,-6.9732,-6.9479,-7.003,-6.9043,-6.9237,-6.9092,-6.9575,-6.8987,-6.821,-6.8595,-6.9235,-6.8595,-6.9341,-7.1555,-7.0189,-6.7952,-6.5483,-6.3766,-6.2382,-6.0909,-6.0156,-6.0062,-6.0062,-6.0062,-6.0062,-6.0062,-6.0062,-6.0062,-6.0062,-6.0062,-6.0062,-6.0062,-6.0062,-6.0062,-6.0062,-6.0062,-6.0062,-5.9834,-5.9397,-5.8904,-5.8144,-5.7252,-5.5961,-5.5278,-5.505,-5.5031,-5.5012,-5.5012,-5.5012,-5.5012,-5.5012,-5.5012,-5.5012,-5.5012,-5.5012,-5.5012,-5.5012,-5.5012,-5.4993,-5.4993,-5.4879,-5.4481,-5.412,-5.3588,-5.3323,-5.2279,-5.0969,-5.1026,-5.0437,-5.0001,-4.9925,-4.9925,-4.9925,-4.9925,-4.9736,-4.9507,-4.9071,-4.8403,-4.7636,-4.6905,-4.665,-4.6273,-4.5501,-4.618,-4.7955,-4.9086,-4.9821,-5.1184,-6.9137,-6.8807,-6.9569,-7.0789,-7.1947,-7.2064,-7.2884,-7.4069,-7.43,-7.5108,-7.6483,-7.6711,-7.7755,-7.9129,-7.9017,-7.7393,-7.4719,-7.2979,-7.2278,-7.1337,-7.065,-6.9741,-6.9798,-6.9311,-6.9191,-7.1151,-7.1377,-7.0788,-7.0574,-7.0268,-7.097,-7.135,-7.1473,-7.1776,-7.2941,-7.1682,-7.1682,-7.2434,-7.1891,-7.2307,-7.4668,-7.3722,-7.1786,-6.9319,-6.5789,-6.3856,-6.2179,-6.1003,-6.0269,-6.0496,-6.1434,-6.1751,-6.0458,-6.0062,-6.0062,-6.0062,-6.0062,-6.0062,-6.0062,-6.0062,-6.0062,-6.0062,-6.0062,-5.9815,-5.9302,-5.898,-5.8372,-5.7442,-5.6664,-5.5885,-5.5126,-5.5012,-5.5012,-5.5012,-5.5012,-5.5012,-5.5012,-5.5012,-5.5012,-5.5012,-5.5012,-5.5012,-5.5012,-5.5012,-5.4974,-5.4803,-5.4784,-5.4291,-5.4013,-5.2829,-5.2412,-5.1956,-5.0703,-5.021,-5.0475,-5.0399,-4.9944,-4.9925,-4.9925,-4.9925,-5.0112,-4.9807,-4.9482,-4.8536,-4.7846,-4.7165,-4.7774,-4.7295,-4.7141,-4.7644,-4.8697,-5.0124,-5.1333,-5.2234,-5.3328,-7.1855,-7.1868,-7.3577,-7.4647,-7.5201,-7.5201,-7.5683,-7.6483,-7.6369,-7.7981,-7.9487,-7.9957,-8.1224,-8.3317,-8.2857,-8.1908,-7.8567,-7.9017,-7.746,-7.45,-7.3728,-7.4035,-7.5114,-7.3665,-7.2994,-7.3057,-7.2727,-7.2169,-7.1848,-7.2242,-7.2304,-7.3735,-7.4068,-7.4896,-7.6412,-7.4668,-7.5076,-7.6287,-7.4998,-7.4998,-7.6614,-7.6614,-7.5656,-7.3492,-6.9106,-6.6095,-6.4407,-6.2697,-6.1658,-6.1658,-6.2697,-6.2717,-6.0684,-6.0062,-6.0062,-6.0062,-6.0062,-6.0062,-6.0062,-6.0062,-6.0062,-6.0005,-5.9796,-5.9454,-5.8752,-5.8391,-5.7461,-5.6626,-5.6037,-5.562,-5.5107,-5.5012,-5.5012,-5.5012,-5.5012,-5.5012,-5.5012,-5.5012,-5.5012,-5.5012,-5.5012,-5.5012,-5.5012,-5.5012,-5.4841,-5.4633,-5.4234,-5.3785,-5.262,-5.1405,-5.1178,-5.1159,-5.0285,-5.0001,-5.0266,-5.0096,-4.9925,-4.9925,-4.9925,-5.0001,-5.0459,-5.0441,-5.0624,-4.9584,-4.7955,-4.8528,-4.954,-4.9212,-4.9086,-5.0469,-5.1697,-5.2392,-5.3262,-5.4559,-5.5645,-7.4628,-7.3988,-7.4228,-7.5912,-7.823,-7.8455,-7.9711,-8.2152,-8.2042,-8.2395,-8.2723,-8.2966,-8.3075,-8.3559,-8.3412,-8.1861,-7.9194,-8.1292,-7.848,-7.5026,-7.3283,-7.4611,-7.8183,-7.7208,-7.6884,-7.6846,-7.6832,-7.6189,-7.563,-7.5919,-7.6384,-7.6234,-7.6412,-7.694,-7.6839,-7.6839,-7.6815,-7.704,-7.6388,-7.6714,-7.704,-7.7165,-7.6864,-7.5757,-7.2745,-6.9637,-6.6658,-6.6137,-6.6028,-6.3877,-6.4167,-6.3233,-6.0797,-6.0156,-6.0269,-6.0364,-6.0269,-6.0062,-6.0062,-6.0043,-6.0043,-5.9834,-5.9245,-5.8771,-5.8334,-5.7404,-5.6569,-5.6094,-5.5525,-5.5221,-5.5012,-5.5012,-5.5012,-5.5012,-5.5012,-5.5012,-5.5012,-5.5012,-5.5012,-5.5012,-5.5012,-5.5012,-5.5012,-5.4936,-5.4708,-5.4006,-5.3532,-5.2905,-5.1899,-5.0874,-5.0494,-5.0399,-5.0153,-4.9925,-4.9925,-4.9925,-4.9925,-5.002,-5.002,-5.0733,-5.1175,-5.2103,-5.2041,-5.1346,-4.9855,-4.977,-5.0982,-5.1439,-5.1362,-5.2335,-5.3778,-5.4403,-5.487,-5.6095,-5.6654,-7.7345,-7.7075,-7.8904,-8.0402,-8.1555,-8.1689,-8.2371,-8.3426,-8.3559,-8.3559,-8.3559,-8.3559,-8.3559,-8.3461,-8.3008,-8.1804,-8.0902,-8.1414,-7.992,-7.6889,-7.6362,-7.6976,-7.7887,-7.8141,-7.7824,-7.7751,-7.7284,-7.7189,-7.7165,-7.7165,-7.7165,-7.7165,-7.7165,-7.7165,-7.7165,-7.7165,-7.7165,-7.7165,-7.7165,-7.7165,-7.7165,-7.7165,-7.7165,-7.6839,-7.6085,-7.3698,-6.9849,-6.8787,-6.7307,-6.5789,-6.7285,-6.7178,-6.3233,-6.2586,-6.2494,-6.2494,-6.089,-6.0062,-6.0062,-6.0062,-5.9815,-5.9302,-5.898,-5.8277,-5.7347,-5.6721,-5.5923,-5.562,-5.524,-5.5031,-5.5012,-5.5012,-5.5012,-5.5012,-5.5012,-5.5012,-5.5012,-5.5012,-5.5012,-5.5012,-5.4974,-5.4879,-5.4431,-5.4291,-5.3854,-5.3247,-5.2753,-5.207,-5.1367,-5.0608,-4.9982,-5.0039,-4.9963,-4.9925,-4.9925,-4.9925,-4.9925,-5.0114,-5.0378,-5.1706,-5.2815,-5.4155,-5.3589,-5.2476,-5.1354,-5.1064,-5.2441,-5.3431,-5.3599,-5.4426,-5.5712,-5.6578,-5.6678,-5.7409,-5.7485,-8.018,-8.0402,-8.2638,-8.3559,-8.3559,-8.3559,-8.3559,-8.3559,-8.3559,-8.3559,-8.3461,-8.3266,-8.3071,-8.2997,-8.1997,-8.1509,-8.1257,-8.0647,-8.0184,-7.9843,-7.9599,-7.8507,-7.7433,-7.7165,-7.7189,-7.7214,-7.7189,-7.7165,-7.7165,-7.7165,-7.7165,-7.7165,-7.7165,-7.7165,-7.7165,-7.7165,-7.7165,-7.7165,-7.7165,-7.7165,-7.7165,-7.7165,-7.7165,-7.7165,-7.7165,-7.596,-7.403,-7.1263,-6.8787,-6.8038,-7.1345,-7.0483,-6.6028,-6.4627,-6.4097,-6.3676,-6.1639,-5.9986,-5.9758,-5.9663,-5.9245,-5.8505,-5.8068,-5.7518,-5.6303,-5.6037,-5.5601,-5.5202,-5.5012,-5.5012,-5.5012,-5.5012,-5.5012,-5.5012,-5.5012,-5.5012,-5.5012,-5.4993,-5.4879,-5.4708,-5.4652,-5.4215,-5.3702,-5.3399,-5.3095,-5.2355,-5.1804,-5.1273,-5.0874,-5.0171,-4.9925,-4.9925,-5.002,-5.002,-5.019,-5.019,-5.0378,-5.0735,-5.1926,-5.3557,-5.5149,-5.6062,-5.4931,-5.3997,-5.3517,-5.3385,-5.4496,-5.5256,-5.6248,-5.6854,-5.7485,-5.7309,-5.7735,-5.7938,-5.7989,-8.3317,-8.3293,-8.3534,-8.3559,-8.3559,-8.3559,-8.3559,-8.3534,-8.3486,-8.3437,-8.3241,-8.2568,-8.2152,-8.1802,-8.0923,-8.0435,-8.0282,-8.0014,-7.9477,-7.88,-7.8043,-7.7531,-7.7189,-7.7165,-7.7165,-7.7165,-7.7165,-7.7165,-7.7165,-7.7165,-7.7165,-7.7165,-7.7165,-7.7165,-7.7165,-7.7165,-7.7165,-7.7165,-7.7165,-7.7165,-7.7165,-7.7165,-7.7165,-7.7165,-7.7165,-7.694,-7.6186,-7.4133,-7.3698,-7.5554,-7.3595,-7.1555,-6.8595,-6.581,-6.4607,-6.4627,-6.1751,-5.9905,-5.8999,-5.8847,-5.8429,-5.7613,-5.6967,-5.6246,-5.6094,-5.5544,-5.5145,-5.5031,-5.5012,-5.5012,-5.5012,-5.5012,-5.5012,-5.5012,-5.5012,-5.5012,-5.5012,-5.4936,-5.4519,-5.4025,-5.3816,-5.3532,-5.2715,-5.2582,-5.2165,-5.1576,-5.1273,-5.0836,-5.0342,-5.0134,-4.9963,-5.002,-5.0209,-5.0641,-5.2171,-5.2264,-5.2522,-5.3272,-5.4796,-5.6399,-5.8045,-5.7759,-5.6855,-5.6472,-5.6155,-5.6214,-5.6578,-5.683,-5.7485,-5.7886,-5.7886,-5.7886,-5.7938,-5.8041,-5.8141,-8.3559,-8.3559,-8.3559,-8.3559,-8.3559,-8.3559,-8.3559,-8.3437,-8.2934,-8.2641,-8.2446,-8.1411,-8.0948,-8.0703,-7.9825,-7.9361,-7.9185,-7.8629,-7.8117,-7.7702,-7.7263,-7.7165,-7.7165,-7.7165,-7.7165,-7.7165,-7.7165,-7.7165,-7.7165,-7.7165,-7.7165,-7.7165,-7.7165,-7.7165,-7.7165,-7.7165,-7.7165,-7.7165,-7.7165,-7.7165,-7.7165,-7.7165,-7.7165,-7.7165,-7.7165,-7.7165,-7.7165,-7.6162,-7.6061,-7.6412,-7.444,-7.2515,-7.1263,-6.868,-6.6983,-6.6032,-6.2511,-5.9056,-5.8714,-5.8163,-5.7575,-5.6854,-5.6398,-5.6037,-5.5506,-5.5259,-5.5012,-5.5012,-5.4993,-5.5012,-5.4993,-5.4993,-5.5012,-5.4993,-5.4917,-5.5012,-5.4917,-5.4557,-5.3873,-5.319,-5.2981,-5.2563,-5.1994,-5.1728,-5.1386,-5.0626,-5.0494,-5.0285,-5.0077,-5.002,-5.1204,-5.1745,-5.1465,-5.2264,-5.3771,-5.4411,-5.4664,-5.6033,-5.7387,-5.8668,-5.9489,-5.8802,-5.8331,-5.792,-5.7402,-5.7282,-5.7309,-5.7811,-5.8036,-5.7886,-5.7886,-5.7989,-5.8141,-5.819,-5.8697,-8.3241,-8.3534,-8.3559,-8.3559,-8.351,-8.3168,-8.3154,-8.3008,-8.1924,-8.1436,-8.124,-8.0337,-7.9745,-7.9526,-7.8776,-7.8263,-7.819,-7.7555,-7.7165,-7.7189,-7.7165,-7.7165,-7.7165,-7.7165,-7.7165,-7.7165,-7.7165,-7.7165,-7.7165,-7.7165,-7.7165,-7.7165,-7.7165,-7.7165,-7.7165,-7.7165,-7.7165,-7.7165,-7.7165,-7.7165,-7.7165,-7.7165,-7.7165,-7.7165,-7.7165,-7.7165,-7.7165,-7.7165,-7.7165,-7.7141,-7.5303,-7.4212,-7.3628,-7.1178,-6.9112,-6.7732,-6.2688,-5.9297,-5.8225,-5.7347,-5.6721,-5.6037,-5.5828,-5.5525,-5.5088,-5.5012,-5.4879,-5.4614,-5.486,-5.4841,-5.4727,-5.4822,-5.4708,-5.4272,-5.4006,-5.3702,-5.3551,-5.3019,-5.2393,-5.1763,-5.1975,-5.1747,-5.114,-5.0893,-5.0588,-5.0077,-5.0812,-5.1337,-5.1392,-5.2098,-5.3077,-5.4249,-5.3608,-5.3792,-5.5027,-5.5819,-5.7056,-5.8839,-5.932,-6.0027,-5.986,-5.9491,-5.906,-5.8587,-5.8152,-5.7884,-5.7986,-5.8186,-5.8386,-5.8386,-5.9127,-5.9098,-5.8532,-5.8769,-5.9405,-8.2665,-8.3315,-8.351,-8.3339,-8.3144,-8.2446,-8.2055,-8.1884,-8.0826,-8.0386,-8.0215,-7.9239,-7.8776,-7.858,-7.7775,-7.7238,-7.7311,-7.7238,-7.7165,-7.7165,-7.7165,-7.7165,-7.7165,-7.7165,-7.7165,-7.7165,-7.7165,-7.7165,-7.7165,-7.7165,-7.7165,-7.7165,-7.7165,-7.7165,-7.7165,-7.7165,-7.7165,-7.7165,-7.7165,-7.7165,-7.7165,-7.7165,-7.7165,-7.7165,-7.7165,-7.7165,-7.7165,-7.7165,-7.7165,-7.7141,-7.694,-7.704,-7.6291,-7.3138,-7.0021,-6.7153,-6.3513,-5.9782,-5.6843,-5.6246,-5.5753,-5.5164,-5.505,-5.5031,-5.4765,-5.4803,-5.4576,-5.4044,-5.4329,-5.4557,-5.4025,-5.4272,-5.4063,-5.2791,-5.2367,-5.1985,-5.1639,-5.0742,-5.0152,-5.0683,-5.1448,-5.1047,-5.0304,-5.0776,-5.1172,-5.1337,-5.2357,-5.3608,-5.3721,-5.4957,-5.6537,-5.6984,-5.6716,-5.6806,-5.7073,-5.7409,-5.944,-6.0942,-6.0524,-6.0114,-5.9658,-5.9326,-5.8813,-5.852,-5.7984,-5.7959,-5.8061,-5.9006,-5.9055,-5.9957,-6.099,-6.1626,-6.0595,-5.9706,-6.023,-8.107,-8.1362,-8.1281,-8.1387,-8.1362,-8.1021,-8.0874,-8.0728,-7.9727,-7.9185,-7.8966,-7.8141,-7.7677,-7.7604,-7.7311,-7.7165,-7.7165,-7.7165,-7.7165,-7.7165,-7.7165,-7.7165,-7.7165,-7.7165,-7.7165,-7.7165,-7.7165,-7.7165,-7.7165,-7.7165,-7.7165,-7.7165,-7.7165,-7.7165,-7.7165,-7.7165,-7.7165,-7.7165,-7.7165,-7.7165,-7.7165,-7.7165,-7.7165,-7.7165,-7.7165,-7.7165,-7.7165,-7.7165,-7.7165,-7.7165,-7.7165,-7.7165,-7.6842,-7.3472,-6.9885,-6.6318,-6.2154,-5.8695,-5.6441,-5.5164,-5.4462,-5.4317,-5.4614,-5.4443,-5.3456,-5.3854,-5.3721,-5.319,-5.3209,-5.3266,-5.2943,-5.272,-5.2032,-5.1141,-5.1863,-5.2701,-5.2642,-5.3109,-5.332,-5.3279,-5.3658,-5.3178,-5.2219,-5.3605,-5.4419,-5.4845,-5.5389,-5.5999,-5.602,-5.6806,-5.7607,-5.9105,-5.9432,-5.9972,-6.0586,-5.9628,-6.053,-6.0309,-5.9818,-5.924,-5.8813,-5.8545,-5.8228,-5.8032,-5.791,-5.7886,-5.8511,-5.9594,-6.0609,-6.1605,-6.2609,-6.2796,-6.1489,-6.077,-6.0601,-7.9453,-7.9215,-7.9215,-7.9215,-7.9215,-7.9215,-7.9215,-7.9039,-7.8458,-7.819,-7.8043,-7.7482,-7.7165,-7.7165,-7.7165,-7.7165,-7.7165,-7.7165,-7.7165,-7.7165,-7.7165,-7.7165,-7.7165,-7.7165,-7.7165,-7.7165,-7.7165,-7.7165,-7.7165,-7.7165,-7.7165,-7.7165,-7.7165,-7.7165,-7.7165,-7.7165,-7.7165,-7.7165,-7.7165,-7.7165,-7.7165,-7.7165,-7.7165,-7.7141,-7.6799,-7.6579,-7.6604,-7.6579,-7.6579,-7.6604,-7.6164,-7.5969,-7.565,-7.3278,-6.9973,-6.63,-6.2595,-5.9269,-5.6523,-5.5133,-5.4269,-5.3562,-5.3835,-5.3569,-5.2848,-5.2962,-5.2981,-5.2355,-5.2298,-5.2664,-5.2787,-5.2503,-5.2018,-5.1643,-5.2323,-5.3035,-5.3195,-5.3501,-5.3993,-5.4274,-5.4424,-5.4448,-5.3955,-5.5601,-5.703,-5.7252,-5.7851,-5.8292,-5.8491,-5.928,-6.0456,-6.1575,-6.1719,-6.1762,-6.3255,-6.1522,-6.0326,-5.9667,-5.9057,-5.8496,-5.8325,-5.813,-5.8283,-5.8186,-5.8932,-5.9129,-5.9594,-6.063,-6.138,-6.2529,-6.4001,-6.3659,-6.139,-6.1745,-6.1474,-7.7995,-7.7092,-7.6994,-7.7019,-7.7019,-7.7116,-7.7116,-7.7189,-7.7189,-7.7189,-7.7238,-7.7165,-7.7165,-7.7165,-7.7165,-7.7165,-7.7165,-7.7165,-7.7165,-7.7165,-7.7165,-7.7165,-7.7165,-7.7165,-7.7165,-7.7165,-7.7165,-7.7165,-7.7165,-7.7165,-7.7165,-7.7165,-7.7165,-7.7165,-7.7165,-7.7165,-7.7165,-7.7165,-7.7165,-7.7165,-7.7165,-7.7019,-7.6872,-7.675,-7.5994,-7.5481,-7.5481,-7.5579,-7.5432,-7.5481,-7.4407,-7.3822,-7.3651,-7.2629,-7.0526,-6.7244,-6.4668,-6.1202,-5.7036,-5.6184,-5.535,-5.3418,-5.3474,-5.2963,-5.3167,-5.3381,-5.3051,-5.1699,-5.2393,-5.2885,-5.3472,-5.3417,-5.3375,-5.3289,-5.304,-5.2921,-5.2812,-5.286,-5.2244,-5.3042,-5.3349,-5.4008,-5.5612,-5.662,-5.752,-5.7959,-5.9383,-6.0616,-6.0827,-6.2501,-6.3391,-6.3532,-6.2935,-6.2076,-6.1058,-5.9545,-5.9082,-5.8737,-5.813,-5.7814,-5.7912,-5.8061,-5.8261,-5.866,-5.9887,-6.0779,-6.1086,-6.1731,-6.2613,-6.309,-6.4544,-6.4267,-6.1956,-6.2492,-6.2184,-7.5798,-7.4847,-7.4773,-7.4773,-7.4847,-7.5627,-7.5994,-7.6067,-7.6823,-7.7165,-7.7165,-7.7165,-7.7165,-7.7165,-7.7165,-7.7165,-7.7165,-7.7165,-7.7165,-7.7165,-7.7165,-7.7165,-7.7165,-7.7165,-7.7165,-7.7165,-7.7116,-7.7141,-7.7165,-7.7165,-7.7165,-7.7165,-7.7165,-7.7165,-7.7165,-7.7165,-7.7165,-7.7141,-7.7165,-7.7165,-7.6921,-7.5603,-7.4773,-7.4749,-7.4481,-7.4334,-7.4358,-7.4334,-7.3992,-7.3236,-7.2894,-7.2357,-7.1601,-7.0551,-6.9456,-6.8268,-6.4829,-6.1493,-5.8897,-5.8039,-5.7377,-5.6902,-5.7395,-5.7227,-5.6293,-5.6368,-5.6012,-5.465,-5.3801,-5.3354,-5.3127,-5.2972,-5.2773,-5.2306,-5.3472,-5.4064,-5.4267,-5.5537,-5.6084,-5.6243,-5.4988,-5.5166,-5.7764,-5.917,-5.9689,-5.976,-6.1024,-6.2022,-6.227,-6.2469,-6.3011,-6.3035,-6.2108,-6.0766,-5.9008,-5.7447,-5.6592,-5.6568,-5.7106,-5.7253,-5.8533,-5.9457,-5.9957,-6.0091,-6.1713,-6.2635,-6.2518,-6.3758,-6.4968,-6.4048,-6.3702,-6.3338,-6.2207,-6.1896,-6.166,-7.4212,-7.3236,-7.3236,-7.2967,-7.2748,-7.3748,-7.4212,-7.4383,-7.5946,-7.6506,-7.6457,-7.6018,-7.5823,-7.5823,-7.5823,-7.5823,-7.5872,-7.6286,-7.6506,-7.6506,-7.653,-7.6506,-7.6457,-7.6067,-7.5823,-7.5823,-7.5823,-7.6067,-7.6433,-7.6482,-7.6726,-7.7092,-7.6701,-7.6506,-7.6457,-7.6042,-7.5823,-7.5823,-7.5823,-7.5823,-7.5652,-7.4529,-7.387,-7.3797,-7.3041,-7.2577,-7.2553,-7.2138,-7.1625,-7.104,-7.0551,-7.0015,-6.9405,-6.8355,-6.7535,-6.7023,-6.4932,-6.271,-6.0297,-5.9559,-5.8691,-5.7223,-5.7654,-5.735,-5.5986,-5.6201,-5.6816,-5.6947,-5.6568,-5.5816,-5.5007,-5.4825,-5.4699,-5.4431,-5.5226,-5.6019,-5.5995,-5.7158,-5.7886,-5.7886,-5.6754,-5.6907,-5.8968,-6.0033,-6.0351,-6.0522,-6.0784,-6.0875,-6.0613,-6.0692,-6.0692,-6.0497,-5.9375,-5.7959,-5.6837,-5.5348,-5.5128,-5.5469,-5.6047,-5.6711,-5.8143,-5.9266,-6.0482,-6.1432,-6.2202,-6.2844,-6.3605,-6.4819,-6.5599,-6.487,-6.4034,-6.2995,-6.2443,-6.1775,-6.1061,-7.3089,-7.2211,-7.2138,-7.1552,-7.101,-7.1987,-7.2382,-7.2626,-7.4602,-7.5457,-7.5139,-7.431,-7.3944,-7.387,-7.37,-7.3578,-7.3651,-7.4456,-7.4919,-7.5066,-7.5213,-7.531,-7.5384,-7.4407,-7.387,-7.3944,-7.3992,-7.4554,-7.5457,-7.5408,-7.5872,-7.6628,-7.5896,-7.5408,-7.5384,-7.4407,-7.3919,-7.3895,-7.3675,-7.3602,-7.3578,-7.3602,-7.3529,-7.3431,-7.1528,-7.0594,-7.0472,-6.9363,-6.8827,-6.8656,-6.7803,-6.7194,-6.6964,-6.6134,-6.5109,-6.4158,-6.4865,-6.4139,-6.1069,-6.0672,-5.9377,-5.6504,-5.646,-5.5999,-5.497,-5.4578,-5.5749,-5.8243,-5.9244,-5.8551,-5.8081,-5.7733,-5.7557,-5.7333,-5.766,-5.7886,-5.7811,-5.7886,-5.7886,-5.7886,-5.764,-5.8106,-5.8639,-5.8761,-5.8911,-5.8716,-5.8883,-5.8935,-5.8252,-5.8081,-5.8008,-5.7352,-5.6028,-5.4896,-5.5319,-5.489,-5.5131,-5.5235,-5.6325,-5.7366,-5.8159,-5.9143,-6.0012,-6.1741,-6.2026,-6.3155,-6.3989,-6.4538,-6.4764,-6.3805,-6.2966,-6.2269,-6.1252,-6.0892,-6.0858,-7.2016,-7.1132,-7.1132,-7.0985,-7.0888,-7.182,-7.2284,-7.2406,-7.3651,-7.3797,-7.3187,-7.3675,-7.387,-7.37,-7.2113,-7.1498,-7.1186,-6.9966,-7.0234,-7.1767,-7.1865,-7.2675,-7.409,-7.4017,-7.387,-7.387,-7.387,-7.3992,-7.4212,-7.4261,-7.4407,-7.4554,-7.4383,-7.4261,-7.4261,-7.4017,-7.387,-7.3773,-7.226,-7.1406,-7.1406,-7.1474,-7.0991,-7.0143,-6.9673,-6.9038,-6.8258,-6.7989,-6.7389,-6.6671,-6.6378,-6.5475,-6.3865,-6.3474,-6.2864,-6.1913,-6.1986,-6.1744,-6.0992,-6.0968,-6.0605,-5.988,-5.9856,-5.9656,-5.9323,-5.7991,-5.743,-5.8073,-5.8203,-5.8154,-5.791,-5.7861,-5.7886,-5.7886,-5.7886,-5.7788,-5.7886,-5.7886,-5.7886,-5.7788,-5.7055,-5.6666,-5.6665,-5.6251,-5.5909,-5.6056,-5.6397,-5.6787,-5.669,-5.6617,-5.6042,-5.5133,-5.4344,-5.4806,-5.6789,-5.6474,-5.6252,-5.7089,-5.7493,-5.8241,-5.9465,-6.0771,-6.1996,-6.3027,-6.3928,-6.3819,-6.3421,-6.3488,-6.2733,-6.122,-6.0639,-5.9854,-5.8909,-5.9252,-6.0069,-7.1303,-7.0814,-7.079,-7.079,-7.0814,-7.1401,-7.1645,-7.1528,-7.1162,-7.1216,-7.1789,-7.3312,-7.4514,-7.5301,-7.3282,-7.2304,-7.2189,-7.051,-7.0307,-7.1474,-7.1523,-7.2065,-7.3016,-7.265,-7.2406,-7.2406,-7.2406,-7.2675,-7.3114,-7.3163,-7.3407,-7.3846,-7.387,-7.3626,-7.3138,-7.265,-7.2406,-7.2382,-6.9844,-6.8566,-6.8542,-6.7013,-6.5964,-6.5427,-6.483,-6.4342,-6.3865,-6.3294,-6.2815,-6.2254,-6.1766,-6.1424,-6.118,-6.0741,-6.0424,-6.0326,-6.0302,-6.0326,-6.0326,-5.9887,-5.9594,-5.9594,-5.9594,-5.9204,-5.8203,-5.7056,-5.6422,-5.6422,-5.6422,-5.6592,-5.7081,-5.6715,-5.6812,-5.7788,-5.6959,-5.6641,-5.6983,-5.6739,-5.6422,-5.6348,-5.586,-5.5447,-5.5519,-5.4982,-5.464,-5.464,-5.4567,-5.4518,-5.4079,-5.4586,-5.5027,-5.5058,-5.5033,-5.5737,-5.6815,-5.669,-5.6636,-5.7057,-5.7814,-5.8735,-5.9605,-6.0954,-6.18,-6.2415,-6.2384,-6.2151,-6.1571,-6.1017,-6.0115,-5.8632,-5.8458,-5.8304,-5.7859,-5.8437,-5.9621,-7.079,-7.079,-7.079,-7.0619,-7.0301,-7.0325,-7.0063,-6.9763,-6.8833,-6.9529,-7.1474,-7.3228,-7.5188,-7.6936,-7.5022,-7.4112,-7.3989,-7.275,-7.2365,-7.257,-7.257,-7.2719,-7.2966,-7.18,-7.1199,-7.1199,-7.0857,-7.1254,-7.1967,-7.204,-7.2504,-7.3309,-7.3788,-7.3322,-7.2158,-7.123,-7.0721,-7.0575,-6.788,-6.645,-6.6465,-6.3821,-6.2118,-6.1626,-6.0679,-5.9843,-5.9585,-5.8599,-5.7837,-5.7666,-5.6739,-5.6861,-5.8252,-5.7447,-5.7276,-5.7861,-5.7788,-5.791,-5.8301,-5.7373,-5.6959,-5.7398,-5.7447,-5.6446,-5.4225,-5.4347,-5.464,-5.4665,-5.4762,-5.5006,-5.5739,-5.525,-5.547,-5.6959,-5.5763,-5.4982,-5.5812,-5.5275,-5.4787,-5.4787,-5.4518,-5.4396,-5.4372,-5.4201,-5.4006,-5.3981,-5.3396,-5.2659,-5.2268,-5.306,-5.4755,-5.6253,-5.6744,-5.6778,-5.7461,-5.7109,-5.7406,-5.7048,-5.842,-5.9332,-5.9252,-6.0143,-6.0474,-5.9359,-5.933,-5.9126,-5.8777,-5.7905,-5.7405,-5.6968,-5.7052,-5.7146,-5.7004,-5.8198,-5.922,-7.079,-7.079,-7.079,-6.9763,-6.8062,-6.8062,-6.7037,-6.5792,0.0,0.0,0.0,-7.3895,-7.4251,-7.4648,-7.4386,-7.417,-7.4144,-7.2248,-7.2273,-7.3886,-7.3913,-7.4862,-7.6542,-7.4442,-7.3481,-7.3392,-7.163,-7.0863,-7.1034,-7.1059,-7.1156,-7.1512,-7.3151,-7.3026,-7.1151,-7.0863,-7.0441,-6.9932,-6.9387,-6.9292,-6.9708,-6.9117,-6.7461,-6.4488,-6.2856,-6.142,-6.012,-5.8684,-5.7495,-5.6495,-5.6348,-5.5226,-5.3098,-5.2756,-5.1974,-5.037,-4.9418,-5.0142,-5.2683,-5.1809,-5.2346,-5.5031,-5.5201,-5.3908,-5.0833,-5.3078,-5.464,-5.464,-5.464,-5.4689,-5.4884,-5.4713,-5.4787,-5.5153,-5.486,-5.4665,-5.4884,-5.4713,-5.4543,-5.4543,-5.381,-5.3322,-5.3367,-5.2615,-5.2048,-5.2048,-5.2158,-5.1681,-5.191,-5.4145,-5.6499,-5.7952,-5.8396,-5.8896,-5.9913,-6.02,-6.04,-6.0028,-6.0371,-6.0395,-5.9584,-5.9486,-5.9185,-5.8021,-5.7871,-5.7434,-5.6509,-5.6102,-5.5549,-5.4552,-5.5075,-5.5724,-5.5936,-5.7442,-5.9224,-7.079,0.0,-7.079,-7.0154,0.0,-6.9112,-6.7313,-6.4468,-6.7667,-7.0927,-7.3987,-7.5086,-7.6199,-7.7284,-7.6104,-7.5662,-7.5528,-7.3411,-7.2939,-7.396,-7.3987,-7.4523,-7.5566,-7.4372,-7.3867,-7.3808,-7.2786,-7.221,-7.2235,-7.2235,-7.1586,-7.0318,-7.1334,-7.0681,-6.8496,-6.8362,-6.8377,-6.8198,-6.891,-6.9429,-6.9625,-6.8101,-6.6366,-6.4589,-6.3744,0.0,0.0,0.0,0.0,0.0,0.0,0.0,0.0,0.0,0.0,-4.8954,-4.6489,-4.5684,-4.7148,-4.6318,-4.6636,-4.8734,-4.893,-4.7783,-4.5181,-4.688,-4.8564,-4.9613,-4.967,-5.0353,-5.1931,-5.1712,-5.2053,-5.3542,-5.281,-5.2663,-5.3542,-5.3347,-5.3074,-5.2932,-5.261,-5.2292,-5.2292,-5.1779,-5.1843,-5.2537,-5.2693,-5.306,-5.3953,-5.613,-5.786,-5.8692,-5.9422,-6.0372,-6.1054,-6.1223,-6.1021,-6.0409,-6.0235,-5.9766,-5.8603,-5.8399,-5.8045,-5.6829,-5.6538,-5.6358,-5.5607,-5.4958,-5.4802,-5.5321,-5.5391,-5.5668,-5.703,-5.8587,-5.9983,-7.079,-7.079,-7.079,-7.0672,-7.0469,-7.0666,-6.8885,-6.5973,-6.6357,-6.916,-7.3535,-7.5441,-7.7317,-7.8897,-7.7543,-7.6881,-7.6833,-7.5301,-7.4595,-7.4595,-7.484,-7.4922,-7.4922,-7.4523,-7.4309,-7.4309,-7.3879,-7.3663,-7.3663,-7.3663,-7.2621,-7.0544,-7.0986,-6.9704,-6.6861,0.0,0.0,0.0,-6.8595,-6.9557,-6.9613,-6.7134,-6.5557,-6.5121,-6.4532,0.0,-6.0426,-5.9406,-5.7533,-5.466,-5.2642,0.0,0.0,0.0,0.0,0.0,0.0,0.0,0.0,0.0,0.0,0.0,-4.1682,-4.1072,-4.005,-4.1076,-4.2597,-4.44,-4.4986,-4.6183,-4.8338,-4.7613,-4.8222,-5.1053,-4.9906,-4.9711,-5.1785,-5.137,-5.0875,-5.0899,-5.1401,-5.1697,-5.1788,-5.22,-5.297,-5.4145,-5.4336,-5.5133,-5.6988,-5.8456,-5.9276,-5.9392,-6.0372,-6.1108,-6.0903,-6.0583,-5.997,-5.933,-5.8952,-5.8487,-5.7411,-5.7172,-5.6735,-5.5837,-5.5552,-5.5587,-5.5755,-5.5001,-5.5031,-5.6765,-5.6619,-5.6721,-5.8761,-5.9983,-6.0629,-7.079,-7.079,-7.079,-7.0149,-6.9292,-7.0174,-7.1308,-7.2568,-7.4495,-7.4084,-7.2077,-7.324,-7.3935,-7.4304,-7.5902,-7.6617,-7.6704,-7.7485,-7.7902,-7.7959,-7.9053,-7.9617,-7.9542,-7.7536,-7.6524,-7.6474,-7.4603,-7.3663,-7.3663,-7.3663,-7.3503,-7.3289,-7.5144,-7.3783,-6.9394,-6.658,-6.5835,-6.7019,-7.0483,-7.2449,-7.2858,-7.244,-7.1187,-6.9056,-6.6512,-6.4792,-6.3825,-5.9846,-5.6572,-5.4349,-5.2539,-5.0435,-4.7954,-4.4415,-4.2151,0.0,-3.6459,0.0,0.0,0.0,0.0,0.0,0.0,0.0,0.0,-4.0584,-4.2286,-4.3424,-4.5311,-4.5827,-4.4305,-4.324,-4.3512,-4.5625,-4.5673,-4.638,-4.8539,-4.8734,-4.8661,-4.8661,-5.0729,-5.2165,-5.2151,-5.428,-5.5758,-5.5899,-5.5721,-5.6462,-5.9656,-6.0311,-6.0395,-6.0912,-6.1139,-6.0641,-5.9737,-5.8748,-5.8103,-5.7871,-5.7836,-5.7265,-5.6146,-5.5942,-5.5807,-5.5545,-5.5531,-5.5802,-5.6738,-5.681,-5.6765,-5.7248,-5.7893,-5.8761,-5.9951,-6.0553,-6.0629,-7.0654,-7.0654,-7.0654,-7.0504,-7.0232,-6.952,-7.0143,-7.1587,-7.3266,-7.2729,-7.0811,-7.3018,-7.3615,-7.3057,-7.4014,-7.4453,-7.4512,-7.5064,-7.5297,-7.5384,-7.6635,-7.7216,-7.7245,-7.6951,-7.6726,-7.6726,-7.5049,-7.4241,-7.4139,-7.3466,-7.285,-7.2205,-7.244,-7.0755,-6.7251,-6.5071,-6.5757,-6.9223,-7.0876,-7.2857,-7.51,-7.5243,-7.4356,-7.2555,-7.1151,-6.9201,-6.6556,-6.3724,-6.0579,-5.7083,-5.4866,-5.2082,-4.8505,-4.3691,-3.9928,0.0,0.0,0.0,0.0,0.0,0.0,0.0,0.0,0.0,0.0,0.0,-3.8633,-3.8134,-4.2689,-4.5673,-4.5629,-4.4358,-4.369,-4.4028,-4.403,-4.4613,-4.6184,-4.7569,-4.7907,-4.6515,-4.8667,-5.025,-5.025,-5.1306,-5.3128,-5.6299,-5.4422,-5.3259,-5.4664,-5.6189,-5.7032,-5.712,-5.8607,-5.945,-5.8458,-5.7847,-5.7497,-5.7408,-5.6905,-5.6495,-5.6441,-5.5945,-5.5701,-5.6231,-5.6395,-5.6721,-5.7808,-5.7669,-5.768,-5.8679,-5.9555,-6.0022,-6.052,-6.0983,-6.1318,-7.0202,-7.0288,-6.9063,-6.9235,-7.0118,-6.8122,-6.8453,-7.0563,-7.148,-7.1197,-7.0136,-7.1318,-7.1225,-6.9916,-6.8724,-6.884,-6.9969,-7.0324,-7.1109,-7.233,-7.361,-7.4163,-7.4221,-7.521,-7.5704,-7.5588,-7.4366,-7.3901,-7.4046,-7.1981,-7.0585,-6.9916,-6.8113,-6.5874,-6.3402,-6.3227,-6.5292,-6.948,-7.0469,-7.2621,-7.5995,-7.614,-7.5675,-7.4657,-7.4046,-7.2019,-6.8422,-6.6847,-6.4022,-5.9611,-5.6669,-5.3364,-4.9616,-4.3007,0.0,0.0,0.0,0.0,0.0,0.0,0.0,0.0,0.0,-2.7686,-2.3945,0.0,-3.5097,0.0,-4.0622,-4.495,-4.6564,-4.4526,0.0,0.0,-4.1811,-4.1796,-4.3128,-4.5124,-4.573,-4.3862,-4.6169,-4.787,-4.7922,-4.8479,-5.0601,-5.4913,-5.2513,-5.0111,-4.9803,-5.1681,-5.298,-5.3126,-5.5433,-5.6945,-5.5433,-5.5666,-5.6138,-5.6421,-5.6186,-5.61,-5.6638,-5.617,-5.6184,-5.7292,-5.7551,-5.8021,-5.912,-5.8596,-5.8761,-6.0211,-6.0629,-6.0705,-6.0904,-6.1394,-6.1898,-6.9237,-6.9405,-6.467,-6.4539,-6.7126,-6.517,-6.7356,-7.2384,-7.247,-7.1957,-7.0507,-6.6104,-6.3402,-6.1891,-5.7236,0.0,-6.221,-6.3344,-6.6485,-7.1174,-7.2301,-7.2854,-7.2854,-7.297,-7.3028,-7.3028,-7.1778,-7.1778,-7.2592,-6.8084,-6.6252,-6.7183,-6.3693,-6.0583,-5.8482,-6.1482,-6.3983,-6.5583,-6.9131,-7.2185,-7.4715,-7.4773,-7.4744,-7.457,-7.2484,-7.0521,-6.8964,-6.7109,-6.4363,-6.0626,-5.6447,-5.2501,-4.8733,0.0,0.0,0.0,0.0,0.0,0.0,0.0,0.0,0.0,0.0,0.0,0.0,0.0,0.0,0.0,-4.0784,0.0,-4.4562,-4.0504,0.0,0.0,0.0,-3.6117,-3.8225,-3.9602,-4.0305,-4.0121,0.0,0.0,-4.5887,-4.8122,-5.0279,-5.1897,-5.1837,-5.1099,-4.9965,-5.0418,-5.103,-5.0169,-5.234,-5.2747,-5.0098,-5.1035,-5.2666,-5.3696,-5.5681,-5.647,-5.5866,-5.6227,-5.7391,-5.8555,-5.8761,-5.9088,-6.0256,-6.0197,-6.0405,-6.046,-6.0536,-6.08,-6.1271,-6.1558,-6.1905,-6.5394,-6.0988,-5.8122,-5.7753,-5.884,-5.8075,-5.9047,-6.122,-6.2035,-6.1657,-6.0403,-5.9126,-5.7876,-5.6538,-5.4552,0.0,0.0,0.0,-5.9766,-6.3983,-6.6019,-6.823,-7.0498,-7.201,-7.2708,-7.2621,-7.0702,-7.0004,-7.044,-6.6834,-6.1889,-5.5549,0.0,0.0,-5.2903,-5.6654,-6.0377,-6.3954,-6.852,-7.14,-7.2455,-7.3086,-7.3116,-7.2388,-7.0673,-6.916,-6.7851,-6.558,-6.2158,-5.7408,-5.406,-4.8878,0.0,0.0,0.0,0.0,0.0,0.0,0.0,0.0,0.0,0.0,0.0,-2.3173,-2.0559,0.0,0.0,0.0,-3.5282,-3.8333,-4.0582,-4.0202,0.0,0.0,0.0,0.0,0.0,0.0,0.0,-3.4584,-4.0419,-4.4757,-4.4757,-4.4978,-4.537,-4.5894,-4.4585,-4.3392,-4.2898,0.0,-4.4334,-4.7057,-4.8278,-4.9126,-4.976,-4.9744,-4.9886,-5.0427,-5.2734,-5.4715,-5.5783,-5.7227,-5.8574,-5.9635,-5.9944,-6.0101,-6.0553,-5.922,-5.8068,-5.8068,-5.8399,-5.8722,-5.9067,-5.9923,-6.0738,-5.9372,0.0,0.0,0.0,0.0,-5.199,-5.2602,-5.3708,-5.4619,-5.4523,-5.3562,-5.2747,0.0,0.0,0.0,0.0,0.0,0.0,-5.5105,-5.7818,-6.2267,-6.4972,-6.631,-6.8026,-6.8869,-6.8661,-6.5583,-6.4245,-6.442,-6.125,-5.488,-4.5793,0.0,0.0,0.0,0.0,-5.6829,-6.0581,-6.6601,-6.9975,-7.0382,-7.1574,-7.1778,-7.0934,-6.8986,-6.727,-6.6021,-6.3111,-5.9415,-5.4786,-5.0763,0.0,0.0,0.0,0.0,0.0,0.0,0.0,0.0,0.0,0.0,0.0,0.0,0.0,0.0,0.0,0.0,0.0,0.0,0.0,-3.5893,-3.785,-3.8051,0.0,0.0,0.0,0.0,0.0,0.0,0.0,0.0,0.0,-4.1453,-4.2551,-4.3444,0.0,0.0,-4.2052,-4.0459,-4.0971,-4.2188,-4.4156,-4.5272,0.0,-4.7961,-4.7671,-4.7753,-4.887,-5.1174,-5.3412,-5.5171,-5.5896,-5.6466,-5.6955,-5.7716,-5.7539,-5.6059,-5.4056,-5.287,-5.2837,-5.325,-5.3676,-5.4007,-5.4924,-5.5949,0.0,0.0,0.0,0.0,0.0,0.0,0.0,0.0,-5.3446,-5.33,0.0,-4.7042,0.0,0.0,0.0,0.0,0.0,-5.0564,0.0,0.0,-6.2499,-6.4333,-5.9795,-5.9766,-5.9766,-5.9417,-5.4822,-5.3067,-5.3737,-4.8976,0.0,0.0,0.0,0.0,0.0,0.0,-5.3766,-5.429,-6.279,-6.7855,-6.9073,-7.0294,-7.0934,-7.0789,-6.7241,-6.4623,-6.3256,-5.9592,-5.6393,-5.3639,-4.6448,0.0,0.0,0.0,0.0,0.0,0.0,0.0,0.0,0.0,0.0,0.0,0.0,0.0,0.0,0.0,0.0,0.0,0.0,0.0,0.0,-3.2049,0.0,0.0,0.0,0.0,0.0,0.0,0.0,0.0,0.0,0.0,-3.5307,-4.1622,-4.6464,-4.5799,0.0,0.0,0.0,0.0,-4.7085,-4.1951,-4.3791,-4.4769,-4.1845,-4.3311,-4.6171,-4.9916,0.0,0.0,-5.3118,-5.1456,-4.9906,-4.898,-5.078,-5.0404,-4.5077,-4.4387,-4.4429,-4.4516,-4.478,-4.5049,-4.5888,-4.6572,-4.7268,0.0,0.0,0.0,0.0,0.0,0.0,0.0,0.0,0.0,-4.1124,0.0,-3.8739,0.0,0.0,0.0,0.0,0.0,0.0,0.0,0.0,-5.0302,-5.2922,-5.4386,-5.5222,-5.5629,0.0,-5.2088,-4.6795,0.0,0.0,0.0,0.0,0.0,0.0,0.0,0.0,-5.1507,-5.2776,-6.2092,-6.7302,-6.7735,-6.8986,-6.9277,-6.8438,-6.6252,-6.2936,-5.837,-5.3717,-4.9267,0.0,0.0,0.0,0.0,0.0,0.0,0.0,0.0,0.0,0.0,0.0,0.0,0.0,0.0,0.0,0.0,0.0,0.0,0.0,0.0,0.0,0.0,0.0,-3.0945,0.0,0.0,0.0,0.0,0.0,0.0,0.0,0.0,0.0,-3.5602,-3.8851,-4.2487,-4.5997,-4.6516,-4.6897,-4.7755,0.0,0.0,0.0,0.0,0.0,0.0,0.0,-4.5067,-4.458,-4.5167,-4.5883,-4.6585,-4.6866,-4.6846,-4.6583,0.0,0.0,-3.9409,-3.8393,-3.8695,-3.967,-3.9646,-3.982,-4.123,-4.1894,-4.2849,0.0,0.0,0.0,0.0,0.0,0.0,0.0,0.0,0.0,-3.3184,-3.3125,0.0,0.0,0.0,0.0,0.0,0.0,0.0,0.0,0.0,0.0,0.0,-4.7871,-4.8744,0.0,0.0,0.0,0.0,0.0,0.0,0.0,0.0,0.0,0.0,0.0,0.0,-4.9762,-5.1419,-6.0811,-6.5932,-6.6458,-6.7241,-6.7473,-6.7069,-6.535,-6.1686,-5.5753,0.0,0.0,0.0,0.0,0.0,0.0,0.0,0.0,0.0,0.0,0.0,0.0,0.0,0.0,0.0,0.0,0.0,0.0,0.0,0.0,0.0,0.0,0.0,0.0,0.0,-2.6839,0.0,0.0,0.0,0.0,0.0,0.0,0.0,0.0,0.0,0.0,0.0,-3.9888,-4.4028,-4.5811,-4.7508,-4.9904,-5.2878,-5.3803,0.0,0.0,0.0,0.0,0.0,0.0,0.0,0.0,0.0,0.0,0.0,0.0,0.0,0.0,-3.5237,-3.1903,-3.1241,-3.1548,-3.2623,0.0,0.0,0.0,0.0,0.0,0.0,0.0,0.0,0.0,0.0,0.0,0.0,0.0,0.0,0.0,0.0,0.0,0.0,-2.856,0.0,0.0,0.0,0.0,0.0,0.0,0.0,0.0,0.0,0.0,0.0,0.0,0.0,0.0,0.0,0.0,0.0,0.0,0.0,0.0,0.0,0.0,-4.8438,-4.9878,-5.8666,-6.3867,-6.5089,-6.5147,-6.5789,-6.6836,-6.4391,-6.0554,-5.5462,0.0,0.0,0.0,0.0,0.0,0.0,0.0,0.0,0.0,0.0,0.0,0.0,0.0,0.0,0.0,0.0,0.0,0.0,0.0,0.0,0.0,0.0,0.0,0.0,0.0,0.0,-2.0305,-2.4096,-2.7152,0.0,0.0,0.0,0.0,0.0,0.0,0.0,0.0,0.0,0.0,-4.803,-5.3329,-5.2146,-5.6848,-5.79,-5.0997,-4.8694,-4.8165,-4.9452,-4.9715,-4.9933,0.0,0.0,0.0,0.0,0.0,0.0,0.0,0.0,0.0,0.0,0.0,0.0,0.0,0.0,0.0,0.0,0.0,0.0,0.0,0.0,0.0,0.0,0.0,0.0,0.0,0.0,0.0,0.0,0.0,0.0,0.0,0.0,0.0,0.0,0.0,0.0,0.0,0.0,0.0,0.0,0.0,0.0,0.0,0.0,0.0,0.0,0.0,0.0,0.0,0.0,0.0,0.0,0.0,0.0,-4.8099,-4.9791,-5.8632,-6.3809,-6.5059,-6.5118,-6.4856,-6.4245,-6.0144,-5.5462,0.0,0.0,0.0,0.0,0.0,0.0,0.0,0.0,0.0,0.0,0.0,0.0,0.0,0.0,0.0,0.0,0.0,0.0,0.0,0.0,0.0,0.0,0.0,0.0,0.0,0.0,0.0,0.0,-3.0011,-2.9562,-2.6126,0.0,0.0,0.0,0.0,0.0,0.0,0.0,0.0,0.0,0.0,-5.1029,-5.3625,-5.7791,-5.8755,-5.3526,-5.1555,-5.0074,-4.8494,-4.9976,-4.9308,-4.3715,0.0,0.0,0.0,0.0,0.0,0.0,0.0,0.0,0.0,0.0,0.0,0.0,0.0,0.0,0.0,0.0,0.0,0.0,0.0,0.0,0.0,0.0,0.0,0.0,0.0,0.0,0.0,0.0,0.0,0.0,0.0,0.0,0.0,0.0,0.0,0.0,0.0,0.0,0.0,0.0,0.0,0.0,0.0,0.0,0.0,0.0,0.0,0.0,0.0,0.0,0.0,0.0,0.0,-4.7843,-4.9436,-5.7982,-6.3024,-6.4303,-6.3896,-6.3256,-6.2443,-5.7992,-5.3077,0.0,0.0,0.0,0.0,0.0,0.0,0.0,0.0,0.0,0.0,0.0,0.0,0.0,0.0,0.0,0.0,0.0,0.0,0.0,0.0,0.0,0.0,0.0,0.0,0.0,0.0,0.0,0.0,-2.8118,-2.8087,-2.4987,0.0,0.0,0.0,0.0,0.0,0.0,0.0,0.0,0.0,0.0,-4.8923,-5.2679,-5.582,0.0,0.0,-5.2473,-5.0842,-4.9478,-5.1448,-5.0497,-4.268,-4.1076,0.0,0.0,0.0,0.0,0.0,0.0,0.0,0.0,0.0,0.0,0.0,0.0,0.0,0.0,0.0,0.0,0.0,0.0,0.0,0.0,0.0,0.0,0.0,0.0,0.0,0.0,0.0,0.0,0.0,0.0,0.0,0.0,0.0,0.0,0.0,0.0,0.0,0.0,0.0,0.0,0.0,0.0,0.0,0.0,0.0,0.0,0.0,0.0,0.0,0.0,0.0,0.0,0.0,-4.8919,-5.7008,-6.1946,-6.2937,-6.203,-6.1388,-6.1131,-5.7451,-5.2821,0.0,0.0,0.0,0.0,0.0,0.0,0.0,0.0,0.0,0.0,0.0,0.0,0.0,0.0,0.0,0.0,0.0,0.0,0.0,0.0,0.0,0.0,0.0,0.0,0.0,0.0,0.0,0.0,0.0,0.0,0.0,0.0,0.0,0.0,0.0,0.0,0.0,0.0,0.0,0.0,0.0,-4.7138,-4.9927,-5.1869,-5.3196,0.0,0.0,-5.036,-5.0986,-5.3117,-5.232,-4.4951,0.0,0.0,0.0,0.0,0.0,0.0,0.0,0.0,0.0,0.0,0.0,0.0,0.0,0.0,0.0,0.0,0.0,0.0,0.0,0.0,0.0,0.0,0.0,0.0,0.0,0.0,0.0,0.0,0.0,0.0,0.0,0.0,0.0,0.0,0.0,0.0,0.0,0.0,0.0,0.0,0.0,0.0,0.0,0.0,0.0,0.0,0.0,0.0,0.0,0.0,0.0,0.0,0.0,0.0,-4.7663,-5.7622,-6.2475,-6.1771,-6.341,-6.324,-6.1091,-5.6273,0.0,0.0,0.0,0.0,0.0,0.0,0.0,0.0,0.0,0.0,0.0,0.0,0.0,0.0,0.0,0.0,0.0,0.0,0.0,0.0,0.0,0.0,0.0,0.0,0.0,0.0,0.0,-1.861,0.0,0.0,0.0,0.0,0.0,0.0,0.0,0.0,0.0,0.0,0.0,0.0,0.0,0.0,-4.5616,-4.7505,-4.9582,-5.0672,0.0,0.0,-4.6889,-4.3693,-4.7464,-4.7611,0.0,0.0,0.0,0.0,0.0,0.0,0.0,0.0,0.0,0.0,0.0,0.0,0.0,0.0,0.0,0.0,0.0,0.0,0.0,0.0,0.0,0.0,0.0,0.0,0.0,0.0,0.0,0.0,0.0,0.0,0.0,0.0,0.0,0.0,0.0,0.0,0.0,0.0,0.0,0.0,0.0,0.0,0.0,0.0,0.0,0.0,0.0,0.0,0.0,0.0,0.0,0.0,0.0,0.0,-4.6489,-4.7671,-5.5973,-6.0945,-6.2012,-6.2957,-6.2726,-6.116,-5.5258,-5.0334,0.0,0.0,0.0,0.0,0.0,0.0,0.0,0.0,0.0,0.0,0.0,0.0,0.0,0.0,0.0,0.0,0.0,0.0,0.0,0.0,0.0,0.0,0.0,0.0,0.0,0.0,0.0,0.0,0.0,0.0,0.0,0.0,0.0,0.0,0.0,0.0,0.0,0.0,0.0,0.0,0.0,0.0,-4.555,-4.6539,0.0,0.0,0.0,-4.5217,-4.2376,0.0,0.0,0.0,0.0,0.0,0.0,0.0,0.0,0.0,0.0,0.0,0.0,0.0,0.0,0.0,0.0,0.0,0.0,0.0,0.0,0.0,0.0,0.0,0.0,0.0,0.0,0.0,0.0,0.0,0.0,0.0,0.0,0.0,0.0,0.0,0.0,0.0,0.0,0.0,0.0,0.0,0.0,0.0,0.0,0.0,0.0,0.0,0.0,0.0,0.0,0.0,0.0,0.0,0.0,0.0,0.0,0.0,-4.7707,-5.3645,-5.877,-6.2663,-6.1999,-6.1468,-6.1343,-5.537,-5.0166,0.0,0.0,0.0,0.0,0.0,0.0,0.0,0.0,0.0,0.0,0.0,0.0,0.0,0.0,0.0,0.0,0.0,0.0,0.0,0.0,0.0,0.0,0.0,0.0,0.0,0.0,0.0,0.0,0.0,0.0,0.0,0.0,0.0,0.0,0.0,0.0,0.0,0.0,0.0,0.0,0.0,-3.9257,-4.3599,-4.3108,-4.266,0.0,0.0,-4.4091,-4.3483,-4.3564,0.0,0.0,0.0,0.0,0.0,0.0,0.0,0.0,0.0,0.0,0.0,0.0,0.0,0.0,0.0,0.0,0.0,0.0,0.0,0.0,0.0,0.0,0.0,0.0,0.0,0.0,0.0,0.0,0.0,0.0,0.0,0.0,0.0,0.0,0.0,0.0,0.0,0.0,0.0,0.0,0.0,0.0,0.0,0.0,0.0,0.0,0.0,0.0,0.0,0.0,0.0,0.0,0.0,0.0,0.0,0.0,-4.645,-5.4183,-5.9374,-6.1593,-6.3251,-6.3664,-6.2618,-6.0081,-5.5069,0.0,0.0,0.0,0.0,0.0,0.0,0.0,0.0,0.0,0.0,0.0,0.0,0.0,0.0,0.0,0.0,0.0,0.0,0.0,0.0,0.0,0.0,0.0,0.0,0.0,0.0,0.0,0.0,0.0,0.0,0.0,0.0,0.0,0.0,0.0,0.0,0.0,0.0,0.0,0.0,0.0,-3.6494,-4.0538,-4.0278,0.0,0.0,0.0,0.0,-3.9054,-3.787,0.0,0.0,0.0,0.0,0.0,0.0,0.0,0.0,0.0,0.0,0.0,0.0,0.0,0.0,0.0,0.0,0.0,0.0,0.0,0.0,0.0,0.0,0.0,0.0,0.0,0.0,0.0,0.0,0.0,0.0,0.0,0.0,0.0,0.0,0.0,0.0,0.0,0.0,0.0,0.0,0.0,0.0,0.0,0.0,0.0,0.0,0.0,0.0,0.0,0.0,0.0,0.0,0.0,0.0,0.0,0.0,-4.6778,-5.2438,-5.7575,-6.1798,-6.2564,-6.2881,-6.286,-6.0747,-5.5862,0.0,0.0,0.0,0.0,0.0,0.0,0.0,0.0,0.0,0.0,0.0,0.0,0.0,0.0,0.0,0.0,0.0,0.0,0.0,0.0,0.0,0.0,0.0,0.0,0.0,0.0,0.0,0.0,0.0,0.0,0.0,0.0,0.0,0.0,0.0,0.0,0.0,0.0,0.0,0.0,-3.2519,-3.3363,-3.6942,0.0,0.0,0.0,0.0,0.0,0.0,-3.5041,-3.2703,0.0,0.0,0.0,0.0,0.0,0.0,0.0,0.0,0.0,0.0,0.0,0.0,0.0,0.0,0.0,0.0,0.0,0.0,0.0,0.0,0.0,0.0,0.0,0.0,0.0,0.0,0.0,0.0,0.0,0.0,0.0,0.0,0.0,0.0,0.0,0.0,0.0,0.0,0.0,0.0,0.0,0.0,0.0,0.0,0.0,0.0,0.0,0.0,0.0,0.0,0.0,0.0,0.0,0.0,0.0,-4.6882,-5.0205,-5.5171,-6.1852,-6.1161,-6.132,-6.2641,-6.0005,-5.5073,-4.7968,0.0,0.0,0.0,0.0,0.0,0.0,0.0,0.0,0.0,0.0,0.0,0.0,0.0,0.0,0.0,0.0,0.0,0.0,0.0,0.0,0.0,0.0,0.0,0.0,0.0,0.0,0.0,0.0,0.0,0.0,0.0,0.0,0.0,0.0,0.0,0.0,0.0,0.0,0.0,-2.9943,-3.0586,0.0,0.0,0.0,0.0,0.0,0.0,0.0,0.0,-2.9594,0.0,0.0,0.0,0.0,0.0,0.0,0.0,0.0,0.0,0.0,0.0,0.0,0.0,0.0,0.0,0.0,0.0,0.0,0.0,0.0,0.0,0.0,0.0,0.0,0.0,0.0,0.0,0.0,0.0,0.0,0.0,0.0,0.0,0.0,0.0,0.0,0.0,0.0,0.0,0.0,0.0,0.0,0.0,0.0,0.0,0.0,0.0,0.0,0.0,0.0,0.0,0.0,0.0,0.0,0.0,0.0,-4.922,-5.4284,-5.8952,-6.0136,-6.132,-6.2674,-6.0005,-5.5073,-4.7869,0.0,0.0,0.0,0.0,0.0,0.0,0.0,0.0,0.0,0.0,0.0,0.0,0.0,0.0,0.0,0.0,0.0,0.0,0.0,0.0,0.0,0.0,0.0,0.0,0.0,0.0,0.0,0.0,0.0,0.0,0.0,0.0,0.0,0.0,0.0,0.0,0.0,0.0,-2.4685,-2.6909,0.0,0.0,0.0,0.0,0.0,0.0,0.0,0.0,-2.8532,0.0,0.0,0.0,0.0,0.0,0.0,0.0,0.0,0.0,0.0,0.0,0.0,0.0,0.0,0.0,0.0,0.0,0.0,0.0,0.0,0.0,0.0,0.0,0.0,0.0,0.0,0.0,0.0,0.0,0.0,0.0,0.0,0.0,0.0,0.0,0.0,0.0,0.0,0.0,0.0,0.0,0.0,0.0,0.0,0.0,0.0,0.0,0.0,0.0,0.0,0.0,0.0,0.0,0.0,0.0,0.0,0.0,0.0,-5.3659,-5.7312,-5.9511,-6.0958,-6.1424,-5.6585,-5.1916,0.0,0.0,0.0,0.0,0.0,0.0,0.0,0.0,0.0,0.0,0.0,0.0,0.0,0.0,0.0,0.0,0.0,0.0,0.0,0.0,0.0,0.0,0.0,0.0,0.0,0.0,0.0,0.0,0.0,0.0,0.0,0.0,0.0,0.0,0.0,0.0,0.0,0.0,0.0,0.0,0.0,0.0,0.0,0.0,0.0,0.0,0.0,0.0,0.0,0.0,0.0,0.0,0.0,0.0,0.0,0.0,0.0,0.0,0.0,0.0,0.0,0.0,0.0,0.0,0.0,0.0,0.0,0.0,0.0,0.0,0.0,0.0,0.0,0.0,0.0,0.0,0.0,0.0,0.0,0.0,0.0,0.0,0.0,0.0,0.0,0.0,0.0,0.0,0.0,0.0,0.0,0.0,0.0,0.0,0.0,0.0,0.0,0.0,0.0,0.0,0.0,0.0,0.0,0.0,0.0,0.0,0.0,0.0,-5.3034,-5.5403,-5.8821,-6.0629,-6.0596,-5.3297,-4.8201,0.0,0.0,0.0,0.0,0.0,0.0,0.0,0.0,0.0,0.0,0.0,0.0,0.0,0.0,0.0,0.0,0.0,0.0,0.0,0.0,0.0,0.0,0.0,0.0,0.0,0.0,0.0,0.0,0.0,0.0,0.0,0.0,0.0,0.0,0.0,0.0,0.0,0.0,0.0,0.0,0.0,0.0,0.0,0.0,0.0,0.0,0.0,0.0,-2.6532,0.0,0.0,0.0,0.0,0.0,0.0,0.0,0.0,0.0,0.0,0.0,0.0,0.0,0.0,0.0,0.0,0.0,0.0,0.0,0.0,0.0,0.0,0.0,0.0,0.0,0.0,0.0,0.0,0.0,0.0,0.0,0.0,0.0,0.0,0.0,0.0,0.0,0.0,0.0,0.0,0.0,0.0,0.0,0.0,0.0,0.0,0.0,0.0,0.0,0.0,0.0,0.0,0.0,0.0,0.0,0.0,0.0,0.0,0.0,-5.2081,-5.2442,-5.7769,-6.0629,-6.0366,-5.2344,-4.5336,0.0,0.0,0.0,0.0,0.0,0.0,0.0,0.0,0.0,0.0,0.0,0.0,0.0,0.0,0.0,0.0,0.0,0.0,0.0,0.0,0.0,0.0,0.0,0.0,0.0,0.0,0.0,0.0,0.0,0.0,0.0,0.0,0.0,0.0,0.0,0.0,0.0,0.0,0.0,0.0,0.0,0.0,0.0,0.0,0.0,0.0,0.0,0.0,0.0,0.0,0.0,0.0,0.0,0.0,0.0,0.0,0.0,0.0,0.0,0.0,0.0,0.0,0.0,0.0,0.0,0.0,0.0,0.0,0.0,0.0,0.0,0.0,0.0,0.0,0.0,0.0,0.0,0.0,0.0,0.0,0.0,0.0,0.0,0.0,0.0,0.0,0.0,0.0,0.0,0.0,0.0,0.0,0.0,0.0,0.0,0.0,0.0,0.0,0.0,0.0,0.0,0.0,0.0,0.0,0.0,0.0,0.0,0.0,-4.9473,-5.1105,-5.5707,-5.7128,-5.4955,-4.7781,-4.2283,0.0,0.0,0.0,0.0,0.0,0.0,0.0,0.0,0.0,0.0,0.0,0.0,0.0,0.0,0.0,0.0,0.0,0.0,0.0,0.0,0.0,0.0,0.0,0.0,0.0,0.0,0.0,0.0,0.0,0.0,0.0,0.0,0.0,0.0,0.0,0.0,0.0,0.0,0.0,0.0,0.0,0.0,0.0,0.0,0.0,0.0,0.0,0.0,0.0,0.0,0.0,0.0,0.0,0.0,0.0,0.0,0.0,0.0,0.0,0.0,0.0,0.0,0.0,0.0,0.0,0.0,0.0,0.0,0.0,0.0,0.0,0.0,0.0,0.0,0.0,0.0,0.0,0.0,0.0,0.0,0.0,0.0,0.0,0.0,0.0,0.0,0.0,0.0,0.0,0.0,0.0,0.0,0.0,0.0,0.0,0.0,0.0,0.0,0.0,0.0,0.0,0.0,0.0,0.0,0.0,0.0,0.0,0.0,0.0,-4.9592,-5.2054,-5.1787,-4.8628,-4.3626,-3.9666,0.0,0.0,0.0,0.0,0.0,0.0,0.0,0.0,0.0,0.0,0.0,0.0,0.0,0.0,0.0,0.0,0.0,0.0,0.0,0.0,0.0,0.0,0.0,0.0,0.0,0.0,0.0,0.0,0.0,0.0,0.0,0.0,0.0,0.0,0.0,0.0,0.0,0.0,0.0,0.0,0.0,0.0,0.0,0.0,0.0,0.0,0.0,0.0,0.0,0.0,0.0,0.0,0.0,0.0,0.0,0.0,0.0,0.0,0.0,0.0,0.0,0.0,0.0,0.0,0.0,0.0,0.0,0.0,0.0,0.0,0.0,0.0,0.0,0.0,0.0,0.0,0.0,0.0,0.0,0.0,0.0,0.0,0.0,0.0,0.0,0.0,0.0,0.0,0.0,0.0,0.0,0.0,0.0,0.0,0.0,0.0,0.0,0.0,0.0,0.0,0.0,0.0,0.0,0.0,0.0,0.0,0.0,0.0,0.0,-4.7192,-4.6017,-4.4664,-4.3098,-4.1247,-3.7517,0.0,0.0,0.0,0.0,0.0,0.0,0.0,0.0,0.0,0.0,0.0,0.0,0.0,0.0,0.0,0.0,0.0,0.0,0.0,0.0,0.0,0.0,0.0,0.0,0.0,0.0,0.0,0.0,0.0,0.0,0.0,0.0,0.0,0.0,0.0,0.0,0.0,0.0,0.0,0.0,0.0,0.0,0.0,0.0,0.0,0.0,0.0,0.0,0.0,0.0,0.0,0.0,0.0,0.0,0.0,0.0,0.0,0.0,0.0,0.0,0.0,0.0,0.0,0.0,0.0,0.0,0.0,0.0,0.0,0.0,0.0,0.0,0.0,0.0,0.0,0.0,0.0,0.0,0.0,0.0,0.0,0.0,0.0,0.0,0.0,0.0,0.0,0.0,0.0,0.0,0.0,0.0,0.0,0.0,0.0,0.0,0.0,0.0,0.0,0.0,0.0,0.0,0.0,0.0,0.0,0.0,0.0,0.0,0.0,-4.2473,-4.1339,-4.0602,-4.0519,-3.7731,-3.4583,-3.1273,0.0,0.0,0.0,0.0,0.0,0.0,0.0,0.0,0.0,0.0,0.0,0.0,0.0,0.0,0.0,0.0,0.0,0.0,0.0,0.0,0.0,0.0,0.0,0.0,0.0,0.0,0.0,0.0,0.0,0.0,0.0,0.0,0.0,0.0,0.0,0.0,0.0,0.0,0.0,0.0,0.0,0.0,0.0,0.0,0.0,0.0,0.0,0.0,0.0,0.0,0.0,0.0,0.0,0.0,0.0,0.0,0.0,0.0,0.0,0.0,0.0,0.0,0.0,0.0,0.0,0.0,0.0,0.0,0.0,0.0,0.0,0.0,0.0,0.0,0.0,0.0,0.0,0.0,0.0,0.0,0.0,0.0,0.0,0.0,0.0,0.0,0.0,0.0,0.0,0.0,0.0,0.0,0.0,0.0,0.0,0.0,0.0,0.0,0.0,0.0,0.0,0.0,0.0,0.0,0.0,0.0,0.0,0.0,-3.9105,-3.8425,-3.8268,-3.8561,-3.5215,-3.2705,0.0,0.0,0.0,0.0,0.0,0.0,0.0,0.0,0.0,0.0,0.0,0.0,0.0,0.0,0.0,0.0,0.0,0.0,0.0,0.0,0.0,0.0,0.0,0.0,0.0,0.0,0.0,0.0,0.0,0.0,0.0,0.0,0.0,0.0,0.0,0.0,0.0,0.0,0.0,0.0,0.0,0.0,0.0,0.0,0.0,0.0,0.0,0.0,0.0,0.0,0.0,0.0,0.0,0.0,0.0,0.0,0.0,0.0,0.0,0.0,0.0,0.0,0.0,0.0,0.0,0.0,0.0,0.0,0.0,0.0,0.0,0.0,0.0,0.0,0.0,0.0,0.0,0.0,0.0,0.0,0.0,0.0,0.0,0.0,0.0,0.0,0.0,0.0,0.0,0.0,0.0,0.0,0.0,0.0,0.0,0.0,0.0,0.0,0.0,0.0,0.0,0.0,0.0,0.0,0.0,0.0,0.0,0.0,-3.7546,-3.7546,-3.7516,-3.7451,-3.7424,-3.4102,-3.2132,0.0,0.0,0.0,0.0,0.0,0.0,0.0,0.0,0.0,0.0,0.0,0.0,0.0,0.0,0.0,0.0,0.0,0.0,0.0,0.0,0.0,0.0,0.0,0.0,0.0,0.0,0.0,0.0,0.0,0.0,0.0,0.0,0.0,0.0,0.0,0.0,0.0,0.0,0.0,0.0,0.0,0.0,0.0,0.0,0.0,0.0,0.0,0.0,0.0,0.0,0.0,0.0,0.0,0.0,0.0,0.0,0.0,0.0,0.0,0.0,0.0,0.0,0.0,0.0,0.0,0.0,0.0,0.0,0.0,0.0,0.0,0.0,0.0,0.0,0.0,0.0,0.0,0.0,0.0,0.0,0.0,0.0,0.0,0.0,0.0,0.0,0.0,0.0,0.0,0.0,0.0,0.0,0.0,0.0,0.0,0.0,0.0,0.0,0.0,0.0,0.0,0.0,0.0,0.0,0.0,0.0,0.0,0.0,0.0,-3.7475,0.0,-3.5926,0.0,-3.2765,-3.0935,0.0,0.0,0.0,0.0,0.0,0.0,0.0,0.0,0.0,0.0,0.0,0.0,0.0,0.0,0.0,0.0,0.0,0.0,0.0,0.0,0.0,0.0,0.0,0.0,0.0,0.0,0.0,0.0,0.0,0.0,0.0,0.0,0.0,0.0,0.0,0.0,0.0,0.0,0.0,0.0,0.0,0.0,0.0,0.0,0.0,0.0,0.0,0.0,0.0,0.0,0.0,0.0,0.0,0.0,0.0,0.0,0.0,0.0,0.0,0.0,0.0,0.0,0.0,0.0,0.0,0.0,0.0,0.0,0.0,0.0,0.0,0.0,0.0,0.0,0.0,0.0,0.0,0.0,0.0,0.0,0.0,0.0,0.0,0.0,0.0,0.0,0.0,0.0,0.0,0.0,0.0,0.0,0.0,0.0,0.0,0.0,0.0,0.0,0.0,0.0,0.0,0.0,0.0,0.0,0.0,0.0,0.0,0.0,0.0,-3.7439,-3.6532,-3.5747,0.0,-3.1992,-3.0218,0.0,0.0,0.0,0.0,0.0,0.0,0.0,0.0,0.0,0.0,0.0,0.0,0.0,0.0,0.0,0.0,0.0,0.0,0.0,0.0,0.0,0.0,0.0,0.0,0.0,0.0,0.0,0.0,0.0,0.0,0.0,0.0,0.0,0.0,0.0,0.0,0.0,0.0,0.0,0.0,0.0,0.0,0.0,0.0,0.0,0.0,0.0,0.0,0.0,0.0,0.0,0.0,0.0,0.0,0.0,0.0,0.0,0.0,0.0,0.0,0.0,0.0,0.0,0.0,0.0,0.0,0.0,0.0,0.0,0.0,0.0,0.0,0.0,0.0,0.0,0.0,0.0,0.0,0.0,0.0,0.0,0.0,0.0,0.0,0.0,0.0,0.0,0.0,0.0,0.0,0.0,0.0,0.0,0.0,0.0,0.0,0.0,0.0,0.0,0.0,0.0,0.0,0.0,0.0,0.0,0.0,0.0,0.0,0.0,0.0,-3.7475,-3.6725,-3.5056,-3.1691,-2.9859,0.0,0.0,0.0,0.0,0.0,0.0,0.0,0.0,0.0,0.0,0.0,0.0,0.0,0.0,0.0,0.0,0.0,0.0,0.0,0.0,0.0,0.0,0.0,0.0,0.0,0.0,0.0,0.0,0.0,0.0,0.0,0.0,0.0,0.0,0.0,0.0,0.0,0.0,0.0,0.0,0.0,0.0,0.0,0.0,0.0,0.0,0.0,0.0,0.0,0.0,0.0,0.0,0.0,0.0,0.0,0.0,0.0,0.0,0.0,0.0,0.0,0.0,0.0,0.0,0.0,0.0,0.0,0.0,0.0,0.0,0.0,0.0,0.0,0.0,0.0,0.0,0.0,0.0,0.0,0.0,0.0,0.0,0.0,0.0,0.0,0.0,0.0,0.0,0.0,0.0,0.0,0.0,0.0,0.0,0.0,0.0,0.0,0.0,0.0,0.0,0.0,0.0,0.0,0.0,0.0,0.0,0.0,0.0,0.0,0.0,-3.7475,0.0,-3.3509,-3.0334,-2.8663,-2.8663,0.0,0.0,0.0,0.0,0.0,0.0,0.0,0.0,0.0,0.0,0.0,0.0,0.0,0.0,0.0,0.0,0.0,0.0,0.0,0.0,0.0,0.0,0.0,0.0,0.0,0.0,0.0,0.0,0.0,0.0,0.0,0.0,0.0,0.0,0.0,0.0,0.0,0.0,0.0,0.0,0.0,0.0,0.0,0.0,0.0,0.0,0.0,0.0,0.0,0.0,0.0,0.0,0.0,0.0,0.0,0.0,0.0,0.0,0.0,0.0,0.0,0.0,0.0,0.0,0.0,0.0,0.0,0.0,0.0,0.0,0.0,0.0,0.0,0.0,0.0,0.0,0.0,0.0,0.0,0.0,0.0,0.0,0.0,0.0,0.0,0.0,0.0,0.0,0.0,0.0,0.0,0.0,0.0,0.0,0.0,0.0,0.0,0.0,0.0,0.0,0.0,0.0,0.0,0.0,0.0,0.0,0.0,0.0,0.0,0.0,0.0,-3.2903,-3.1049,-2.9433,0.0,0.0,0.0,0.0,0.0,0.0,0.0,0.0,0.0,0.0,0.0,0.0,0.0,0.0,0.0,0.0,0.0,0.0,0.0,0.0,0.0,0.0,0.0,0.0,0.0,0.0,0.0,0.0,0.0,0.0,0.0,0.0,0.0,0.0,0.0,0.0,0.0,0.0,0.0,0.0,0.0,0.0,0.0,0.0,0.0,0.0,0.0,0.0,0.0,0.0,0.0,0.0,0.0,0.0,0.0,0.0,0.0,0.0,0.0,0.0,0.0,0.0,0.0,0.0,0.0,0.0,0.0,0.0,0.0,0.0,0.0,0.0,0.0,0.0,0.0,0.0,0.0,0.0,0.0,0.0,0.0,0.0,0.0,0.0,0.0,0.0,0.0,0.0,0.0,0.0,0.0,0.0,0.0,0.0,0.0,0.0,0.0,0.0,0.0,0.0,0.0,0.0,0.0,0.0,0.0,0.0,0.0,0.0,0.0,0.0,0.0,-3.6033,-3.2974,-3.2831,0.0,-2.796,0.0,0.0,0.0,0.0,0.0,0.0,0.0,0.0,0.0,0.0,0.0,0.0,0.0,0.0,0.0,0.0,0.0,0.0,0.0,0.0,0.0,0.0,0.0,0.0,0.0,0.0,0.0,0.0,0.0,0.0,0.0,0.0,0.0,0.0,0.0,0.0,0.0,0.0,0.0,0.0,0.0,0.0,0.0,0.0,0.0,0.0,0.0,0.0,0.0,0.0,0.0,0.0,0.0,0.0,0.0,0.0,0.0,0.0,0.0,0.0,0.0,0.0,0.0,0.0,0.0,0.0,0.0,0.0,0.0,0.0,0.0,0.0,0.0,0.0,0.0,0.0,0.0,0.0,0.0,0.0,0.0,0.0,0.0,0.0,0.0,0.0,0.0,0.0,0.0,0.0,0.0,0.0,0.0,0.0,0.0,0.0,0.0,0.0,0.0,0.0,0.0,0.0,0.0,0.0,0.0,0.0,0.0,0.0,0.0,0.0,0.0,0.0,-3.2867,-3.1332,-2.8213,0.0,0.0,0.0,0.0,0.0,0.0,0.0,0.0,0.0,0.0,0.0,0.0,0.0,0.0,0.0,0.0,0.0,0.0,0.0,0.0,0.0,0.0,0.0,0.0,0.0,0.0,0.0,0.0,0.0,0.0,0.0,0.0,0.0,0.0,0.0,0.0,0.0,0.0,0.0,0.0,0.0,0.0,0.0,0.0,0.0,0.0,0.0,0.0,0.0,0.0,0.0,0.0,0.0,0.0,0.0,0.0,0.0,0.0,0.0,0.0,0.0,0.0,0.0,0.0,0.0,0.0,0.0,0.0,0.0,0.0,0.0,0.0,0.0,0.0,0.0,0.0,0.0,0.0,0.0,0.0,0.0,0.0,0.0,0.0,0.0,0.0,0.0,0.0,0.0,0.0,0.0,0.0,0.0,0.0,0.0,0.0,0.0,0.0,0.0,0.0,0.0,0.0,0.0,0.0,0.0,0.0,0.0,0.0,0.0,0.0,-3.527,-3.2925,-3.2154,-3.0669,-2.828,0.0,0.0,0.0,0.0,0.0,0.0,0.0,0.0,0.0,0.0,0.0,0.0,0.0,0.0,0.0,0.0,0.0,0.0,0.0,0.0,0.0,0.0,0.0,0.0,0.0,0.0,0.0,0.0,0.0,0.0,0.0,0.0,0.0,0.0,0.0,0.0,0.0,0.0,0.0,0.0,0.0,0.0,0.0,0.0,0.0,0.0,0.0,0.0,0.0,0.0,0.0,0.0,0.0,0.0,0.0,0.0,0.0,0.0,0.0,0.0,0.0,0.0,0.0,0.0,0.0,0.0,0.0,0.0,0.0,0.0,0.0,0.0,0.0,0.0,0.0,0.0,0.0,0.0,0.0,0.0,0.0,0.0,0.0,0.0,0.0,0.0,0.0,0.0,0.0,0.0,0.0,0.0,0.0,0.0,0.0,0.0,0.0,0.0,0.0,0.0,0.0,0.0,0.0,0.0,0.0,0.0,0.0,0.0,0.0,0.0,0.0,0.0,0.0,0.0,-2.8269,0.0,0.0,0.0,0.0,0.0,0.0,0.0,0.0,0.0,0.0,0.0,0.0,0.0,0.0,0.0,0.0,0.0,0.0,0.0,0.0,0.0,0.0,0.0,0.0,0.0,0.0,0.0,0.0,0.0,0.0,0.0,0.0,0.0,0.0,0.0,0.0,0.0,0.0,0.0,0.0,0.0,0.0,0.0,0.0,0.0,0.0,0.0,0.0,0.0,0.0,0.0,0.0,0.0,0.0,0.0,0.0,0.0,0.0,0.0,0.0,0.0,0.0,0.0,0.0,0.0,0.0,0.0,0.0,0.0,0.0,0.0,0.0,0.0,0.0,0.0,0.0,0.0,0.0,0.0,0.0,0.0,0.0,0.0,0.0,0.0,0.0,0.0,0.0,0.0,0.0,0.0,0.0,0.0,0.0,0.0,0.0,0.0,0.0,0.0,0.0,0.0,0.0,0.0,0.0,0.0,0.0,0.0,0.0,0.0,0.0,0.0,0.0,0.0,0.0,0.0,0.0,0.0,0.0,0.0,0.0,0.0,0.0,0.0,0.0,0.0,0.0,0.0,0.0,0.0,0.0,0.0,0.0,0.0,0.0,0.0,0.0,0.0,0.0,0.0,0.0,0.0,0.0,0.0,0.0,0.0,0.0,0.0,0.0,0.0,0.0,0.0,0.0,0.0,0.0,0.0,0.0,0.0,0.0,0.0,0.0,0.0,0.0,0.0,0.0,0.0,0.0,0.0,0.0,0.0,0.0,0.0,0.0,0.0,0.0,0.0,0.0,0.0,0.0,0.0,0.0,0.0,0.0,0.0,0.0,0.0,0.0,0.0,0.0,0.0,0.0,0.0,0.0,0.0,0.0,0.0,0.0,0.0,0.0,0.0,0.0,0.0,0.0,0.0,0.0,0.0,0.0,0.0,0.0,0.0,0.0,0.0,0.0,0.0,0.0,0.0,0.0,0.0,0.0,0.0,0.0,0.0,0.0,0.0,0.0,0.0,0.0,0.0,0.0,0.0,0.0,0.0,0.0,0.0,0.0,0.0,0.0,0.0,0.0,0.0,0.0,0.0,0.0,0.0,0.0,0.0,0.0,0.0,0.0,0.0,0.0,0.0,0.0,0.0,0.0,0.0,0.0,0.0,0.0,0.0,0.0,0.0,0.0,0.0,0.0,0.0,0.0,0.0,0.0,0.0,0.0,0.0,0.0,0.0,0.0,0.0,0.0,0.0,0.0,0.0,0.0,0.0,0.0,0.0,0.0,0.0,0.0,0.0,0.0,0.0,0.0,0.0,0.0,0.0,0.0,0.0,0.0,0.0,0.0,0.0,0.0,0.0,0.0,0.0,0.0,0.0,0.0,0.0,0.0,0.0,0.0,0.0,0.0,0.0,0.0,0.0,0.0,0.0,0.0,0.0,0.0,0.0,0.0,0.0,0.0,0.0,0.0,0.0,0.0,0.0,0.0,0.0,0.0,0.0,0.0,0.0,0.0,0.0,0.0,0.0,0.0,0.0,0.0,0.0,0.0,0.0,0.0,0.0,0.0,0.0,0.0,0.0,0.0,0.0,0.0,0.0,0.0,0.0,0.0,0.0,0.0,0.0,0.0,0.0,0.0,0.0,0.0,0.0,0.0,0.0,0.0,0.0,0.0,0.0,0.0,0.0,0.0,0.0,0.0,0.0,0.0,0.0,0.0,0.0,0.0,0.0,0.0,0.0,0.0,0.0,0.0,0.0,0.0,0.0,0.0,0.0,0.0,0.0,0.0,0.0,0.0,0.0,0.0,0.0,0.0,0.0,0.0,0.0,0.0,0.0,0.0,0.0,0.0,0.0,0.0,0.0,0.0,0.0,0.0,0.0,0.0,0.0,0.0,0.0,0.0,0.0,0.0,0.0,0.0,0.0,0.0,0.0,0.0,0.0,0.0,0.0,0.0,0.0,0.0,0.0,0.0,0.0,0.0,0.0,0.0,0.0,0.0,0.0,0.0,0.0,0.0,0.0,0.0,0.0,0.0,0.0,0.0,0.0,0.0,0.0,0.0,0.0,0.0,0.0,0.0,0.0,0.0,0.0,0.0,0.0,0.0,0.0,0.0,0.0,0.0,0.0,0.0,0.0,0.0,0.0,0.0,0.0,0.0,0.0,0.0,0.0,0.0,0.0,0.0,0.0,0.0,0.0,0.0,0.0,0.0,0.0,0.0,0.0,0.0,0.0,0.0,0.0,0.0,0.0,0.0,0.0,0.0,0.0,0.0,0.0,0.0,0.0,0.0,0.0,0.0,0.0,0.0,0.0,0.0,0.0,0.0,0.0,0.0,0.0,0.0,0.0,0.0,0.0,0.0,0.0,0.0,0.0,0.0,0.0,0.0,0.0,0.0,0.0,0.0,0.0,0.0,0.0,0.0,0.0,0.0,0.0,0.0,0.0,0.0,0.0,0.0,0.0,0.0,0.0,0.0,0.0,0.0,0.0,0.0,0.0,0.0,0.0,0.0,0.0,0.0,0.0,0.0,0.0,0.0,0.0,0.0,0.0,0.0,0.0,0.0,0.0,0.0,0.0,0.0,0.0,0.0,0.0,0.0,0.0,0.0,0.0,0.0,0.0,0.0,0.0,0.0,0.0,0.0,0.0,0.0,0.0,0.0,0.0,0.0,0.0,0.0,0.0,0.0,0.0,0.0,0.0,0.0,0.0,0.0,0.0,0.0,0.0,0.0,0.0,0.0,0.0,0.0,0.0,0.0,0.0,0.0,0.0,0.0,0.0,0.0,0.0,0.0,0.0,0.0,0.0,0.0,0.0,0.0,0.0,0.0,0.0,0.0,0.0,0.0,0.0,0.0,0.0,0.0,0.0,0.0,0.0,0.0,0.0,0.0,0.0,0.0,0.0,0.0,0.0,0.0,0.0,0.0,0.0,0.0,0.0,0.0,0.0,0.0,0.0,0.0,0.0,0.0,0.0,0.0,0.0,0.0,0.0,0.0,0.0,0.0,0.0,0.0,0.0,0.0,0.0,0.0,0.0,0.0,0.0,0.0,0.0,0.0,0.0,0.0,0.0,0.0,0.0,0.0,0.0,0.0,0.0,0.0,0.0,0.0,0.0,0.0,0.0,0.0,0.0,0.0,0.0,0.0,0.0,0.0,0.0,0.0,0.0,0.0,0.0,0.0,0.0,0.0,0.0,0.0,0.0,0.0,0.0,0.0,0.0,0.0,0.0,0.0,0.0,0.0,0.0,0.0,0.0,0.0,0.0,0.0,0.0,0.0,0.0,0.0,0.0,0.0,0.0,0.0,0.0,0.0,0.0,0.0,0.0,0.0,0.0,0.0,0.0,0.0,0.0,0.0,0.0,0.0,0.0,0.0,0.0,0.0,0.0,0.0,0.0,0.0,0.0,0.0,0.0,0.0,0.0,0.0,0.0,0.0,0.0,0.0,0.0,0.0,0.0,0.0,0.0,0.0,0.0,0.0,0.0,0.0,0.0,0.0,0.0,0.0,0.0,0.0,0.0,0.0,0.0,0.0,0.0,0.0,0.0,0.0,0.0,0.0,0.0,0.0,0.0,0.0,0.0,0.0,0.0,0.0,0.0,0.0,0.0,0.0,0.0,0.0,0.0,0.0,0.0,0.0,0.0,0.0,0.0,0.0,0.0,0.0,0.0,0.0,0.0,0.0,0.0,0.0,0.0,0.0,0.0,0.0,0.0,0.0,0.0,0.0,0.0,0.0,0.0,0.0,0.0,0.0,0.0,0.0,0.0,0.0,0.0,0.0,0.0,0.0,0.0,0.0,0.0,0.0,0.0,0.0,0.0,0.0,0.0,0.0,0.0,0.0,0.0,0.0,0.0,0.0,0.0,0.0,0.0,0.0,0.0,0.0,0.0,0.0,0.0,0.0,0.0,0.0,0.0,0.0,0.0,0.0,0.0,0.0,0.0,0.0,0.0,0.0,0.0,0.0,0.0,0.0,0.0,0.0,0.0,0.0,0.0,0.0,0.0,0.0,0.0,0.0,0.0,0.0,0.0,0.0,0.0,0.0,0.0,0.0,0.0,0.0,0.0,0.0,0.0,0.0,0.0,0.0,0.0,0.0,0.0,0.0,0.0,0.0,0.0,0.0,0.0,0.0,0.0,0.0,0.0,0.0,0.0,0.0,0.0,0.0,0.0,0.0,0.0,0.0,0.0,0.0,0.0,0.0,0.0,0.0,0.0,0.0,0.0,0.0,0.0,0.0,0.0,0.0,0.0,0.0,0.0,0.0,0.0,0.0,0.0,0.0,0.0,0.0,0.0,0.0,0.0,0.0,0.0,0.0,0.0,0.0,0.0,0.0,0.0,0.0,0.0,0.0,0.0,0.0,0.0,0.0,0.0,0.0,0.0,0.0]}],[{"header":{"parameterUnit":"kt","parameterCategory":2,"dx":1,"dy":1,"la1":29.587661999999998,"la2":31.0,"lo1":-88.76705300000003,"lo2":-86.6583820000003,"nx":115,"ny":88,"refTime":"2022-10-20T06:00:00:Z","depth":0,"parameterNumber":2,"parameterNumberName":"V-component_of_WINDS"},"data":[11.8595,11.7609,11.7017,11.5176,11.2743,11.2513,11.2513,11.2513,11.2513,11.2513,11.2513,11.2513,11.2513,11.2513,11.2513,11.2513,11.2513,11.2513,11.2513,11.2513,11.2513,11.2513,11.2513,11.2513,11.2513,11.2513,11.2513,11.2513,11.2513,11.2513,11.2513,11.2513,11.2513,11.2513,11.2513,11.2513,11.248,11.2315,11.2118,11.1165,10.9488,10.7712,10.5542,10.4589,10.403,10.403,10.403,10.403,10.403,10.403,10.416,10.4705,10.4893,10.4863,10.4926,10.5453,10.5604,10.5604,10.6026,10.7109,10.7964,10.9039,10.9966,11.0643,11.1578,11.2001,11.1602,11.1602,11.2001,11.2001,11.2267,11.2267,11.2656,11.2656,11.2701,11.2701,11.2701,11.2701,11.2701,11.2701,11.2701,11.2701,11.2701,11.2701,11.2701,11.2558,11.2558,11.1737,11.0881,10.9632,10.8348,10.7064,10.5708,10.4495,10.3669,10.3455,10.3384,10.3384,10.3384,10.3384,10.3384,10.3384,10.2997,10.2533,10.2462,10.214,10.1106,9.9857,9.8755,9.7755,9.6756,9.5754,9.472,9.4113,9.4292,11.9713,12.0239,11.7872,11.5143,11.2743,11.2513,11.2513,11.2513,11.2513,11.2513,11.2513,11.2513,11.2513,11.2513,11.2513,11.2513,11.2513,11.2513,11.2513,11.2513,11.2513,11.2513,11.2513,11.2513,11.2513,11.2513,11.2513,11.2513,11.2513,11.2513,11.2513,11.2513,11.2513,11.2513,11.2513,11.2513,11.2513,11.2282,11.1362,11.008,10.8501,10.6923,10.5411,10.4457,10.403,10.403,10.403,10.403,10.403,10.403,10.4062,10.4257,10.429,10.4257,10.4386,10.4386,10.4577,10.4577,10.4672,10.5755,10.6353,10.7109,10.8041,10.9111,11.0393,11.0458,10.9828,10.9931,11.0544,11.0877,11.1267,11.159,11.2257,11.2611,11.2656,11.2701,11.2701,11.2701,11.2701,11.2701,11.2701,11.2701,11.2701,11.2701,11.2594,11.2379,11.1916,11.1095,10.9989,10.8348,10.7028,10.5779,10.478,10.4204,10.3562,10.3384,10.3384,10.3384,10.3384,10.3384,10.3312,10.292,10.2533,10.1962,10.107,10.0499,9.9536,9.8612,9.7648,9.6613,9.5647,9.4755,9.3935,9.3935,9.3935,12.0009,12.0831,11.8069,11.5176,11.2809,11.2513,11.2513,11.2513,11.2513,11.2513,11.2513,11.2513,11.2513,11.2513,11.2513,11.2513,11.2513,11.2513,11.2513,11.2513,11.2513,11.2513,11.2513,11.2513,11.2513,11.2513,11.2513,11.2513,11.2513,11.2513,11.2513,11.2513,11.2513,11.2513,11.2513,11.2513,11.2513,11.2414,11.1165,10.9323,10.7088,10.5805,10.4523,10.4326,10.403,10.403,10.403,10.403,10.403,10.403,10.403,10.403,10.403,10.403,10.403,10.403,10.403,10.403,10.416,10.4705,10.5299,10.6147,10.6993,10.7704,10.8986,10.8387,10.7738,10.8462,10.9039,10.9305,10.9725,11.0842,11.1542,11.2165,11.2303,11.2566,11.2701,11.2701,11.2701,11.2701,11.2701,11.2701,11.2665,11.2629,11.2023,11.1773,11.1238,11.0417,10.8384,10.6529,10.5601,10.4638,10.4061,10.3526,10.3384,10.3384,10.3384,10.3384,10.3384,10.3384,10.3312,10.2747,10.1926,10.1142,10.0285,9.9251,9.8252,9.747,9.6506,9.5612,9.4684,9.3935,9.3935,9.3935,9.4506,12.0305,12.0963,11.8069,11.5143,11.271,11.2513,11.2513,11.2513,11.2513,11.2513,11.2513,11.2513,11.2513,11.2513,11.2513,11.2513,11.2513,11.2513,11.2513,11.2513,11.2513,11.2513,11.2513,11.2513,11.2513,11.2513,11.2513,11.2513,11.2513,11.2513,11.2513,11.2513,11.2513,11.2513,11.2513,11.2513,11.2151,11.1658,11.0343,10.8468,10.6463,10.5016,10.403,10.403,10.403,10.403,10.403,10.403,10.403,10.403,10.403,10.403,10.403,10.403,10.403,10.403,10.403,10.403,10.4062,10.4225,10.4611,10.5266,10.5694,10.6557,10.6793,10.6086,10.6086,10.691,10.7454,10.7682,10.8152,10.9621,11.0828,11.1351,11.185,11.2303,11.2701,11.2701,11.2701,11.2701,11.2701,11.2665,11.2629,11.2237,11.1559,11.0881,11.0275,10.8848,10.6707,10.5423,10.4531,10.4061,10.3491,10.3384,10.3384,10.3384,10.3384,10.3384,10.3384,10.3384,10.3384,10.2247,10.0963,10.025,9.9108,9.761,9.6468,9.6042,9.5505,9.4684,9.3935,9.3935,9.3935,9.4006,9.4934,12.116,12.1028,11.8036,11.5242,11.2743,11.2513,11.2513,11.2513,11.2513,11.2513,11.2513,11.2513,11.2513,11.2513,11.2513,11.2513,11.2513,11.2513,11.2513,11.2513,11.2513,11.2513,11.2513,11.2513,11.2513,11.2513,11.2513,11.2513,11.2513,11.2513,11.2513,11.2513,11.2513,11.2513,11.2513,11.2513,11.1756,11.0704,10.9126,10.7646,10.597,10.4885,10.403,10.403,10.403,10.403,10.403,10.403,10.403,10.403,10.403,10.403,10.403,10.403,10.403,10.403,10.403,10.403,10.403,10.403,10.4225,10.4192,10.4192,10.5112,10.5481,10.5112,10.4799,10.5299,10.5999,10.6267,10.6852,10.8075,10.9093,10.976,11.0842,11.1897,11.2303,11.2566,11.2575,11.2629,11.2558,11.213,11.1987,11.0917,11.0132,10.9561,10.8598,10.685,10.5316,10.4495,10.3919,10.3562,10.3384,10.3384,10.3384,10.3384,10.3384,10.3384,10.3384,10.3384,10.3241,10.1891,10.0147,9.8826,9.7538,9.6004,9.5077,9.4827,9.4434,9.3935,9.3935,9.3935,9.4006,9.4113,9.4934,12.0502,12.0798,11.8036,11.6228,11.4913,11.3269,11.2513,11.2513,11.2513,11.2513,11.2513,11.2513,11.2513,11.2513,11.2513,11.2513,11.2513,11.2513,11.2513,11.2513,11.2513,11.2513,11.2513,11.2513,11.2513,11.2513,11.2513,11.2513,11.2513,11.2513,11.2513,11.2513,11.2513,11.2513,11.2447,11.225,11.1263,10.9488,10.7778,10.6298,10.5213,10.4293,10.4063,10.403,10.403,10.403,10.403,10.403,10.403,10.403,10.403,10.403,10.403,10.403,10.403,10.403,10.403,10.403,10.403,10.403,10.403,10.3997,10.4062,10.4386,10.4418,10.4482,10.4225,10.3997,10.4546,10.5082,10.5789,10.6472,10.7259,10.8075,10.9708,11.1351,11.1897,11.2303,11.2494,11.2594,11.2165,11.1702,11.0774,10.9668,10.8741,10.792,10.6671,10.528,10.4495,10.3889,10.3562,10.3384,10.3384,10.3384,10.3384,10.3384,10.3384,10.3384,10.3384,10.3277,10.3139,10.1962,10.0071,9.818,9.6218,9.5255,9.447,9.4042,9.3935,9.3935,9.3935,9.3935,9.3971,9.4072,9.478,12.0371,12.093,11.8069,11.682,11.6392,11.3729,11.2513,11.2513,11.2513,11.2513,11.2513,11.2513,11.2513,11.2513,11.2513,11.2513,11.2513,11.2513,11.2513,11.2513,11.2513,11.2513,11.2513,11.2513,11.2513,11.2513,11.2513,11.2513,11.2513,11.2513,11.2513,11.2513,11.2513,11.2513,11.2348,11.2085,11.0375,10.8666,10.7055,10.5641,10.449,10.4063,10.4063,10.403,10.403,10.403,10.403,10.403,10.403,10.403,10.403,10.403,10.403,10.403,10.403,10.403,10.403,10.403,10.403,10.403,10.403,10.403,10.403,10.403,10.403,10.4062,10.4062,10.403,10.4225,10.4386,10.4863,10.5727,10.6591,10.7795,10.9358,11.0594,11.1254,11.1814,11.2611,11.2451,11.1452,11.081,10.9561,10.8419,10.7135,10.6136,10.5244,10.4495,10.3853,10.3598,10.3384,10.3384,10.3384,10.3384,10.3384,10.3384,10.3384,10.3384,10.3348,10.3318,10.2497,10.1249,9.9821,9.7966,9.5754,9.4577,9.3933,9.3935,9.3935,9.3935,9.3569,9.3753,9.3894,9.3941,9.4383,12.1226,12.0831,11.8069,11.682,11.6327,11.3729,11.2513,11.2513,11.2513,11.2513,11.2513,11.2513,11.2513,11.2513,11.2513,11.2513,11.2513,11.2513,11.2513,11.2513,11.2513,11.2513,11.2513,11.2513,11.2513,11.2513,11.2513,11.2513,11.2513,11.2513,11.2513,11.2513,11.2513,11.2315,11.1789,11.1066,10.9553,10.8008,10.6463,10.5148,10.4293,10.403,10.403,10.403,10.403,10.403,10.403,10.403,10.403,10.403,10.403,10.403,10.403,10.403,10.403,10.403,10.403,10.403,10.403,10.403,10.403,10.403,10.403,10.403,10.403,10.403,10.403,10.403,10.403,10.403,10.403,10.4893,10.5816,10.7027,10.8606,10.9464,11.0206,11.1316,11.214,11.1737,11.074,10.9632,10.8384,10.6992,10.5672,10.4923,10.4495,10.3853,10.3598,10.3384,10.3384,10.3384,10.3384,10.3384,10.3384,10.3384,10.3384,10.3384,10.3348,10.2569,10.1213,10.0,9.8716,9.7217,9.5184,9.4147,9.3858,9.3787,9.3787,9.3387,9.2908,9.276,9.1939,9.2368,9.2303,12.1291,12.093,11.8069,11.682,11.6359,11.3729,11.2513,11.2513,11.2513,11.2513,11.2513,11.2513,11.2513,11.2513,11.2513,11.2513,11.2513,11.2513,11.2513,11.2513,11.2513,11.2513,11.2513,11.2513,11.2513,11.2513,11.2513,11.2513,11.2513,11.2513,11.2513,11.2513,11.248,11.2118,11.1066,10.9915,10.8468,10.7055,10.5772,10.4556,10.426,10.403,10.403,10.403,10.403,10.403,10.403,10.403,10.403,10.403,10.403,10.403,10.403,10.403,10.403,10.403,10.403,10.403,10.403,10.403,10.403,10.403,10.403,10.403,10.403,10.403,10.403,10.403,10.403,10.403,10.403,10.4062,10.4705,10.4956,10.6207,10.7075,10.8062,11.0132,11.1068,11.0293,10.937,10.8301,10.7099,10.5708,10.4566,10.4174,10.3817,10.3598,10.3419,10.3384,10.3384,10.3384,10.3419,10.3342,10.3342,10.3224,10.3182,10.3384,10.264,10.1712,10.0241,9.8237,9.7454,9.6363,9.4818,9.3707,9.3674,9.345,9.3182,9.2773,9.1885,9.0834,9.0116,8.9827,8.9604,12.1291,12.1028,11.8069,11.6557,11.5768,11.3499,11.2513,11.2513,11.2513,11.2513,11.2513,11.2513,11.2513,11.2513,11.2513,11.2513,11.2513,11.2513,11.2513,11.2513,11.2513,11.2513,11.2513,11.2513,11.2513,11.2513,11.2513,11.2513,11.2513,11.2513,11.2513,11.2513,11.2447,11.1987,11.0934,10.9126,10.7581,10.6134,10.4852,10.403,10.403,10.403,10.403,10.403,10.403,10.403,10.403,10.403,10.403,10.403,10.403,10.403,10.403,10.403,10.403,10.403,10.403,10.403,10.403,10.403,10.403,10.403,10.403,10.403,10.403,10.403,10.403,10.403,10.403,10.403,10.403,10.3997,10.4062,10.4322,10.479,10.5554,10.6124,10.8187,10.8997,10.8138,10.7932,10.6921,10.6172,10.5066,10.4174,10.3598,10.3562,10.3419,10.3224,10.3265,10.3141,10.3141,10.2895,10.3021,10.2979,10.2489,10.2323,10.2078,10.1361,10.0171,9.8345,9.6331,9.5174,9.3875,9.3542,9.326,9.3029,9.2791,9.2555,9.1367,8.9472,8.8215,8.7934,8.7668,8.7414,12.1226,12.0864,11.8069,11.6031,11.4716,11.317,11.2513,11.2513,11.2513,11.2513,11.2513,11.2513,11.2513,11.2513,11.2513,11.2513,11.2513,11.2513,11.2513,11.2513,11.2513,11.2513,11.2513,11.2513,11.2513,11.2513,11.2513,11.2513,11.2513,11.2513,11.2513,11.2513,11.2513,11.2381,11.2217,10.9718,10.7581,10.6068,10.4687,10.4128,10.403,10.403,10.403,10.403,10.403,10.403,10.403,10.403,10.403,10.403,10.403,10.403,10.403,10.403,10.403,10.403,10.403,10.403,10.403,10.403,10.403,10.403,10.403,10.403,10.403,10.403,10.403,10.403,10.403,10.403,10.403,10.403,10.403,10.4191,10.4683,10.5111,10.4918,10.5954,10.5749,10.5192,10.5368,10.566,10.5047,10.4447,10.355,10.3224,10.3342,10.3265,10.3028,10.2901,10.261,10.2359,10.1676,10.1766,10.1766,10.1506,10.1034,10.0668,9.9613,9.7675,9.5793,9.421,9.2619,9.1112,9.1106,9.1913,9.2032,9.2025,9.0681,8.9337,8.7327,8.6082,8.5884,8.5763,8.5834,12.07,11.9582,11.7642,11.5998,11.4617,11.317,11.2513,11.2513,11.2513,11.2513,11.2513,11.2513,11.2513,11.2513,11.2513,11.2513,11.2513,11.2513,11.2513,11.2513,11.2513,11.2513,11.2513,11.2513,11.2513,11.2513,11.2513,11.2513,11.2513,11.2513,11.2513,11.2513,11.2513,11.2447,11.1822,10.9751,10.7055,10.5213,10.4161,10.403,10.403,10.403,10.403,10.403,10.403,10.403,10.403,10.403,10.403,10.403,10.403,10.403,10.403,10.403,10.403,10.403,10.403,10.403,10.403,10.403,10.403,10.403,10.403,10.403,10.403,10.403,10.403,10.403,10.403,10.403,10.403,10.3832,10.3767,10.3372,10.3933,10.318,10.3098,10.3244,10.2902,10.2415,10.3197,10.3743,10.3313,10.3106,10.2367,10.2069,10.228,10.2489,10.2201,10.1856,10.1722,10.1149,10.042,10.042,10.0481,9.9755,9.9138,9.86,9.7134,9.5229,9.3508,9.2136,9.0552,8.9836,8.993,9.0538,9.0662,9.0562,8.9169,8.7384,8.5917,8.4493,8.4227,8.3714,8.383,12.0436,11.9023,11.7477,11.5702,11.3795,11.2907,11.2513,11.2513,11.2513,11.2513,11.2513,11.2513,11.2513,11.2513,11.2513,11.2513,11.2513,11.2513,11.2513,11.2513,11.2513,11.2513,11.2513,11.2513,11.2513,11.2513,11.2513,11.2513,11.2513,11.2513,11.2513,11.2513,11.2513,11.2282,11.123,10.9356,10.6825,10.4852,10.403,10.403,10.403,10.403,10.403,10.403,10.403,10.403,10.403,10.403,10.403,10.403,10.403,10.403,10.403,10.403,10.403,10.403,10.403,10.403,10.403,10.403,10.403,10.403,10.403,10.403,10.403,10.403,10.403,10.403,10.403,10.403,10.3832,10.3471,10.3109,10.2747,10.199,10.0899,10.0651,10.1008,10.0817,10.0054,10.0627,10.1582,10.171,10.1686,10.1288,10.0882,10.1334,10.1551,10.0929,10.0551,10.0372,9.995,9.91,9.8844,9.955,9.8546,9.7252,9.6014,9.4602,9.2802,9.1069,8.9765,8.9189,8.9092,8.9043,8.9348,8.9444,8.9106,8.7942,8.6049,8.4464,8.3119,8.2264,8.1598,8.2785,12.0404,11.8858,11.728,11.5044,11.2578,11.2513,11.2513,11.2513,11.2513,11.2513,11.2513,11.2513,11.2513,11.2513,11.2513,11.2513,11.2513,11.2513,11.2513,11.2513,11.2513,11.2513,11.2513,11.2513,11.2513,11.2513,11.2513,11.2513,11.2513,11.2513,11.2513,11.2414,11.2151,11.146,11.0408,10.883,10.6496,10.5082,10.4096,10.403,10.403,10.403,10.403,10.403,10.403,10.403,10.403,10.403,10.403,10.403,10.403,10.403,10.403,10.403,10.403,10.403,10.403,10.403,10.403,10.403,10.403,10.403,10.403,10.403,10.403,10.403,10.403,10.403,10.403,10.3964,10.3274,10.2682,10.1958,10.1334,10.038,9.9328,9.8999,9.9186,9.8554,9.7783,9.8139,9.9238,9.9554,9.9901,9.9654,9.9404,9.9753,10.0516,9.9901,9.9354,9.9151,9.8427,9.7552,9.7545,9.8293,9.6993,9.495,9.3407,9.2312,9.0673,8.9056,8.8172,8.7522,8.7541,8.7941,8.8146,8.8231,8.7356,8.6228,8.4586,8.3086,8.1672,8.062,8.062,8.1935,11.9746,11.7313,11.5833,11.4222,11.2545,11.2513,11.2513,11.2513,11.2513,11.2513,11.2513,11.2513,11.2513,11.2513,11.2513,11.2513,11.2513,11.2513,11.2513,11.2513,11.2513,11.2513,11.2513,11.2513,11.2513,11.2513,11.2513,11.2513,11.2513,11.2513,11.2513,11.248,11.1691,11.0803,10.9817,10.8107,10.6463,10.5181,10.4391,10.403,10.403,10.403,10.403,10.403,10.403,10.403,10.403,10.403,10.403,10.403,10.403,10.403,10.403,10.403,10.403,10.403,10.403,10.403,10.403,10.403,10.403,10.403,10.403,10.403,10.403,10.403,10.403,10.403,10.3931,10.3241,10.2484,10.1925,10.0972,9.9887,9.8835,9.8112,9.7478,9.7049,9.6503,9.6401,9.6934,9.764,9.7877,9.8163,9.8163,9.7984,9.848,9.9252,9.8895,9.8269,9.766,9.6685,9.5922,9.5696,9.5469,9.4177,9.2456,9.095,9.0066,8.8853,8.7908,8.7049,8.6691,8.6691,8.695,8.7072,8.6956,8.5735,8.45,8.3217,8.1869,8.0324,7.9633,8.0061,8.1113,11.899,11.6721,11.5307,11.3861,11.2611,11.2513,11.2513,11.2513,11.2513,11.2513,11.2513,11.2513,11.2513,11.2513,11.2513,11.2513,11.2513,11.2513,11.2513,11.2513,11.2513,11.2513,11.2513,11.2513,11.2513,11.2513,11.2513,11.2513,11.2513,11.2513,11.2513,11.2282,11.123,11.0178,10.9159,10.7219,10.6035,10.5148,10.4523,10.4063,10.403,10.403,10.403,10.403,10.403,10.403,10.403,10.403,10.403,10.403,10.403,10.403,10.403,10.403,10.403,10.403,10.403,10.403,10.403,10.403,10.403,10.403,10.403,10.403,10.403,10.403,10.403,10.3964,10.3438,10.2682,10.186,10.0577,9.9558,9.8539,9.7355,9.6698,9.6139,9.5415,9.5311,9.5576,9.5863,9.6179,9.6491,9.6685,9.6685,9.6572,9.699,9.7476,9.7234,9.7012,9.6262,9.5218,9.4791,9.41,9.3147,9.1996,9.0555,8.9656,8.8721,8.7865,8.6889,8.6691,8.6691,8.6691,8.6494,8.6099,8.5605,8.4697,8.3513,8.2132,8.0686,7.9633,7.8762,7.9239,8.0521,11.8102,11.6688,11.511,11.3729,11.2611,11.2513,11.2513,11.2513,11.2513,11.2513,11.2513,11.2513,11.2513,11.2513,11.2513,11.2513,11.2513,11.2513,11.2513,11.2513,11.2513,11.2513,11.2513,11.2513,11.2513,11.2513,11.2513,11.2513,11.2513,11.2513,11.2447,11.1822,11.0638,10.9455,10.8041,10.6331,10.5279,10.4293,10.4063,10.38,10.3569,10.3404,10.3701,10.3866,10.403,10.403,10.403,10.403,10.403,10.403,10.403,10.403,10.403,10.403,10.403,10.403,10.403,10.403,10.403,10.403,10.403,10.403,10.403,10.403,10.403,10.403,10.3865,10.3832,10.2616,10.1564,10.0446,9.8868,9.7684,9.6829,9.6237,9.5711,9.5448,9.5284,9.5284,9.5457,9.5517,9.5517,9.5517,9.5371,9.5284,9.5284,9.5311,9.5457,9.5517,9.5779,9.5311,9.4988,9.4593,9.3147,9.1938,9.0582,8.9356,8.8566,8.7777,8.6921,8.6691,8.6691,8.6691,8.656,8.6111,8.5782,8.4828,8.371,8.2527,8.1244,7.9929,7.896,7.8055,7.896,7.9962,11.7116,11.659,11.4058,11.2776,11.2545,11.2513,11.2513,11.2513,11.2513,11.2513,11.2513,11.2513,11.2409,11.2409,11.2409,11.2409,11.2513,11.2513,11.2513,11.2513,11.2513,11.2513,11.2513,11.2513,11.2513,11.2513,11.2513,11.2513,11.2348,11.2315,11.1789,11.0527,10.9353,10.8008,10.6458,10.4912,10.4589,10.403,10.3931,10.3005,10.1925,10.1617,10.2231,10.38,10.403,10.403,10.403,10.403,10.403,10.403,10.403,10.403,10.403,10.403,10.403,10.403,10.403,10.403,10.403,10.403,10.403,10.403,10.403,10.403,10.403,10.3931,10.3537,10.2419,10.1564,10.0742,9.8901,9.775,9.6895,9.6073,9.5547,9.5284,9.5284,9.5284,9.5284,9.5284,9.5251,9.5311,9.5371,9.5284,9.5284,9.5284,9.5284,9.5284,9.5284,9.5284,9.5054,9.4758,9.4035,9.2489,9.0812,8.9464,8.8346,8.7722,8.7119,8.6691,8.6691,8.6691,8.6691,8.6658,8.6078,8.5026,8.3842,8.2672,8.1475,8.0258,7.9157,7.8252,7.7676,7.8117,7.8745,11.682,11.6524,11.3729,11.2513,11.2513,11.2513,11.2513,11.2513,11.2513,11.1948,11.1199,11.0874,11.0505,10.9651,10.9468,11.0101,11.1053,11.1876,11.2513,11.2513,11.2513,11.2513,11.2513,11.2513,11.2513,11.248,11.2447,11.2217,11.1592,11.1423,11.0011,10.8249,10.6433,10.4871,10.341,10.2737,10.2018,10.1372,10.182,10.1479,9.9685,9.9541,10.0574,10.2264,10.3304,10.3931,10.403,10.403,10.403,10.403,10.403,10.403,10.403,10.403,10.403,10.403,10.403,10.403,10.403,10.403,10.403,10.403,10.403,10.403,10.403,10.3865,10.3339,10.186,10.084,9.8901,9.752,9.6731,9.6073,9.5415,9.5284,9.5284,9.5284,9.5284,9.5284,9.5284,9.5284,9.5284,9.5284,9.5284,9.5284,9.5284,9.5284,9.5284,9.5284,9.5087,9.4824,9.4593,9.4232,9.2325,9.0155,8.8642,8.7349,8.7086,8.6691,8.6691,8.6691,8.6691,8.6691,8.6428,8.5387,8.4335,8.3033,8.1588,8.039,7.919,7.835,7.7724,7.7195,7.6919,7.7111,11.6688,11.6261,11.3631,11.2267,11.202,11.1948,11.1627,11.1587,11.1159,11.0431,10.8839,10.8685,10.7754,10.6725,10.6193,10.7361,10.9737,11.1522,11.2267,11.1771,11.2442,11.2513,11.2513,11.248,11.1719,11.151,11.032,10.9421,10.8882,10.8939,10.6877,10.4623,10.3182,10.1804,10.0679,10.0058,9.9757,9.9178,9.9757,9.9396,9.8113,9.8039,9.9219,10.1067,10.2468,10.3404,10.3767,10.403,10.403,10.403,10.403,10.403,10.403,10.403,10.403,10.403,10.403,10.403,10.403,10.403,10.403,10.403,10.403,10.403,10.3931,10.3668,10.2846,10.1301,9.9394,9.7355,9.7059,9.6073,9.5383,9.5284,9.5284,9.5284,9.5284,9.5284,9.5284,9.5284,9.5284,9.5284,9.5284,9.5284,9.5284,9.5284,9.5251,9.5251,9.4922,9.4561,9.4166,9.3936,9.3739,9.1338,8.9464,8.7886,8.6856,8.6724,8.6691,8.6691,8.6691,8.6691,8.6231,8.5552,8.4697,8.3362,8.1949,8.0587,7.9469,7.8548,7.7823,7.7047,7.632,7.5674,7.5724,11.6129,11.488,11.3236,11.145,10.9887,10.9737,10.8871,10.7361,10.7075,10.7313,10.6645,10.6596,10.6243,10.6031,10.5787,10.7203,10.9176,11.0947,11.0874,11.0069,11.1159,11.1732,11.1778,11.1235,10.9705,10.5613,10.5056,10.4361,10.3983,10.3337,10.3087,10.1213,10.053,9.9363,9.8524,9.8325,9.7964,9.7513,9.7964,9.7437,9.5823,9.6828,9.8411,10.0116,10.1308,10.2299,10.3404,10.3931,10.403,10.403,10.403,10.403,10.403,10.403,10.403,10.403,10.403,10.403,10.403,10.403,10.403,10.403,10.403,10.403,10.3635,10.2879,10.2024,10.0709,9.9164,9.6928,9.5744,9.535,9.5317,9.5284,9.5284,9.5284,9.5284,9.5284,9.5284,9.5284,9.5284,9.5284,9.5284,9.5284,9.5284,9.5251,9.5251,9.5054,9.4363,9.3739,9.2818,9.2358,9.0549,8.8281,8.8379,8.736,8.6823,8.6691,8.6691,8.6691,8.6691,8.6362,8.5749,8.4993,8.3625,8.2094,8.0631,7.9196,7.8361,7.8022,7.7047,7.582,7.5047,7.4562,7.4648,11.3655,11.2834,11.0261,10.8486,10.7676,10.7597,10.7044,10.6274,10.6112,10.5541,10.4549,10.4382,10.3654,10.2658,10.2744,10.3878,10.5725,10.6933,10.7408,10.8035,10.8531,10.9208,10.9036,10.7499,10.6038,10.3768,10.2412,10.1804,10.1259,10.1055,9.9726,9.7532,9.7254,9.6558,9.5059,9.5776,9.5776,9.5256,9.5619,9.5304,9.3661,9.4359,9.5697,9.7406,9.987,10.1206,10.2468,10.3304,10.3866,10.3734,10.3005,10.277,10.3668,10.403,10.403,10.403,10.403,10.403,10.403,10.403,10.403,10.403,10.403,10.3602,10.2715,10.2156,10.1104,9.9492,9.8144,9.6796,9.5481,9.5284,9.5284,9.5284,9.5284,9.5284,9.5284,9.5284,9.5284,9.5284,9.5284,9.5284,9.5284,9.5284,9.5218,9.4922,9.4889,9.4035,9.3318,9.1503,9.0779,8.999,8.782,8.6965,8.7426,8.7294,8.6724,8.6691,8.6691,8.6691,8.6144,8.5619,8.5061,8.3855,8.2455,8.0875,7.8923,7.7749,7.6552,7.6061,7.5346,7.4312,7.3482,7.2892,7.2896,11.0646,11.0139,10.7306,10.5868,10.5429,10.5429,10.513,10.4549,10.4633,10.3485,10.2428,10.211,10.1203,9.9734,10.0068,10.0699,10.3088,10.2744,10.3496,10.5415,10.5539,10.4999,10.3386,10.1624,10.0468,10.0094,10.01,9.9332,9.8438,9.763,9.6827,9.4589,9.4377,9.3527,9.249,9.3661,9.3334,9.2544,9.3445,9.3445,9.2323,9.2323,9.3011,9.449,9.7557,9.9622,10.0856,10.2062,10.287,10.287,10.2062,10.2095,10.3536,10.403,10.403,10.403,10.403,10.403,10.403,10.403,10.403,10.3931,10.3569,10.2978,10.1761,10.1136,9.9525,9.8079,9.7059,9.6336,9.5448,9.5284,9.5284,9.5284,9.5284,9.5284,9.5284,9.5284,9.5284,9.5284,9.5284,9.5284,9.5284,9.5284,9.4988,9.4626,9.3936,9.2924,9.1141,8.9037,8.8642,8.8609,8.7097,8.6823,8.7064,8.6987,8.6691,8.6691,8.6691,8.6604,8.5236,8.4364,8.2611,8.1511,8.0806,7.8997,7.6835,7.56,7.5047,7.4124,7.332,7.2778,7.2144,7.1264,7.0902,10.7827,10.6653,10.6255,10.4965,10.3344,10.3174,10.2255,10.0549,10.0639,10.0399,10.0129,9.9977,9.9887,9.9581,9.9407,10.064,10.2511,10.0612,10.1816,10.2793,10.274,10.0601,9.785,9.6199,9.5582,9.5321,9.362,9.3459,9.3814,9.3335,9.2661,9.2685,9.249,9.2101,9.2184,9.2184,9.2155,9.2017,9.246,9.2239,9.2017,9.1962,9.2214,9.2929,9.5018,9.7179,9.9292,9.9685,9.9757,10.1238,10.0965,10.1687,10.347,10.3931,10.3866,10.3767,10.3866,10.403,10.403,10.3997,10.3997,10.3635,10.2616,10.1794,10.1038,9.9427,9.798,9.7158,9.6172,9.5646,9.5284,9.5284,9.5284,9.5284,9.5284,9.5284,9.5284,9.5284,9.5284,9.5284,9.5284,9.5284,9.5284,9.5152,9.4758,9.3541,9.2719,9.1634,8.9892,8.8116,8.7459,8.7294,8.7086,8.6691,8.6691,8.6691,8.6691,8.6637,8.6637,8.5913,8.4542,8.2181,8.0327,7.8877,7.8257,7.6822,7.4877,7.4149,7.3694,7.2866,7.1855,7.1382,7.1025,7.0207,6.9806,10.4764,10.4161,10.283,10.1761,10.0937,10.0877,10.037,9.9643,9.9581,9.9581,9.9581,9.9581,9.9581,9.9465,9.8706,9.9017,9.9462,9.8107,9.8254,9.9303,9.8846,9.6773,9.4275,9.3125,9.2747,9.266,9.2308,9.1991,9.1962,9.1962,9.1962,9.1962,9.1962,9.1962,9.1962,9.1962,9.1962,9.1962,9.1962,9.1962,9.1962,9.1962,9.1962,9.2184,9.271,9.4329,9.7027,9.7783,9.8853,9.987,9.8822,9.8895,10.1687,10.2131,10.2231,10.2231,10.3371,10.403,10.403,10.403,10.3602,10.2715,10.2156,10.0939,9.9328,9.8243,9.6862,9.6336,9.5678,9.5317,9.5284,9.5284,9.5284,9.5284,9.5284,9.5284,9.5284,9.5284,9.5284,9.5284,9.5218,9.5054,9.4041,9.4035,9.3278,9.2226,9.1371,9.0188,8.8971,8.7656,8.679,8.6889,8.6757,8.6691,8.6691,8.6691,8.6691,8.6582,8.6385,8.5419,8.3303,8.0478,7.8522,7.6891,7.5956,7.4822,7.335,7.2208,7.1941,7.1413,7.0511,6.9867,6.9835,6.9334,6.9271,10.1936,10.1761,10.0248,9.9581,9.9581,9.9581,9.9581,9.9581,9.9581,9.9581,9.9465,9.9232,9.9,9.8912,9.772,9.7138,9.7053,9.6325,9.5772,9.5364,9.5073,9.3561,9.2281,9.1962,9.1991,9.202,9.1991,9.1962,9.1962,9.1962,9.1962,9.1962,9.1962,9.1962,9.1962,9.1962,9.1962,9.1962,9.1962,9.1962,9.1962,9.1962,9.1962,9.1962,9.1962,9.2763,9.4117,9.6087,9.7783,9.8305,9.5979,9.6567,9.9757,10.0716,10.1099,10.141,10.2838,10.3898,10.3504,10.3339,10.2616,10.1334,10.0577,9.9624,9.752,9.7059,9.6303,9.5613,9.5284,9.5284,9.5284,9.5284,9.5284,9.5284,9.5284,9.5284,9.5284,9.5251,9.5054,9.4758,9.4659,9.3903,9.3015,9.2489,9.1963,9.0681,8.9727,8.8807,8.8116,8.7119,8.6691,8.6691,8.6637,8.6637,8.6495,8.6495,8.6385,8.6131,8.5152,8.3866,8.0997,7.8415,7.6657,7.4663,7.3323,7.2808,7.1503,7.0725,7.0084,6.9741,6.9271,6.9367,6.9112,6.8743,6.8651,9.9734,9.9705,9.9552,9.9581,9.9581,9.9581,9.9581,9.9552,9.9494,9.9436,9.9203,9.8183,9.7689,9.7487,9.644,9.5859,9.5888,9.5568,9.4928,9.391,9.3009,9.2398,9.1991,9.1962,9.1962,9.1962,9.1962,9.1962,9.1962,9.1962,9.1962,9.1962,9.1962,9.1962,9.1962,9.1962,9.1962,9.1962,9.1962,9.1962,9.1962,9.1962,9.1962,9.1962,9.1962,9.2101,9.2627,9.4037,9.4329,9.3094,9.441,9.5823,9.7964,9.9901,10.0684,10.0716,10.277,10.2979,10.2189,10.1925,10.1202,9.9788,9.867,9.7421,9.7158,9.6205,9.5514,9.5317,9.5284,9.5284,9.5284,9.5284,9.5284,9.5284,9.5284,9.5284,9.5284,9.5152,9.4429,9.3574,9.3213,9.2719,9.1306,9.1075,9.0352,8.9333,8.8807,8.805,8.7415,8.7053,8.6757,8.6637,8.6527,8.6187,8.5136,8.5079,8.4875,8.4227,8.2788,8.0734,7.7908,7.6129,7.4431,7.228,7.0596,7.0355,6.9867,6.9711,6.9271,6.8986,6.8986,6.8986,6.8743,6.8258,6.7774,9.9581,9.9581,9.9581,9.9581,9.9581,9.9581,9.9581,9.9436,9.8619,9.827,9.8037,9.7022,9.6469,9.6179,9.5132,9.4579,9.4578,9.3707,9.3096,9.2601,9.2078,9.1962,9.1962,9.1962,9.1962,9.1962,9.1962,9.1962,9.1962,9.1962,9.1962,9.1962,9.1962,9.1962,9.1962,9.1962,9.1962,9.1962,9.1962,9.1962,9.1962,9.1962,9.1962,9.1962,9.1962,9.1962,9.1962,9.2597,9.268,9.249,9.3794,9.5146,9.6087,9.7858,9.9073,9.9527,10.1017,10.2287,10.1695,10.0742,9.9723,9.8473,9.7684,9.7059,9.6139,9.5711,9.5284,9.5284,9.5251,9.5284,9.5251,9.5251,9.5284,9.5251,9.512,9.5284,9.512,9.4495,9.3311,9.2128,9.1766,9.1042,9.0056,8.9596,8.9004,8.7908,8.7459,8.7097,8.6954,8.6637,8.5853,8.5484,8.5653,8.5079,8.3999,8.3586,8.3376,8.191,8.0268,7.7678,7.5462,7.3924,7.2842,7.0733,6.9635,6.9488,6.9367,6.9049,6.8859,6.8986,6.8986,6.8651,6.8074,6.7682,6.5621,9.9203,9.9552,9.9581,9.9581,9.9523,9.9116,9.888,9.8706,9.7633,9.7051,9.6818,9.5742,9.5248,9.4986,9.3881,9.327,9.3183,9.2427,9.1962,9.1991,9.1962,9.1962,9.1962,9.1962,9.1962,9.1962,9.1962,9.1962,9.1962,9.1962,9.1962,9.1962,9.1962,9.1962,9.1962,9.1962,9.1962,9.1962,9.1962,9.1962,9.1962,9.1962,9.1962,9.1962,9.1962,9.1962,9.1962,9.1962,9.1962,9.1932,9.3199,9.3926,9.424,9.5536,9.6668,9.7408,9.9115,10.0167,10.0092,9.9328,9.8243,9.7059,9.6698,9.6172,9.5415,9.5284,9.5054,9.4593,9.5021,9.4988,9.4791,9.4955,9.4758,9.4002,9.3541,9.3015,9.2752,9.1832,9.0747,8.9882,9.0023,8.9629,8.8577,8.8149,8.7843,8.6954,8.6262,8.5863,8.5742,8.5225,8.4529,8.3736,8.4148,8.4031,8.3137,8.2561,8.1108,7.8974,7.7133,7.4792,7.3266,7.1849,7.117,7.0132,6.9456,6.9136,6.8952,6.8732,6.8513,6.8513,6.7421,6.7093,6.7185,6.5557,6.3012,9.8299,9.9291,9.9523,9.932,9.9087,9.8037,9.7572,9.7369,9.6324,9.5801,9.5597,9.4434,9.3881,9.3648,9.2689,9.2049,9.2136,9.2049,9.1962,9.1962,9.1962,9.1962,9.1962,9.1962,9.1962,9.1962,9.1962,9.1962,9.1962,9.1962,9.1962,9.1962,9.1962,9.1962,9.1962,9.1962,9.1962,9.1962,9.1962,9.1962,9.1962,9.1962,9.1962,9.1962,9.1962,9.1962,9.1962,9.1962,9.1962,9.1932,9.2101,9.2017,9.2343,9.2984,9.3983,9.5683,9.6414,9.708,9.747,9.7421,9.6566,9.5547,9.535,9.5317,9.4856,9.4922,9.4528,9.3607,9.41,9.4495,9.3574,9.4002,9.364,9.1437,8.9796,8.914,8.877,8.7666,8.6648,8.669,8.7342,8.7972,8.713,8.6416,8.6226,8.5863,8.5022,8.4148,8.4122,8.3228,8.2071,8.1761,8.1947,8.1885,8.1699,8.1231,7.8522,7.6102,7.4243,7.2762,7.1414,7.0702,7.0091,6.9742,6.9102,6.9073,6.8888,6.7879,6.7786,6.6735,6.5118,6.4095,6.3715,6.278,6.0361,9.6615,9.6964,9.7082,9.6993,9.6964,9.6557,9.6382,9.6208,9.5015,9.4578,9.4316,9.3125,9.2572,9.2485,9.2136,9.1962,9.1962,9.1962,9.1962,9.1962,9.1962,9.1962,9.1962,9.1962,9.1962,9.1962,9.1962,9.1962,9.1962,9.1962,9.1962,9.1962,9.1962,9.1962,9.1962,9.1962,9.1962,9.1962,9.1962,9.1962,9.1962,9.1962,9.1962,9.1962,9.1962,9.1962,9.1962,9.1962,9.1962,9.1962,9.1962,9.1962,9.1984,9.2574,9.3374,9.4274,9.4127,9.4851,9.6781,9.5547,9.433,9.3844,9.4593,9.4298,9.2588,9.3278,9.3048,9.2128,9.216,9.2259,9.17,9.1084,9.0122,8.8356,8.6743,8.579,8.5693,8.3566,8.2303,8.2239,8.2626,8.3072,8.3365,8.3339,8.34,8.3256,8.2896,8.2439,8.247,8.1885,8.1324,8.0241,7.9952,7.9405,7.8602,7.7184,7.4581,7.3487,7.1923,7.107,7.0091,6.9771,6.9393,6.916,6.9015,6.8986,6.8356,6.7211,6.6143,6.506,6.3296,6.171,6.1088,5.998,5.8139,9.4898,9.4405,9.4405,9.4405,9.4405,9.4405,9.4405,9.4404,9.3503,9.3183,9.3009,9.234,9.1962,9.1962,9.1962,9.1962,9.1962,9.1962,9.1962,9.1962,9.1962,9.1962,9.1962,9.1962,9.1962,9.1962,9.1962,9.1962,9.1962,9.1962,9.1962,9.1962,9.1962,9.1962,9.1962,9.1962,9.1962,9.1962,9.1962,9.1962,9.1962,9.1962,9.1962,9.1932,9.1525,9.1264,9.1293,9.1264,9.1264,9.1293,9.0769,9.0536,9.0556,9.0491,9.078,9.1254,9.0021,9.0616,9.3376,9.244,9.1673,9.2307,9.3245,9.2785,9.1536,9.1733,9.1766,9.0681,9.0582,8.8961,8.7205,8.5467,8.4472,8.3455,8.2131,8.1084,8.0752,7.9133,7.783,7.8235,7.827,7.9038,8.0749,8.147,8.1637,8.1574,8.1104,8.0787,8.069,8.0112,7.9324,7.8459,7.7765,7.6953,7.5384,7.3319,7.1894,7.1109,7.0382,6.9713,6.9509,6.9277,6.8999,6.8732,6.7943,6.7722,6.7211,6.6021,6.454,6.3215,6.0735,5.9493,5.9673,5.7202,5.5473,9.295,9.1874,9.1758,9.1787,9.1787,9.1903,9.1903,9.1991,9.1991,9.1991,9.2049,9.1962,9.1962,9.1962,9.1962,9.1962,9.1962,9.1962,9.1962,9.1962,9.1962,9.1962,9.1962,9.1962,9.1962,9.1962,9.1962,9.1962,9.1962,9.1962,9.1962,9.1962,9.1962,9.1962,9.1962,9.1962,9.1962,9.1962,9.1962,9.1962,9.1962,9.1787,9.1613,9.1467,9.0566,8.9955,8.9955,8.9872,8.9897,8.9756,8.8675,8.7977,8.7774,8.6748,8.6319,8.6652,8.4658,8.482,8.8038,8.8404,8.8794,9.0235,9.0555,9.0591,8.981,8.9948,8.9393,8.8427,8.8724,8.6301,7.9838,7.8823,7.8392,7.79,7.6457,7.5754,7.5599,7.445,7.4095,7.488,7.5313,7.6243,7.8689,8.0487,8.0454,8.0325,7.9705,7.8819,7.856,7.7528,7.69,7.6389,7.5503,7.4143,7.2767,7.0963,7.0411,7.0155,6.9277,6.8748,6.8864,6.8888,6.8669,6.8229,6.6951,6.6039,6.5651,6.4626,6.3024,6.1192,5.8757,5.6734,5.6524,5.4324,5.3228,9.0333,8.9199,8.9111,8.9111,8.9199,9.0129,9.0566,9.0653,9.1554,9.1962,9.1962,9.1962,9.1962,9.1962,9.1962,9.1962,9.1962,9.1962,9.1962,9.1962,9.1962,9.1962,9.1962,9.1962,9.1962,9.1962,9.1903,9.1932,9.1962,9.1962,9.1962,9.1962,9.1962,9.1962,9.1962,9.1962,9.1962,9.1932,9.1962,9.1962,9.1671,9.01,8.9111,8.9082,8.8762,8.8588,8.8617,8.8588,8.8181,8.7279,8.6872,8.6232,8.5331,8.408,8.3511,8.3556,8.242,8.3103,8.6299,8.5643,8.5265,8.5766,8.6714,8.6461,8.4848,8.5163,8.4625,8.2567,8.1671,8.0419,7.6582,7.6181,7.5718,7.4701,7.3261,7.24,7.2342,7.1084,7.0507,7.0866,7.1987,7.2711,7.3438,7.4553,7.5546,7.5635,7.5695,7.5912,7.5708,7.5446,7.5093,7.5122,7.4017,7.2418,7.0324,6.8462,6.7444,6.7564,6.7906,6.7034,6.5869,6.647,6.6735,6.5434,6.4748,6.4016,6.3758,6.2518,6.0983,5.9465,5.6856,5.4215,5.3957,5.2864,5.1968,8.8442,8.7279,8.7279,8.6959,8.6697,8.789,8.8442,8.8646,9.0308,9.1176,9.1118,9.0595,9.0362,9.0362,9.0362,9.0362,9.042,9.0915,9.1176,9.1176,9.1205,9.1176,9.1118,9.0653,9.0362,9.0362,9.0362,9.0653,9.1089,9.1147,9.1438,9.1874,9.1409,9.1176,9.1118,9.0624,9.0362,9.0362,9.0362,9.0362,9.0158,8.8821,8.8035,8.7948,8.7046,8.6494,8.6465,8.597,8.536,8.4662,8.408,8.344,8.2713,8.1462,8.0664,8.0052,8.0005,8.0991,8.2991,8.2354,8.1903,8.2104,8.2914,8.2478,8.0328,8.0826,7.9837,7.6785,7.541,7.4408,7.3163,7.292,7.2588,7.1743,7.0845,7.0268,7.0238,6.9492,6.8986,6.8986,6.9773,7.0431,7.0901,7.1545,7.1923,7.2127,7.26,7.287,7.2396,7.233,7.233,7.2098,7.076,6.9073,6.7735,6.5961,6.5699,6.5959,6.5768,6.5095,6.3871,6.3973,6.3456,6.2377,6.1393,6.0954,6.1423,5.9918,5.8037,5.7141,5.4569,5.2859,5.2512,5.195,5.0672,8.7105,8.6058,8.597,8.5272,8.4439,8.5601,8.6261,8.6552,8.871,8.9727,8.9548,8.8559,8.8123,8.8035,8.7832,8.7686,8.7774,8.8733,8.9088,8.9262,8.9437,8.9553,8.964,8.8675,8.8035,8.8123,8.8181,8.885,8.9727,8.9868,9.042,9.1322,9.0449,8.9868,8.964,8.8675,8.8093,8.8064,8.7803,8.7715,8.7686,8.7715,8.7628,8.7512,8.5243,8.3945,8.38,8.2847,8.2207,8.2003,8.0984,8.0256,7.9805,7.8816,7.7594,7.646,7.7304,7.8153,7.8517,7.8536,7.8617,7.9033,7.8971,7.8507,7.7422,7.7048,7.5168,7.2085,7.0918,7.0557,6.9218,6.9262,6.9359,6.9396,6.9175,6.8986,6.9049,6.8986,6.8986,6.8986,6.8845,6.9247,7.0039,7.0184,7.0207,6.9975,7.033,7.0236,6.9422,6.9218,6.9131,6.7747,6.6183,6.4703,6.4342,6.441,6.3701,6.3963,6.3107,6.2059,6.1421,6.058,5.9881,5.9363,5.8348,5.7744,5.7616,5.6598,5.4706,5.4135,5.3305,5.2365,5.151,5.0756,4.9062,8.5825,8.4584,8.4584,8.441,8.4294,8.5592,8.6145,8.629,8.7774,8.7948,8.7221,8.7803,8.8035,8.7832,8.5941,8.502,8.4836,8.3382,8.3702,8.534,8.5456,8.661,8.8297,8.821,8.8035,8.8035,8.8035,8.8181,8.8442,8.8501,8.8675,8.885,8.8646,8.8501,8.8501,8.821,8.8035,8.7919,8.6116,8.5098,8.5098,8.4991,8.4603,8.3778,8.3033,8.2277,8.1346,8.1026,8.0489,7.9456,7.9107,7.8031,7.6111,7.5646,7.4919,7.3784,7.3872,7.4074,7.4154,7.4125,7.4177,7.4276,7.4247,7.4164,7.375,7.2093,7.0447,6.9671,6.9364,6.9306,6.9015,6.8957,6.8986,6.8986,6.8986,6.8869,6.8986,6.8986,6.8986,6.8869,6.8146,6.7532,6.7681,6.7037,6.663,6.6804,6.736,6.7826,6.7561,6.7473,6.5472,6.2591,6.0754,6.0337,5.9843,5.9252,5.9148,5.9767,5.9536,5.8752,5.7676,5.7796,5.7434,5.613,5.545,5.5111,5.4527,5.3746,5.2756,5.137,5.0882,5.0223,4.9103,4.8089,4.5885,8.4788,8.4206,8.4177,8.4177,8.4206,8.4904,8.5194,8.5243,8.4807,8.3568,8.2221,8.3966,8.4223,8.3265,8.283,8.2628,8.2679,8.2922,8.3789,8.4991,8.5049,8.5883,8.7017,8.6581,8.629,8.629,8.629,8.661,8.7134,8.7192,8.7483,8.8006,8.8035,8.7744,8.7163,8.6581,8.629,8.6261,8.3237,8.1533,8.1504,7.9863,7.8612,7.7972,7.7432,7.685,7.6111,7.5599,7.4861,7.4192,7.361,7.3203,7.2912,7.2388,7.201,7.1894,7.1865,7.1894,7.1894,7.1371,7.1022,7.1022,7.1022,7.0556,6.9364,6.7997,6.7241,6.7241,6.7241,6.7444,6.8026,6.759,6.7706,6.8869,6.7881,6.7502,6.791,6.7619,6.7241,6.7153,6.6572,6.6225,6.6165,6.5525,6.5118,6.5118,6.503,6.4972,6.4449,6.377,6.1924,5.8657,5.774,5.7591,5.7438,5.6814,5.676,5.7306,5.6813,5.586,5.5099,5.4404,5.4078,5.2722,5.2346,5.2151,5.1779,5.1199,5.0443,4.9198,4.9052,4.8169,4.6853,4.6068,4.4017,8.4177,8.4177,8.4177,8.3974,8.3596,8.3625,8.3498,8.2957,8.1308,7.9457,7.766,7.9915,7.9752,7.812,7.923,7.9823,8.0041,8.2591,8.3983,8.4408,8.4408,8.458,8.4868,8.4067,8.3732,8.3732,8.4071,8.4729,8.5767,8.5854,8.6407,8.7366,8.7162,8.6611,8.5804,8.47,8.354,8.2268,7.9127,7.7803,7.8338,7.5055,7.3214,7.2635,7.1995,7.116,7.0384,6.9527,6.8928,6.8724,6.7619,6.7764,6.9422,6.8462,6.8259,6.8957,6.8869,6.9015,6.948,6.8375,6.7881,6.8404,6.8462,6.727,6.4623,6.4769,6.5118,6.5147,6.5263,6.5554,6.6574,6.5845,6.6106,6.7881,6.6455,6.5525,6.6662,6.5874,6.5292,6.5292,6.4972,6.4827,6.4798,6.4594,6.4361,6.4332,6.3634,6.2617,6.1605,5.9711,5.7952,5.6499,5.6006,5.5917,5.5489,5.5633,5.5436,5.5696,5.4478,5.354,5.3118,5.2281,5.1195,4.9808,4.9784,4.9613,4.932,4.8588,4.8062,4.7696,4.7239,4.6587,4.4636,4.3955,4.2633,8.4177,8.4177,8.4177,8.2957,8.1113,8.1113,7.9892,7.8062,0.0,0.0,0.0,8.0643,8.0677,8.005,7.6526,7.4983,7.4794,7.3359,7.3867,7.5846,7.5874,7.7016,7.9089,8.0707,8.143,8.151,8.3314,8.4264,8.4468,8.4497,8.4613,8.4661,8.3047,8.2904,8.4419,8.4264,8.0677,7.3854,7.28,7.4144,7.7419,7.693,7.5253,7.2411,7.3433,7.1913,6.7506,6.8408,6.852,6.7477,6.7153,6.5816,6.314,6.2733,6.1804,6.0028,5.8894,5.9624,6.2646,6.1744,6.2384,6.5583,6.5787,6.4245,6.0581,6.3256,6.5118,6.5118,6.5118,6.5176,6.5408,6.5205,6.5292,6.5728,6.5379,6.5147,6.5408,6.5205,6.5001,6.5001,6.4129,6.3547,6.346,6.2704,6.1891,6.1891,6.1748,6.1455,6.0913,5.8574,5.6253,5.4755,5.4336,5.385,5.2774,5.2562,5.239,5.2528,5.2249,5.1582,5.0777,5.0247,4.9662,4.8686,4.8452,4.8086,4.7417,4.7075,4.6611,4.5673,4.45,4.3438,4.2728,4.0878,3.846,8.4177,0.0,8.4177,8.3422,0.0,8.2364,7.8813,7.3189,7.4659,7.4742,7.3987,7.525,7.5208,7.3983,7.2854,7.2273,7.2303,7.2141,7.278,7.396,7.3987,7.4686,7.5897,7.7015,7.75,7.7608,7.8567,7.9149,7.9177,7.9177,7.8638,7.7584,7.6496,7.5962,7.5906,7.5924,7.3647,6.9248,6.9666,7.0806,7.2731,7.0984,6.9176,6.7618,6.8208,0.0,0.0,0.0,0.0,0.0,0.0,0.0,0.0,0.0,0.0,5.8341,5.5404,5.4444,5.6189,5.52,5.5578,5.8079,5.8312,5.6945,5.3726,5.5869,5.7876,5.9126,5.9326,6.0141,6.1889,6.1628,6.2035,6.3809,6.2936,6.2762,6.3809,6.3576,6.3111,6.3082,6.2559,6.2181,6.2181,6.1571,6.097,6.0171,6.0085,5.9711,5.8751,5.6622,5.4907,5.4017,5.327,5.2365,5.1686,5.1486,5.143,5.0801,5.0655,5.015,4.9174,4.9003,4.8598,4.7685,4.7441,4.6768,4.5231,4.5304,4.5075,4.3028,4.2503,4.214,4.0211,3.8047,3.5953,8.4177,8.4177,8.4177,8.3482,8.2508,8.2739,7.8203,7.0593,7.0232,6.9311,6.8274,6.9737,6.9311,6.7682,6.9058,6.9681,6.979,7.1771,7.2668,7.2668,7.2906,7.2986,7.2986,7.3393,7.3663,7.3663,7.4041,7.4309,7.4309,7.4309,7.3418,7.1786,7.1296,7.0162,6.8485,0.0,0.0,0.0,6.6531,6.7611,6.826,6.5256,6.3446,6.3024,6.3139,0.0,6.2984,6.3428,6.3757,6.3857,6.2184,0.0,0.0,0.0,0.0,0.0,0.0,0.0,0.0,0.0,0.0,0.0,4.9674,4.8947,4.7624,4.8844,5.0541,5.2448,5.3493,5.4917,5.6973,5.6492,5.7469,6.0842,5.9475,5.9243,6.1715,6.122,6.0496,6.0525,6.0449,6.0396,6.0368,6.0314,5.974,5.8574,5.8396,5.7592,5.5758,5.4273,5.3489,5.336,5.2365,5.1504,5.1217,5.0948,5.0321,4.9784,4.9467,4.9076,4.8173,4.7867,4.7501,4.6028,4.5896,4.5014,4.2589,4.3068,4.3092,4.0584,4.0853,4.0646,3.7706,3.5953,3.5004,8.4177,8.4177,8.4177,8.1232,7.6619,7.7766,7.6468,7.3524,7.1625,7.1231,7.1763,6.92,6.7897,6.7493,6.598,6.5149,6.5222,6.6471,6.6976,6.7026,6.7966,6.83,6.8387,7.0429,7.136,7.1469,7.3312,7.4309,7.4309,7.4309,7.4147,7.3771,7.1935,7.0941,7.0308,6.1143,5.6727,5.762,6.0464,6.3816,6.7497,6.711,6.5949,6.4115,6.437,6.298,5.9648,6.1433,6.1603,5.9572,6.0573,5.9973,5.7149,5.2932,5.0123,0.0,4.3451,0.0,0.0,0.0,0.0,0.0,0.0,0.0,0.0,4.8366,4.9511,4.8974,5.2819,5.3776,4.9968,5.0293,5.1856,5.4494,5.4552,5.5396,5.7847,5.8079,5.7992,5.7992,5.7718,5.7555,5.7414,5.7199,5.6988,5.6636,5.6332,5.4883,5.2664,5.1738,5.1582,5.1794,5.1644,5.0997,5.0125,4.9296,4.8647,4.8452,4.8316,4.8051,4.6904,4.6733,4.6004,4.3788,4.3191,4.2529,4.0752,4.0522,4.0584,3.99,3.8958,3.7706,3.5933,3.5136,3.5004,8.0389,8.0389,8.0389,7.6438,7.0386,7.2147,7.1223,6.8679,6.8173,6.7969,6.7787,6.5745,6.4559,6.3928,6.2935,6.2474,6.2523,6.2986,6.3182,6.3255,6.4304,6.4792,6.4817,6.6451,6.7287,6.7287,6.7575,6.7732,6.7787,6.7172,6.6609,6.6019,6.4513,6.3151,6.176,5.6565,5.5177,5.7957,5.9472,6.1951,6.5572,6.5696,6.4922,6.3349,6.3505,6.2721,6.0721,6.1136,6.1512,6.1752,6.1203,5.9913,5.7678,5.1953,4.7479,0.0,0.0,0.0,0.0,0.0,0.0,0.0,0.0,0.0,0.0,0.0,4.454,4.3868,5.0315,5.2657,4.8293,4.9157,4.96,4.879,4.8686,4.9439,5.1293,5.26,5.2858,5.166,5.2418,5.3068,5.3068,5.2897,5.3128,5.4013,5.0749,4.7745,4.6482,4.7148,4.7856,4.7929,4.9286,4.9995,4.9052,4.8539,4.7714,4.6385,4.6701,4.6364,4.3504,4.3709,4.3714,4.1704,4.1162,4.0646,3.9084,3.9357,3.9273,3.7834,3.6585,3.5887,3.5117,3.4152,3.3467,7.6612,7.5706,7.3577,6.9235,6.397,6.5928,6.5529,6.3535,6.4219,6.3966,6.2874,6.1181,5.9765,5.8667,5.7666,5.7764,5.8841,5.9008,5.9667,6.0692,6.1766,6.223,6.2279,6.3108,6.3523,6.3426,6.2401,6.201,6.2132,6.0399,5.9228,5.8667,5.7154,5.5275,5.32,5.3054,5.4787,5.8301,5.913,6.0936,6.3767,6.3889,6.3499,6.2645,6.2132,6.1646,6.1203,6.0852,6.1154,6.2135,6.0373,5.8621,5.7077,4.9692,0.0,0.0,0.0,0.0,0.0,0.0,0.0,0.0,0.0,3.2273,2.7729,0.0,3.9409,0.0,4.6936,4.9594,4.616,4.6513,0.0,0.0,4.3013,4.3186,4.4856,4.6728,4.7251,4.5519,4.6982,4.8184,4.8132,4.8058,4.8546,4.9879,4.5549,4.2048,4.1883,4.3366,4.4357,4.4479,4.6514,4.7783,4.6514,4.6709,4.6379,4.4579,4.4692,4.4127,4.115,4.1469,4.1385,3.9837,3.9462,3.8768,3.7212,3.7962,3.7706,3.5644,3.5004,3.4872,3.437,3.3248,3.2136,7.4247,7.0936,6.2725,5.8367,5.7204,5.9197,6.0515,6.1277,6.1351,6.0782,5.9557,5.5591,5.32,5.2048,4.8027,0.0,5.2316,5.3269,5.5787,5.959,6.0668,6.1132,6.1132,6.1229,6.1278,6.1278,6.0229,6.0229,6.0912,5.7129,5.5592,5.6373,5.3444,5.0948,4.8964,5.159,5.3688,5.5031,5.8008,6.057,6.2693,6.2742,6.2718,6.2571,6.0687,5.9305,5.8383,5.9766,5.9236,5.6288,5.5713,5.4012,5.0685,0.0,0.0,0.0,0.0,0.0,0.0,0.0,0.0,0.0,0.0,0.0,0.0,0.0,0.0,0.0,4.279,0.0,4.0834,3.8944,0.0,0.0,0.0,3.7482,3.9931,4.1188,4.1829,4.1637,0.0,0.0,4.2978,4.2668,4.2848,4.3934,4.3593,4.2878,4.1926,4.2212,4.2724,4.2097,4.3821,4.4162,4.1944,4.254,4.3608,4.3969,4.2437,4.1122,4.1623,4.1133,3.9628,3.8026,3.7706,3.7192,3.5494,3.537,3.5315,3.4994,3.4862,3.4399,3.2836,3.2131,3.1372,6.3288,5.6007,5.1762,4.9763,4.9482,5.0262,5.0878,5.137,5.2053,5.1736,5.0572,4.9613,4.8564,4.7441,4.5673,0.0,0.0,0.0,5.015,5.3688,5.5397,5.7251,5.9155,6.0424,6.101,6.0936,5.9326,5.874,5.9106,5.608,5.1931,4.6611,0.0,0.0,4.4391,4.7539,5.0662,5.3664,5.7495,5.9911,6.0662,6.1327,6.1351,6.0741,5.9301,5.8032,5.6934,5.6383,5.4993,5.272,5.1189,4.8032,0.0,0.0,0.0,0.0,0.0,0.0,0.0,0.0,0.0,0.0,0.0,2.4904,2.1524,0.0,0.0,0.0,3.4295,3.4591,3.52,3.7162,0.0,0.0,0.0,0.0,0.0,0.0,0.0,3.2109,3.6075,3.9078,3.9078,3.8415,3.807,3.8509,3.7411,3.6411,3.5996,0.0,3.7119,3.9485,4.051,4.0858,4.0205,3.9127,3.8452,3.8869,3.8578,3.8223,3.6922,3.7698,3.7857,3.6455,3.6018,3.5756,3.5136,3.4104,3.3441,3.3441,3.2705,3.1884,3.1159,2.9307,2.776,5.2297,0.0,0.0,0.0,0.0,4.3529,4.404,4.4967,4.583,4.5649,4.4845,4.4162,0.0,0.0,0.0,0.0,0.0,0.0,4.6136,4.8515,5.2249,5.4518,5.5641,5.7081,5.7788,5.7741,5.5031,5.3908,5.4054,5.1394,4.605,3.851,0.0,0.0,0.0,0.0,4.7685,5.0833,5.5885,5.8716,5.9057,6.0058,6.0229,5.9521,5.7886,5.6446,5.5276,5.2956,5.0858,4.9113,4.5808,0.0,0.0,0.0,0.0,0.0,0.0,0.0,0.0,0.0,0.0,0.0,0.0,0.0,0.0,0.0,0.0,0.0,0.0,0.0,3.0051,3.3708,3.4337,0.0,0.0,0.0,0.0,0.0,0.0,0.0,0.0,0.0,3.4706,3.4688,3.479,0.0,0.0,3.3002,3.1895,3.2227,3.3259,3.536,3.7237,0.0,3.6968,3.5274,3.4062,3.406,3.5999,3.6367,3.2905,3.3835,3.4433,3.2635,3.2987,3.322,3.2366,3.0974,3.0065,2.9894,2.8913,2.7868,2.7222,2.532,2.3461,0.0,0.0,0.0,0.0,0.0,0.0,0.0,0.0,4.4747,4.4625,0.0,3.9385,0.0,0.0,0.0,0.0,0.0,4.2334,0.0,0.0,5.2327,5.3862,5.0174,5.015,5.015,4.9857,4.6001,4.443,4.4991,4.1096,0.0,0.0,0.0,0.0,0.0,0.0,4.5015,4.5454,5.2571,5.6811,5.7959,5.8984,5.9521,5.9399,5.6422,5.4225,5.3078,5.0003,4.7319,4.5108,3.9148,0.0,0.0,0.0,0.0,0.0,0.0,0.0,0.0,0.0,0.0,0.0,0.0,0.0,0.0,0.0,0.0,0.0,0.0,0.0,0.0,2.7012,0.0,0.0,0.0,0.0,0.0,0.0,0.0,0.0,0.0,0.0,2.9626,3.1507,3.345,3.4355,0.0,0.0,0.0,0.0,3.2436,2.9511,3.4291,3.6172,3.0055,3.068,3.1956,3.1877,0.0,0.0,3.263,3.0386,2.8596,2.6594,2.8438,2.9101,2.6025,2.4858,2.4312,2.4233,2.3497,2.2216,2.0611,2.019,1.9519,0.0,0.0,0.0,0.0,0.0,0.0,0.0,0.0,0.0,3.4507,0.0,3.2506,0.0,0.0,0.0,0.0,0.0,0.0,0.0,0.0,4.2115,4.4308,4.5635,4.6234,4.6575,0.0,4.3707,3.9266,0.0,0.0,0.0,0.0,0.0,0.0,0.0,0.0,4.3219,4.4187,5.1986,5.6348,5.6837,5.7886,5.813,5.7299,5.5592,5.281,4.8978,4.5074,4.134,0.0,0.0,0.0,0.0,0.0,0.0,0.0,0.0,0.0,0.0,0.0,0.0,0.0,0.0,0.0,0.0,0.0,0.0,0.0,0.0,0.0,0.0,0.0,2.5966,0.0,0.0,0.0,0.0,0.0,0.0,0.0,0.0,0.0,2.7442,2.8748,3.0657,3.3189,3.2722,3.2307,3.2668,0.0,0.0,0.0,0.0,0.0,0.0,0.0,2.782,2.672,2.7072,2.7501,2.7509,2.7331,2.691,2.6221,0.0,0.0,2.1065,2.0307,2.0466,2.0816,1.9176,1.7625,1.7131,1.5977,1.4911,0.0,0.0,0.0,0.0,0.0,0.0,0.0,0.0,0.0,2.7845,2.7857,0.0,0.0,0.0,0.0,0.0,0.0,0.0,0.0,0.0,0.0,0.0,4.0169,4.0901,0.0,0.0,0.0,0.0,0.0,0.0,0.0,0.0,0.0,0.0,0.0,0.0,4.1755,4.3146,5.0913,5.5323,5.5641,5.6422,5.6617,5.6153,5.4835,5.1761,4.6782,0.0,0.0,0.0,0.0,0.0,0.0,0.0,0.0,0.0,0.0,0.0,0.0,0.0,0.0,0.0,0.0,0.0,0.0,0.0,0.0,0.0,0.0,0.0,0.0,0.0,2.2471,0.0,0.0,0.0,0.0,0.0,0.0,0.0,0.0,0.0,0.0,0.0,2.7223,3.0048,3.0321,3.0778,3.2177,3.1929,3.201,0.0,0.0,0.0,0.0,0.0,0.0,0.0,0.0,0.0,0.0,0.0,0.0,0.0,0.0,1.9282,1.5993,1.5449,1.56,1.5735,0.0,0.0,0.0,0.0,0.0,0.0,0.0,0.0,0.0,0.0,0.0,0.0,0.0,0.0,0.0,0.0,0.0,0.0,2.3965,0.0,0.0,0.0,0.0,0.0,0.0,0.0,0.0,0.0,0.0,0.0,0.0,0.0,0.0,0.0,0.0,0.0,0.0,0.0,0.0,0.0,0.0,4.0734,4.1853,4.9335,5.3591,5.4616,5.4665,5.5081,5.5958,5.403,5.0924,4.6538,0.0,0.0,0.0,0.0,0.0,0.0,0.0,0.0,0.0,0.0,0.0,0.0,0.0,0.0,0.0,0.0,0.0,0.0,0.0,0.0,0.0,0.0,0.0,0.0,0.0,0.0,1.685,2.0129,2.2332,0.0,0.0,0.0,0.0,0.0,0.0,0.0,0.0,0.0,0.0,2.8646,3.0867,3.0107,3.2821,3.3429,2.9592,2.8114,2.7738,2.8623,2.8775,2.8395,0.0,0.0,0.0,0.0,0.0,0.0,0.0,0.0,0.0,0.0,0.0,0.0,0.0,0.0,0.0,0.0,0.0,0.0,0.0,0.0,0.0,0.0,0.0,0.0,0.0,0.0,0.0,0.0,0.0,0.0,0.0,0.0,0.0,0.0,0.0,0.0,0.0,0.0,0.0,0.0,0.0,0.0,0.0,0.0,0.0,0.0,0.0,0.0,0.0,0.0,0.0,0.0,0.0,0.0,3.9298,4.1779,4.9198,5.3542,5.4591,5.464,5.4421,5.3908,5.0467,4.6538,0.0,0.0,0.0,0.0,0.0,0.0,0.0,0.0,0.0,0.0,0.0,0.0,0.0,0.0,0.0,0.0,0.0,0.0,0.0,0.0,0.0,0.0,0.0,0.0,0.0,0.0,0.0,0.0,2.2056,2.1577,1.8421,0.0,0.0,0.0,0.0,0.0,0.0,0.0,0.0,0.0,0.0,2.8068,2.9572,3.278,3.3922,3.0981,2.9765,2.8837,2.7928,2.8854,2.8111,2.3797,0.0,0.0,0.0,0.0,0.0,0.0,0.0,0.0,0.0,0.0,0.0,0.0,0.0,0.0,0.0,0.0,0.0,0.0,0.0,0.0,0.0,0.0,0.0,0.0,0.0,0.0,0.0,0.0,0.0,0.0,0.0,0.0,0.0,0.0,0.0,0.0,0.0,0.0,0.0,0.0,0.0,0.0,0.0,0.0,0.0,0.0,0.0,0.0,0.0,0.0,0.0,0.0,0.0,3.8226,4.0661,4.8437,5.3001,5.3957,5.3615,5.3078,5.2512,4.8661,4.4242,0.0,0.0,0.0,0.0,0.0,0.0,0.0,0.0,0.0,0.0,0.0,0.0,0.0,0.0,0.0,0.0,0.0,0.0,0.0,0.0,0.0,0.0,0.0,0.0,0.0,0.0,0.0,0.0,2.001,1.9988,1.7334,0.0,0.0,0.0,0.0,0.0,0.0,0.0,0.0,0.0,0.0,2.6219,2.8453,3.0624,0.0,0.0,2.9612,2.8328,2.835,2.9034,2.7775,2.2514,2.1156,0.0,0.0,0.0,0.0,0.0,0.0,0.0,0.0,0.0,0.0,0.0,0.0,0.0,0.0,0.0,0.0,0.0,0.0,0.0,0.0,0.0,0.0,0.0,0.0,0.0,0.0,0.0,0.0,0.0,0.0,0.0,0.0,0.0,0.0,0.0,0.0,0.0,0.0,0.0,0.0,0.0,0.0,0.0,0.0,0.0,0.0,0.0,0.0,0.0,0.0,0.0,0.0,0.0,3.8825,4.6994,5.1864,5.2927,5.1704,5.1169,5.1181,4.7888,4.306,0.0,0.0,0.0,0.0,0.0,0.0,0.0,0.0,0.0,0.0,0.0,0.0,0.0,0.0,0.0,0.0,0.0,0.0,0.0,0.0,0.0,0.0,0.0,0.0,0.0,0.0,0.0,0.0,0.0,0.0,0.0,0.0,0.0,0.0,0.0,0.0,0.0,0.0,0.0,0.0,0.0,2.5129,2.6757,2.7145,2.8211,0.0,0.0,2.6426,2.8847,2.884,2.7019,2.2412,0.0,0.0,0.0,0.0,0.0,0.0,0.0,0.0,0.0,0.0,0.0,0.0,0.0,0.0,0.0,0.0,0.0,0.0,0.0,0.0,0.0,0.0,0.0,0.0,0.0,0.0,0.0,0.0,0.0,0.0,0.0,0.0,0.0,0.0,0.0,0.0,0.0,0.0,0.0,0.0,0.0,0.0,0.0,0.0,0.0,0.0,0.0,0.0,0.0,0.0,0.0,0.0,0.0,0.0,3.7659,4.5324,5.0141,5.1718,4.8766,4.7547,4.816,4.2598,0.0,0.0,0.0,0.0,0.0,0.0,0.0,0.0,0.0,0.0,0.0,0.0,0.0,0.0,0.0,0.0,0.0,0.0,0.0,0.0,0.0,0.0,0.0,0.0,0.0,0.0,0.0,1.1771,0.0,0.0,0.0,0.0,0.0,0.0,0.0,0.0,0.0,0.0,0.0,0.0,0.0,0.0,2.3117,2.401,2.5536,2.673,0.0,0.0,2.4214,2.2624,2.3924,2.3286,0.0,0.0,0.0,0.0,0.0,0.0,0.0,0.0,0.0,0.0,0.0,0.0,0.0,0.0,0.0,0.0,0.0,0.0,0.0,0.0,0.0,0.0,0.0,0.0,0.0,0.0,0.0,0.0,0.0,0.0,0.0,0.0,0.0,0.0,0.0,0.0,0.0,0.0,0.0,0.0,0.0,0.0,0.0,0.0,0.0,0.0,0.0,0.0,0.0,0.0,0.0,0.0,0.0,0.0,3.3545,3.4954,4.1607,4.6239,4.834,4.5951,4.4845,4.5256,3.9689,3.5081,0.0,0.0,0.0,0.0,0.0,0.0,0.0,0.0,0.0,0.0,0.0,0.0,0.0,0.0,0.0,0.0,0.0,0.0,0.0,0.0,0.0,0.0,0.0,0.0,0.0,0.0,0.0,0.0,0.0,0.0,0.0,0.0,0.0,0.0,0.0,0.0,0.0,0.0,0.0,0.0,0.0,0.0,2.2401,2.314,0.0,0.0,0.0,2.2729,2.1533,0.0,0.0,0.0,0.0,0.0,0.0,0.0,0.0,0.0,0.0,0.0,0.0,0.0,0.0,0.0,0.0,0.0,0.0,0.0,0.0,0.0,0.0,0.0,0.0,0.0,0.0,0.0,0.0,0.0,0.0,0.0,0.0,0.0,0.0,0.0,0.0,0.0,0.0,0.0,0.0,0.0,0.0,0.0,0.0,0.0,0.0,0.0,0.0,0.0,0.0,0.0,0.0,0.0,0.0,0.0,0.0,0.0,3.1652,3.7301,4.1631,4.4081,4.311,4.2543,4.2456,3.8144,3.3917,0.0,0.0,0.0,0.0,0.0,0.0,0.0,0.0,0.0,0.0,0.0,0.0,0.0,0.0,0.0,0.0,0.0,0.0,0.0,0.0,0.0,0.0,0.0,0.0,0.0,0.0,0.0,0.0,0.0,0.0,0.0,0.0,0.0,0.0,0.0,0.0,0.0,0.0,0.0,0.0,0.0,1.8935,2.1206,2.0562,2.0177,0.0,0.0,2.0971,2.2036,2.1189,0.0,0.0,0.0,0.0,0.0,0.0,0.0,0.0,0.0,0.0,0.0,0.0,0.0,0.0,0.0,0.0,0.0,0.0,0.0,0.0,0.0,0.0,0.0,0.0,0.0,0.0,0.0,0.0,0.0,0.0,0.0,0.0,0.0,0.0,0.0,0.0,0.0,0.0,0.0,0.0,0.0,0.0,0.0,0.0,0.0,0.0,0.0,0.0,0.0,0.0,0.0,0.0,0.0,0.0,0.0,0.0,3.0454,3.5693,3.9954,4.2828,4.0198,3.9397,4.0762,3.7179,3.2926,0.0,0.0,0.0,0.0,0.0,0.0,0.0,0.0,0.0,0.0,0.0,0.0,0.0,0.0,0.0,0.0,0.0,0.0,0.0,0.0,0.0,0.0,0.0,0.0,0.0,0.0,0.0,0.0,0.0,0.0,0.0,0.0,0.0,0.0,0.0,0.0,0.0,0.0,0.0,0.0,0.0,1.6872,1.9772,1.8729,0.0,0.0,0.0,0.0,1.563,1.5013,0.0,0.0,0.0,0.0,0.0,0.0,0.0,0.0,0.0,0.0,0.0,0.0,0.0,0.0,0.0,0.0,0.0,0.0,0.0,0.0,0.0,0.0,0.0,0.0,0.0,0.0,0.0,0.0,0.0,0.0,0.0,0.0,0.0,0.0,0.0,0.0,0.0,0.0,0.0,0.0,0.0,0.0,0.0,0.0,0.0,0.0,0.0,0.0,0.0,0.0,0.0,0.0,0.0,0.0,0.0,0.0,2.8806,3.2213,3.5889,3.937,3.7407,3.6947,3.8239,3.5783,3.2252,0.0,0.0,0.0,0.0,0.0,0.0,0.0,0.0,0.0,0.0,0.0,0.0,0.0,0.0,0.0,0.0,0.0,0.0,0.0,0.0,0.0,0.0,0.0,0.0,0.0,0.0,0.0,0.0,0.0,0.0,0.0,0.0,0.0,0.0,0.0,0.0,0.0,0.0,0.0,0.0,1.414,1.4767,1.7079,0.0,0.0,0.0,0.0,0.0,0.0,1.3803,1.3006,0.0,0.0,0.0,0.0,0.0,0.0,0.0,0.0,0.0,0.0,0.0,0.0,0.0,0.0,0.0,0.0,0.0,0.0,0.0,0.0,0.0,0.0,0.0,0.0,0.0,0.0,0.0,0.0,0.0,0.0,0.0,0.0,0.0,0.0,0.0,0.0,0.0,0.0,0.0,0.0,0.0,0.0,0.0,0.0,0.0,0.0,0.0,0.0,0.0,0.0,0.0,0.0,0.0,0.0,0.0,2.6999,2.8913,3.1853,3.562,3.5222,3.5403,3.6075,3.4644,3.1796,2.7625,0.0,0.0,0.0,0.0,0.0,0.0,0.0,0.0,0.0,0.0,0.0,0.0,0.0,0.0,0.0,0.0,0.0,0.0,0.0,0.0,0.0,0.0,0.0,0.0,0.0,0.0,0.0,0.0,0.0,0.0,0.0,0.0,0.0,0.0,0.0,0.0,0.0,0.0,0.0,1.2633,1.2865,0.0,0.0,0.0,0.0,0.0,0.0,0.0,0.0,1.2676,0.0,0.0,0.0,0.0,0.0,0.0,0.0,0.0,0.0,0.0,0.0,0.0,0.0,0.0,0.0,0.0,0.0,0.0,0.0,0.0,0.0,0.0,0.0,0.0,0.0,0.0,0.0,0.0,0.0,0.0,0.0,0.0,0.0,0.0,0.0,0.0,0.0,0.0,0.0,0.0,0.0,0.0,0.0,0.0,0.0,0.0,0.0,0.0,0.0,0.0,0.0,0.0,0.0,0.0,0.0,0.0,2.8417,3.1341,3.4036,3.472,3.5403,3.6094,3.4644,3.1796,2.7568,0.0,0.0,0.0,0.0,0.0,0.0,0.0,0.0,0.0,0.0,0.0,0.0,0.0,0.0,0.0,0.0,0.0,0.0,0.0,0.0,0.0,0.0,0.0,0.0,0.0,0.0,0.0,0.0,0.0,0.0,0.0,0.0,0.0,0.0,0.0,0.0,0.0,0.0,0.9321,1.0094,0.0,0.0,0.0,0.0,0.0,0.0,0.0,0.0,1.0739,0.0,0.0,0.0,0.0,0.0,0.0,0.0,0.0,0.0,0.0,0.0,0.0,0.0,0.0,0.0,0.0,0.0,0.0,0.0,0.0,0.0,0.0,0.0,0.0,0.0,0.0,0.0,0.0,0.0,0.0,0.0,0.0,0.0,0.0,0.0,0.0,0.0,0.0,0.0,0.0,0.0,0.0,0.0,0.0,0.0,0.0,0.0,0.0,0.0,0.0,0.0,0.0,0.0,0.0,0.0,0.0,0.0,0.0,3.098,3.3006,3.4359,3.5194,3.5374,3.2669,2.9974,0.0,0.0,0.0,0.0,0.0,0.0,0.0,0.0,0.0,0.0,0.0,0.0,0.0,0.0,0.0,0.0,0.0,0.0,0.0,0.0,0.0,0.0,0.0,0.0,0.0,0.0,0.0,0.0,0.0,0.0,0.0,0.0,0.0,0.0,0.0,0.0,0.0,0.0,0.0,0.0,0.0,0.0,0.0,0.0,0.0,0.0,0.0,0.0,0.0,0.0,0.0,0.0,0.0,0.0,0.0,0.0,0.0,0.0,0.0,0.0,0.0,0.0,0.0,0.0,0.0,0.0,0.0,0.0,0.0,0.0,0.0,0.0,0.0,0.0,0.0,0.0,0.0,0.0,0.0,0.0,0.0,0.0,0.0,0.0,0.0,0.0,0.0,0.0,0.0,0.0,0.0,0.0,0.0,0.0,0.0,0.0,0.0,0.0,0.0,0.0,0.0,0.0,0.0,0.0,0.0,0.0,0.0,0.0,3.0619,3.1907,3.396,3.5004,3.4985,3.0771,2.7829,0.0,0.0,0.0,0.0,0.0,0.0,0.0,0.0,0.0,0.0,0.0,0.0,0.0,0.0,0.0,0.0,0.0,0.0,0.0,0.0,0.0,0.0,0.0,0.0,0.0,0.0,0.0,0.0,0.0,0.0,0.0,0.0,0.0,0.0,0.0,0.0,0.0,0.0,0.0,0.0,0.0,0.0,0.0,0.0,0.0,0.0,0.0,0.0,0.969,0.0,0.0,0.0,0.0,0.0,0.0,0.0,0.0,0.0,0.0,0.0,0.0,0.0,0.0,0.0,0.0,0.0,0.0,0.0,0.0,0.0,0.0,0.0,0.0,0.0,0.0,0.0,0.0,0.0,0.0,0.0,0.0,0.0,0.0,0.0,0.0,0.0,0.0,0.0,0.0,0.0,0.0,0.0,0.0,0.0,0.0,0.0,0.0,0.0,0.0,0.0,0.0,0.0,0.0,0.0,0.0,0.0,0.0,0.0,2.9993,3.0201,3.3353,3.5004,3.4852,3.0145,2.6109,0.0,0.0,0.0,0.0,0.0,0.0,0.0,0.0,0.0,0.0,0.0,0.0,0.0,0.0,0.0,0.0,0.0,0.0,0.0,0.0,0.0,0.0,0.0,0.0,0.0,0.0,0.0,0.0,0.0,0.0,0.0,0.0,0.0,0.0,0.0,0.0,0.0,0.0,0.0,0.0,0.0,0.0,0.0,0.0,0.0,0.0,0.0,0.0,0.0,0.0,0.0,0.0,0.0,0.0,0.0,0.0,0.0,0.0,0.0,0.0,0.0,0.0,0.0,0.0,0.0,0.0,0.0,0.0,0.0,0.0,0.0,0.0,0.0,0.0,0.0,0.0,0.0,0.0,0.0,0.0,0.0,0.0,0.0,0.0,0.0,0.0,0.0,0.0,0.0,0.0,0.0,0.0,0.0,0.0,0.0,0.0,0.0,0.0,0.0,0.0,0.0,0.0,0.0,0.0,0.0,0.0,0.0,0.0,2.7353,2.8401,3.1759,3.2486,3.0305,2.7033,2.4412,0.0,0.0,0.0,0.0,0.0,0.0,0.0,0.0,0.0,0.0,0.0,0.0,0.0,0.0,0.0,0.0,0.0,0.0,0.0,0.0,0.0,0.0,0.0,0.0,0.0,0.0,0.0,0.0,0.0,0.0,0.0,0.0,0.0,0.0,0.0,0.0,0.0,0.0,0.0,0.0,0.0,0.0,0.0,0.0,0.0,0.0,0.0,0.0,0.0,0.0,0.0,0.0,0.0,0.0,0.0,0.0,0.0,0.0,0.0,0.0,0.0,0.0,0.0,0.0,0.0,0.0,0.0,0.0,0.0,0.0,0.0,0.0,0.0,0.0,0.0,0.0,0.0,0.0,0.0,0.0,0.0,0.0,0.0,0.0,0.0,0.0,0.0,0.0,0.0,0.0,0.0,0.0,0.0,0.0,0.0,0.0,0.0,0.0,0.0,0.0,0.0,0.0,0.0,0.0,0.0,0.0,0.0,0.0,0.0,2.6092,2.841,2.8265,2.5314,2.3564,2.21,0.0,0.0,0.0,0.0,0.0,0.0,0.0,0.0,0.0,0.0,0.0,0.0,0.0,0.0,0.0,0.0,0.0,0.0,0.0,0.0,0.0,0.0,0.0,0.0,0.0,0.0,0.0,0.0,0.0,0.0,0.0,0.0,0.0,0.0,0.0,0.0,0.0,0.0,0.0,0.0,0.0,0.0,0.0,0.0,0.0,0.0,0.0,0.0,0.0,0.0,0.0,0.0,0.0,0.0,0.0,0.0,0.0,0.0,0.0,0.0,0.0,0.0,0.0,0.0,0.0,0.0,0.0,0.0,0.0,0.0,0.0,0.0,0.0,0.0,0.0,0.0,0.0,0.0,0.0,0.0,0.0,0.0,0.0,0.0,0.0,0.0,0.0,0.0,0.0,0.0,0.0,0.0,0.0,0.0,0.0,0.0,0.0,0.0,0.0,0.0,0.0,0.0,0.0,0.0,0.0,0.0,0.0,0.0,0.0,2.3017,2.2569,2.1965,2.102,2.0397,1.8859,0.0,0.0,0.0,0.0,0.0,0.0,0.0,0.0,0.0,0.0,0.0,0.0,0.0,0.0,0.0,0.0,0.0,0.0,0.0,0.0,0.0,0.0,0.0,0.0,0.0,0.0,0.0,0.0,0.0,0.0,0.0,0.0,0.0,0.0,0.0,0.0,0.0,0.0,0.0,0.0,0.0,0.0,0.0,0.0,0.0,0.0,0.0,0.0,0.0,0.0,0.0,0.0,0.0,0.0,0.0,0.0,0.0,0.0,0.0,0.0,0.0,0.0,0.0,0.0,0.0,0.0,0.0,0.0,0.0,0.0,0.0,0.0,0.0,0.0,0.0,0.0,0.0,0.0,0.0,0.0,0.0,0.0,0.0,0.0,0.0,0.0,0.0,0.0,0.0,0.0,0.0,0.0,0.0,0.0,0.0,0.0,0.0,0.0,0.0,0.0,0.0,0.0,0.0,0.0,0.0,0.0,0.0,0.0,0.0,1.7702,1.8785,1.8933,1.7829,1.7544,1.6914,1.5977,0.0,0.0,0.0,0.0,0.0,0.0,0.0,0.0,0.0,0.0,0.0,0.0,0.0,0.0,0.0,0.0,0.0,0.0,0.0,0.0,0.0,0.0,0.0,0.0,0.0,0.0,0.0,0.0,0.0,0.0,0.0,0.0,0.0,0.0,0.0,0.0,0.0,0.0,0.0,0.0,0.0,0.0,0.0,0.0,0.0,0.0,0.0,0.0,0.0,0.0,0.0,0.0,0.0,0.0,0.0,0.0,0.0,0.0,0.0,0.0,0.0,0.0,0.0,0.0,0.0,0.0,0.0,0.0,0.0,0.0,0.0,0.0,0.0,0.0,0.0,0.0,0.0,0.0,0.0,0.0,0.0,0.0,0.0,0.0,0.0,0.0,0.0,0.0,0.0,0.0,0.0,0.0,0.0,0.0,0.0,0.0,0.0,0.0,0.0,0.0,0.0,0.0,0.0,0.0,0.0,0.0,0.0,0.0,1.433,1.5867,1.6244,1.5433,1.5175,1.5207,0.0,0.0,0.0,0.0,0.0,0.0,0.0,0.0,0.0,0.0,0.0,0.0,0.0,0.0,0.0,0.0,0.0,0.0,0.0,0.0,0.0,0.0,0.0,0.0,0.0,0.0,0.0,0.0,0.0,0.0,0.0,0.0,0.0,0.0,0.0,0.0,0.0,0.0,0.0,0.0,0.0,0.0,0.0,0.0,0.0,0.0,0.0,0.0,0.0,0.0,0.0,0.0,0.0,0.0,0.0,0.0,0.0,0.0,0.0,0.0,0.0,0.0,0.0,0.0,0.0,0.0,0.0,0.0,0.0,0.0,0.0,0.0,0.0,0.0,0.0,0.0,0.0,0.0,0.0,0.0,0.0,0.0,0.0,0.0,0.0,0.0,0.0,0.0,0.0,0.0,0.0,0.0,0.0,0.0,0.0,0.0,0.0,0.0,0.0,0.0,0.0,0.0,0.0,0.0,0.0,0.0,0.0,0.0,1.3619,1.3619,1.3701,1.377,1.3621,1.339,1.3598,0.0,0.0,0.0,0.0,0.0,0.0,0.0,0.0,0.0,0.0,0.0,0.0,0.0,0.0,0.0,0.0,0.0,0.0,0.0,0.0,0.0,0.0,0.0,0.0,0.0,0.0,0.0,0.0,0.0,0.0,0.0,0.0,0.0,0.0,0.0,0.0,0.0,0.0,0.0,0.0,0.0,0.0,0.0,0.0,0.0,0.0,0.0,0.0,0.0,0.0,0.0,0.0,0.0,0.0,0.0,0.0,0.0,0.0,0.0,0.0,0.0,0.0,0.0,0.0,0.0,0.0,0.0,0.0,0.0,0.0,0.0,0.0,0.0,0.0,0.0,0.0,0.0,0.0,0.0,0.0,0.0,0.0,0.0,0.0,0.0,0.0,0.0,0.0,0.0,0.0,0.0,0.0,0.0,0.0,0.0,0.0,0.0,0.0,0.0,0.0,0.0,0.0,0.0,0.0,0.0,0.0,0.0,0.0,0.0,1.3593,0.0,1.3076,0.0,1.221,1.2108,0.0,0.0,0.0,0.0,0.0,0.0,0.0,0.0,0.0,0.0,0.0,0.0,0.0,0.0,0.0,0.0,0.0,0.0,0.0,0.0,0.0,0.0,0.0,0.0,0.0,0.0,0.0,0.0,0.0,0.0,0.0,0.0,0.0,0.0,0.0,0.0,0.0,0.0,0.0,0.0,0.0,0.0,0.0,0.0,0.0,0.0,0.0,0.0,0.0,0.0,0.0,0.0,0.0,0.0,0.0,0.0,0.0,0.0,0.0,0.0,0.0,0.0,0.0,0.0,0.0,0.0,0.0,0.0,0.0,0.0,0.0,0.0,0.0,0.0,0.0,0.0,0.0,0.0,0.0,0.0,0.0,0.0,0.0,0.0,0.0,0.0,0.0,0.0,0.0,0.0,0.0,0.0,0.0,0.0,0.0,0.0,0.0,0.0,0.0,0.0,0.0,0.0,0.0,0.0,0.0,0.0,0.0,0.0,0.0,1.358,1.3297,1.3011,0.0,1.2001,1.1751,0.0,0.0,0.0,0.0,0.0,0.0,0.0,0.0,0.0,0.0,0.0,0.0,0.0,0.0,0.0,0.0,0.0,0.0,0.0,0.0,0.0,0.0,0.0,0.0,0.0,0.0,0.0,0.0,0.0,0.0,0.0,0.0,0.0,0.0,0.0,0.0,0.0,0.0,0.0,0.0,0.0,0.0,0.0,0.0,0.0,0.0,0.0,0.0,0.0,0.0,0.0,0.0,0.0,0.0,0.0,0.0,0.0,0.0,0.0,0.0,0.0,0.0,0.0,0.0,0.0,0.0,0.0,0.0,0.0,0.0,0.0,0.0,0.0,0.0,0.0,0.0,0.0,0.0,0.0,0.0,0.0,0.0,0.0,0.0,0.0,0.0,0.0,0.0,0.0,0.0,0.0,0.0,0.0,0.0,0.0,0.0,0.0,0.0,0.0,0.0,0.0,0.0,0.0,0.0,0.0,0.0,0.0,0.0,0.0,0.0,1.3593,1.3322,1.2803,1.2364,1.214,0.0,0.0,0.0,0.0,0.0,0.0,0.0,0.0,0.0,0.0,0.0,0.0,0.0,0.0,0.0,0.0,0.0,0.0,0.0,0.0,0.0,0.0,0.0,0.0,0.0,0.0,0.0,0.0,0.0,0.0,0.0,0.0,0.0,0.0,0.0,0.0,0.0,0.0,0.0,0.0,0.0,0.0,0.0,0.0,0.0,0.0,0.0,0.0,0.0,0.0,0.0,0.0,0.0,0.0,0.0,0.0,0.0,0.0,0.0,0.0,0.0,0.0,0.0,0.0,0.0,0.0,0.0,0.0,0.0,0.0,0.0,0.0,0.0,0.0,0.0,0.0,0.0,0.0,0.0,0.0,0.0,0.0,0.0,0.0,0.0,0.0,0.0,0.0,0.0,0.0,0.0,0.0,0.0,0.0,0.0,0.0,0.0,0.0,0.0,0.0,0.0,0.0,0.0,0.0,0.0,0.0,0.0,0.0,0.0,0.0,1.3593,0.0,1.2279,1.1341,1.0824,1.0824,0.0,0.0,0.0,0.0,0.0,0.0,0.0,0.0,0.0,0.0,0.0,0.0,0.0,0.0,0.0,0.0,0.0,0.0,0.0,0.0,0.0,0.0,0.0,0.0,0.0,0.0,0.0,0.0,0.0,0.0,0.0,0.0,0.0,0.0,0.0,0.0,0.0,0.0,0.0,0.0,0.0,0.0,0.0,0.0,0.0,0.0,0.0,0.0,0.0,0.0,0.0,0.0,0.0,0.0,0.0,0.0,0.0,0.0,0.0,0.0,0.0,0.0,0.0,0.0,0.0,0.0,0.0,0.0,0.0,0.0,0.0,0.0,0.0,0.0,0.0,0.0,0.0,0.0,0.0,0.0,0.0,0.0,0.0,0.0,0.0,0.0,0.0,0.0,0.0,0.0,0.0,0.0,0.0,0.0,0.0,0.0,0.0,0.0,0.0,0.0,0.0,0.0,0.0,0.0,0.0,0.0,0.0,0.0,0.0,0.0,0.0,1.2057,1.1378,1.0931,0.0,0.0,0.0,0.0,0.0,0.0,0.0,0.0,0.0,0.0,0.0,0.0,0.0,0.0,0.0,0.0,0.0,0.0,0.0,0.0,0.0,0.0,0.0,0.0,0.0,0.0,0.0,0.0,0.0,0.0,0.0,0.0,0.0,0.0,0.0,0.0,0.0,0.0,0.0,0.0,0.0,0.0,0.0,0.0,0.0,0.0,0.0,0.0,0.0,0.0,0.0,0.0,0.0,0.0,0.0,0.0,0.0,0.0,0.0,0.0,0.0,0.0,0.0,0.0,0.0,0.0,0.0,0.0,0.0,0.0,0.0,0.0,0.0,0.0,0.0,0.0,0.0,0.0,0.0,0.0,0.0,0.0,0.0,0.0,0.0,0.0,0.0,0.0,0.0,0.0,0.0,0.0,0.0,0.0,0.0,0.0,0.0,0.0,0.0,0.0,0.0,0.0,0.0,0.0,0.0,0.0,0.0,0.0,0.0,0.0,0.0,1.3115,1.2083,1.2031,0.0,1.1368,0.0,0.0,0.0,0.0,0.0,0.0,0.0,0.0,0.0,0.0,0.0,0.0,0.0,0.0,0.0,0.0,0.0,0.0,0.0,0.0,0.0,0.0,0.0,0.0,0.0,0.0,0.0,0.0,0.0,0.0,0.0,0.0,0.0,0.0,0.0,0.0,0.0,0.0,0.0,0.0,0.0,0.0,0.0,0.0,0.0,0.0,0.0,0.0,0.0,0.0,0.0,0.0,0.0,0.0,0.0,0.0,0.0,0.0,0.0,0.0,0.0,0.0,0.0,0.0,0.0,0.0,0.0,0.0,0.0,0.0,0.0,0.0,0.0,0.0,0.0,0.0,0.0,0.0,0.0,0.0,0.0,0.0,0.0,0.0,0.0,0.0,0.0,0.0,0.0,0.0,0.0,0.0,0.0,0.0,0.0,0.0,0.0,0.0,0.0,0.0,0.0,0.0,0.0,0.0,0.0,0.0,0.0,0.0,0.0,0.0,0.0,0.0,1.2044,1.1598,1.0618,0.0,0.0,0.0,0.0,0.0,0.0,0.0,0.0,0.0,0.0,0.0,0.0,0.0,0.0,0.0,0.0,0.0,0.0,0.0,0.0,0.0,0.0,0.0,0.0,0.0,0.0,0.0,0.0,0.0,0.0,0.0,0.0,0.0,0.0,0.0,0.0,0.0,0.0,0.0,0.0,0.0,0.0,0.0,0.0,0.0,0.0,0.0,0.0,0.0,0.0,0.0,0.0,0.0,0.0,0.0,0.0,0.0,0.0,0.0,0.0,0.0,0.0,0.0,0.0,0.0,0.0,0.0,0.0,0.0,0.0,0.0,0.0,0.0,0.0,0.0,0.0,0.0,0.0,0.0,0.0,0.0,0.0,0.0,0.0,0.0,0.0,0.0,0.0,0.0,0.0,0.0,0.0,0.0,0.0,0.0,0.0,0.0,0.0,0.0,0.0,0.0,0.0,0.0,0.0,0.0,0.0,0.0,0.0,0.0,0.0,1.2881,1.2106,1.1783,1.1201,1.0328,0.0,0.0,0.0,0.0,0.0,0.0,0.0,0.0,0.0,0.0,0.0,0.0,0.0,0.0,0.0,0.0,0.0,0.0,0.0,0.0,0.0,0.0,0.0,0.0,0.0,0.0,0.0,0.0,0.0,0.0,0.0,0.0,0.0,0.0,0.0,0.0,0.0,0.0,0.0,0.0,0.0,0.0,0.0,0.0,0.0,0.0,0.0,0.0,0.0,0.0,0.0,0.0,0.0,0.0,0.0,0.0,0.0,0.0,0.0,0.0,0.0,0.0,0.0,0.0,0.0,0.0,0.0,0.0,0.0,0.0,0.0,0.0,0.0,0.0,0.0,0.0,0.0,0.0,0.0,0.0,0.0,0.0,0.0,0.0,0.0,0.0,0.0,0.0,0.0,0.0,0.0,0.0,0.0,0.0,0.0,0.0,0.0,0.0,0.0,0.0,0.0,0.0,0.0,0.0,0.0,0.0,0.0,0.0,0.0,0.0,0.0,0.0,0.0,0.0,1.0359,0.0,0.0,0.0,0.0,0.0,0.0,0.0,0.0,0.0,0.0,0.0,0.0,0.0,0.0,0.0,0.0,0.0,0.0,0.0,0.0,0.0,0.0,0.0,0.0,0.0,0.0,0.0,0.0,0.0,0.0,0.0,0.0,0.0,0.0,0.0,0.0,0.0,0.0,0.0,0.0,0.0,0.0,0.0,0.0,0.0,0.0,0.0,0.0,0.0,0.0,0.0,0.0,0.0,0.0,0.0,0.0,0.0,0.0,0.0,0.0,0.0,0.0,0.0,0.0,0.0,0.0,0.0,0.0,0.0,0.0,0.0,0.0,0.0,0.0,0.0,0.0,0.0,0.0,0.0,0.0,0.0,0.0,0.0,0.0,0.0,0.0,0.0,0.0,0.0,0.0,0.0,0.0,0.0,0.0,0.0,0.0,0.0,0.0,0.0,0.0,0.0,0.0,0.0,0.0,0.0,0.0,0.0,0.0,0.0,0.0,0.0,0.0,0.0,0.0,0.0,0.0,0.0,0.0,0.0,0.0,0.0,0.0,0.0,0.0,0.0,0.0,0.0,0.0,0.0,0.0,0.0,0.0,0.0,0.0,0.0,0.0,0.0,0.0,0.0,0.0,0.0,0.0,0.0,0.0,0.0,0.0,0.0,0.0,0.0,0.0,0.0,0.0,0.0,0.0,0.0,0.0,0.0,0.0,0.0,0.0,0.0,0.0,0.0,0.0,0.0,0.0,0.0,0.0,0.0,0.0,0.0,0.0,0.0,0.0,0.0,0.0,0.0,0.0,0.0,0.0,0.0,0.0,0.0,0.0,0.0,0.0,0.0,0.0,0.0,0.0,0.0,0.0,0.0,0.0,0.0,0.0,0.0,0.0,0.0,0.0,0.0,0.0,0.0,0.0,0.0,0.0,0.0,0.0,0.0,0.0,0.0,0.0,0.0,0.0,0.0,0.0,0.0,0.0,0.0,0.0,0.0,0.0,0.0,0.0,0.0,0.0,0.0,0.0,0.0,0.0,0.0,0.0,0.0,0.0,0.0,0.0,0.0,0.0,0.0,0.0,0.0,0.0,0.0,0.0,0.0,0.0,0.0,0.0,0.0,0.0,0.0,0.0,0.0,0.0,0.0,0.0,0.0,0.0,0.0,0.0,0.0,0.0,0.0,0.0,0.0,0.0,0.0,0.0,0.0,0.0,0.0,0.0,0.0,0.0,0.0,0.0,0.0,0.0,0.0,0.0,0.0,0.0,0.0,0.0,0.0,0.0,0.0,0.0,0.0,0.0,0.0,0.0,0.0,0.0,0.0,0.0,0.0,0.0,0.0,0.0,0.0,0.0,0.0,0.0,0.0,0.0,0.0,0.0,0.0,0.0,0.0,0.0,0.0,0.0,0.0,0.0,0.0,0.0,0.0,0.0,0.0,0.0,0.0,0.0,0.0,0.0,0.0,0.0,0.0,0.0,0.0,0.0,0.0,0.0,0.0,0.0,0.0,0.0,0.0,0.0,0.0,0.0,0.0,0.0,0.0,0.0,0.0,0.0,0.0,0.0,0.0,0.0,0.0,0.0,0.0,0.0,0.0,0.0,0.0,0.0,0.0,0.0,0.0,0.0,0.0,0.0,0.0,0.0,0.0,0.0,0.0,0.0,0.0,0.0,0.0,0.0,0.0,0.0,0.0,0.0,0.0,0.0,0.0,0.0,0.0,0.0,0.0,0.0,0.0,0.0,0.0,0.0,0.0,0.0,0.0,0.0,0.0,0.0,0.0,0.0,0.0,0.0,0.0,0.0,0.0,0.0,0.0,0.0,0.0,0.0,0.0,0.0,0.0,0.0,0.0,0.0,0.0,0.0,0.0,0.0,0.0,0.0,0.0,0.0,0.0,0.0,0.0,0.0,0.0,0.0,0.0,0.0,0.0,0.0,0.0,0.0,0.0,0.0,0.0,0.0,0.0,0.0,0.0,0.0,0.0,0.0,0.0,0.0,0.0,0.0,0.0,0.0,0.0,0.0,0.0,0.0,0.0,0.0,0.0,0.0,0.0,0.0,0.0,0.0,0.0,0.0,0.0,0.0,0.0,0.0,0.0,0.0,0.0,0.0,0.0,0.0,0.0,0.0,0.0,0.0,0.0,0.0,0.0,0.0,0.0,0.0,0.0,0.0,0.0,0.0,0.0,0.0,0.0,0.0,0.0,0.0,0.0,0.0,0.0,0.0,0.0,0.0,0.0,0.0,0.0,0.0,0.0,0.0,0.0,0.0,0.0,0.0,0.0,0.0,0.0,0.0,0.0,0.0,0.0,0.0,0.0,0.0,0.0,0.0,0.0,0.0,0.0,0.0,0.0,0.0,0.0,0.0,0.0,0.0,0.0,0.0,0.0,0.0,0.0,0.0,0.0,0.0,0.0,0.0,0.0,0.0,0.0,0.0,0.0,0.0,0.0,0.0,0.0,0.0,0.0,0.0,0.0,0.0,0.0,0.0,0.0,0.0,0.0,0.0,0.0,0.0,0.0,0.0,0.0,0.0,0.0,0.0,0.0,0.0,0.0,0.0,0.0,0.0,0.0,0.0,0.0,0.0,0.0,0.0,0.0,0.0,0.0,0.0,0.0,0.0,0.0,0.0,0.0,0.0,0.0,0.0,0.0,0.0,0.0,0.0,0.0,0.0,0.0,0.0,0.0,0.0,0.0,0.0,0.0,0.0,0.0,0.0,0.0,0.0,0.0,0.0,0.0,0.0,0.0,0.0,0.0,0.0,0.0,0.0,0.0,0.0,0.0,0.0,0.0,0.0,0.0,0.0,0.0,0.0,0.0,0.0,0.0,0.0,0.0,0.0,0.0,0.0,0.0,0.0,0.0,0.0,0.0,0.0,0.0,0.0,0.0,0.0,0.0,0.0,0.0,0.0,0.0,0.0,0.0,0.0,0.0,0.0,0.0,0.0,0.0,0.0,0.0,0.0,0.0,0.0,0.0,0.0,0.0,0.0,0.0,0.0,0.0,0.0,0.0,0.0,0.0,0.0,0.0,0.0,0.0,0.0,0.0,0.0,0.0,0.0,0.0,0.0,0.0,0.0,0.0,0.0,0.0,0.0,0.0,0.0,0.0,0.0,0.0,0.0,0.0,0.0,0.0,0.0,0.0,0.0,0.0,0.0,0.0,0.0,0.0,0.0,0.0,0.0,0.0,0.0,0.0,0.0,0.0,0.0,0.0,0.0,0.0,0.0,0.0,0.0,0.0,0.0,0.0,0.0,0.0,0.0,0.0,0.0,0.0,0.0,0.0,0.0,0.0,0.0,0.0,0.0,0.0,0.0,0.0,0.0,0.0,0.0,0.0,0.0,0.0,0.0,0.0,0.0,0.0,0.0,0.0,0.0,0.0,0.0,0.0,0.0,0.0,0.0,0.0,0.0,0.0,0.0,0.0,0.0,0.0,0.0,0.0,0.0,0.0,0.0,0.0,0.0,0.0,0.0,0.0,0.0,0.0,0.0,0.0,0.0,0.0,0.0,0.0,0.0,0.0,0.0,0.0,0.0,0.0,0.0,0.0,0.0,0.0,0.0,0.0,0.0,0.0,0.0,0.0,0.0,0.0,0.0,0.0,0.0,0.0,0.0,0.0,0.0,0.0,0.0,0.0,0.0,0.0,0.0,0.0,0.0,0.0,0.0,0.0,0.0,0.0,0.0,0.0,0.0,0.0,0.0,0.0,0.0,0.0,0.0,0.0,0.0,0.0,0.0,0.0,0.0,0.0,0.0,0.0,0.0,0.0,0.0,0.0,0.0,0.0,0.0,0.0,0.0,0.0,0.0,0.0,0.0,0.0,0.0,0.0,0.0,0.0,0.0,0.0,0.0,0.0,0.0,0.0,0.0,0.0,0.0,0.0,0.0,0.0,0.0,0.0,0.0,0.0,0.0,0.0,0.0,0.0,0.0,0.0,0.0,0.0,0.0,0.0,0.0,0.0,0.0,0.0,0.0,0.0,0.0,0.0,0.0,0.0,0.0,0.0,0.0,0.0,0.0,0.0,0.0,0.0,0.0,0.0,0.0,0.0,0.0,0.0,0.0,0.0,0.0,0.0,0.0,0.0,0.0,0.0,0.0,0.0,0.0,0.0,0.0,0.0,0.0,0.0,0.0,0.0,0.0,0.0,0.0,0.0,0.0,0.0,0.0,0.0,0.0,0.0,0.0,0.0,0.0,0.0,0.0,0.0,0.0,0.0,0.0,0.0,0.0,0.0,0.0,0.0,0.0,0.0,0.0,0.0,0.0,0.0,0.0,0.0,0.0,0.0,0.0,0.0,0.0,0.0,0.0,0.0,0.0,0.0,0.0,0.0,0.0,0.0,0.0,0.0,0.0,0.0,0.0,0.0,0.0]}]]]